[[{"header":{"parameterUnit":"m.s-1","parameterCategory":1,"la1":30.6,"la2":28.766,"lo1":-90.7593,"lo2":-88.6598,"dy":0.0162,"dx":0.0183,"nx":116,"ny":114,"refTime":"2024-05-23T06:00:00:Z","depth":0,"parameterNumber":2,"parameterNumberName":"U-component_of_WINDS"},"data":[0.0,0.0,0.0,0.0,0.0,0.0,0.0,0.0,0.0,0.0,0.0,0.0,0.0,0.0,0.0,0.0,0.0,0.0,0.0,0.0,0.0,0.0,0.0,0.0,0.0,0.0,0.0,0.0,0.0,0.0,0.0,0.0,0.0,0.0,0.0,0.0,0.0,0.0,0.0,0.0,0.0,0.0,0.0,0.0,0.0,0.0,0.0,0.0,0.0,0.0,0.0,0.0,0.0,0.0,0.0,0.0,0.0,0.0,0.0,0.0,0.0,0.0,0.0,0.0,0.0,0.0,0.0,0.0,0.0,0.0,0.0,0.0,0.0,0.0,0.0,0.0,0.0,0.0,0.0,0.0,0.0,0.0,0.0,0.0,0.0,0.0,0.0,0.0,0.0,0.0,0.0,0.0,0.0,0.0,0.0,0.0,0.0,0.0,0.0,0.0,0.0,0.0,0.0,0.0,0.0,0.0,0.0,0.0,0.0,0.0,0.0,0.0,0.0,0.0,0.0,0.0,0.0,0.0,0.0,0.0,0.0,0.0,0.0,0.0,0.0,0.0,0.0,0.0,0.0,0.0,0.0,0.0,0.0,0.0,0.0,0.0,0.0,0.0,0.0,0.0,0.0,0.0,0.0,0.0,0.0,0.0,0.0,0.0,0.0,0.0,0.0,0.0,0.0,0.0,0.0,0.0,0.0,0.0,0.0,0.0,0.0,0.0,0.0,0.0,0.0,0.0,0.0,0.0,0.0,0.0,0.0,0.0,0.0,0.0,0.0,0.0,0.0,0.0,0.0,0.0,0.0,0.0,0.0,0.0,0.0,0.0,0.0,0.0,0.0,0.0,0.0,0.0,0.0,0.0,0.0,0.0,0.0,0.0,0.0,0.0,0.0,0.0,0.0,0.0,0.0,0.0,0.0,0.0,0.0,0.0,0.0,0.0,0.0,0.0,0.0,0.0,0.0,0.0,0.0,0.0,0.0,0.0,0.0,0.0,0.0,0.0,0.0,0.0,0.0,0.0,0.0,0.0,0.0,0.0,0.0,0.0,0.0,0.0,0.0,0.0,0.0,0.0,0.0,0.0,0.0,0.0,0.0,0.0,0.0,0.0,0.0,0.0,0.0,0.0,0.0,0.0,0.0,0.0,0.0,0.0,0.0,0.0,0.0,0.0,0.0,0.0,0.0,0.0,0.0,0.0,0.0,0.0,0.0,0.0,0.0,0.0,0.0,0.0,0.0,0.0,0.0,0.0,0.0,0.0,0.0,0.0,0.0,0.0,0.0,0.0,0.0,0.0,0.0,0.0,0.0,0.0,0.0,0.0,0.0,0.0,0.0,0.0,0.0,0.0,0.0,0.0,0.0,0.0,0.0,0.0,0.0,0.0,0.0,0.0,0.0,0.0,0.0,0.0,0.0,0.0,0.0,0.0,0.0,0.0,0.0,0.0,0.0,0.0,0.0,0.0,0.0,0.0,0.0,0.0,0.0,0.0,0.0,0.0,0.0,0.0,0.0,0.0,0.0,0.0,0.0,0.0,0.0,0.0,0.0,0.0,0.0,0.0,0.0,0.0,0.0,0.0,0.0,0.0,0.0,0.0,0.0,0.0,0.0,0.0,0.0,0.0,0.0,0.0,0.0,0.0,0.0,0.0,0.0,0.0,0.0,0.0,0.0,0.0,0.0,0.0,0.0,0.0,0.0,0.0,0.0,0.0,0.0,0.0,0.0,0.0,0.0,0.0,0.0,0.0,0.0,0.0,0.0,0.0,0.0,0.0,0.0,0.0,0.0,0.0,0.0,0.0,0.0,0.0,0.0,0.0,0.0,0.0,0.0,0.0,0.0,0.0,0.0,0.0,0.0,0.0,0.0,0.0,0.0,0.0,0.0,0.0,0.0,0.0,0.0,0.0,0.0,0.0,0.0,0.0,0.0,0.0,0.0,0.0,0.0,0.0,0.0,0.0,0.0,0.0,0.0,0.0,0.0,0.0,0.0,0.0,0.0,0.0,0.0,0.0,0.0,0.0,0.0,0.0,0.0,0.0,0.0,0.0,0.0,0.0,0.0,0.0,0.0,0.0,0.0,0.0,0.0,0.0,0.0,0.0,0.0,0.0,0.0,0.0,0.0,0.0,0.0,0.0,0.0,0.0,0.0,0.0,0.0,0.0,0.0,0.0,0.0,0.0,0.0,0.0,0.0,0.0,0.0,0.0,0.0,0.0,0.0,0.0,0.0,0.0,0.0,0.0,0.0,0.0,0.0,0.0,0.0,0.0,0.0,0.0,0.0,0.0,0.0,0.0,0.0,0.0,0.0,0.0,0.0,0.0,0.0,0.0,0.0,0.0,0.0,0.0,0.0,0.0,0.0,0.0,0.0,0.0,0.0,0.0,0.0,0.0,0.0,0.0,0.0,0.0,0.0,0.0,0.0,0.0,0.0,0.0,0.0,0.0,0.0,0.0,0.0,0.0,0.0,0.0,0.0,0.0,0.0,0.0,0.0,0.0,0.0,0.0,0.0,0.0,0.0,0.0,0.0,0.0,0.0,0.0,0.0,0.0,0.0,0.0,0.0,0.0,0.0,0.0,0.0,0.0,0.0,0.0,0.0,0.0,0.0,0.0,0.0,0.0,0.0,0.0,0.0,0.0,0.0,0.0,0.0,0.0,0.0,0.0,0.0,0.0,0.0,0.0,0.0,0.0,0.0,0.0,0.0,0.0,0.0,0.0,0.0,0.0,0.0,0.0,0.0,0.0,0.0,0.0,0.0,0.0,0.0,0.0,0.0,0.0,0.0,0.0,0.0,0.0,0.0,0.0,0.0,0.0,0.0,0.0,0.0,0.0,0.0,0.0,0.0,0.0,0.0,0.0,0.0,0.0,0.0,0.0,0.0,0.0,0.0,0.0,0.0,0.0,0.0,0.0,0.0,0.0,0.0,0.0,0.0,0.0,0.0,0.0,0.0,0.0,0.0,0.0,0.0,0.0,0.0,0.0,0.0,0.0,0.0,0.0,0.0,0.0,0.0,0.0,0.0,0.0,0.0,0.0,0.0,0.0,0.0,0.0,0.0,0.0,0.0,0.0,0.0,0.0,0.0,0.0,0.0,0.0,0.0,0.0,0.0,0.0,0.0,0.0,0.0,0.0,0.0,0.0,0.0,0.0,0.0,0.0,0.0,0.0,0.0,0.0,0.0,0.0,0.0,0.0,0.0,0.0,0.0,0.0,0.0,0.0,0.0,0.0,0.0,0.0,0.0,0.0,0.0,0.0,0.0,0.0,0.0,0.0,0.0,0.0,0.0,0.0,0.0,0.0,0.0,0.0,0.0,0.0,0.0,0.0,0.0,0.0,0.0,0.0,0.0,0.0,0.0,0.0,0.0,0.0,0.0,0.0,0.0,0.0,0.0,0.0,0.0,0.0,0.0,0.0,0.0,0.0,0.0,0.0,0.0,0.0,0.0,0.0,0.0,0.0,0.0,0.0,0.0,0.0,0.0,0.0,0.0,0.0,0.0,0.0,0.0,0.0,0.0,0.0,0.0,0.0,0.0,0.0,0.0,0.0,0.0,0.0,0.0,0.0,0.0,0.0,0.0,0.0,0.0,0.0,0.0,0.0,0.0,0.0,0.0,0.0,0.0,0.0,0.0,0.0,0.0,0.0,0.0,0.0,0.0,0.0,0.0,0.0,0.0,0.0,0.0,0.0,0.0,0.0,0.0,0.0,0.0,0.0,0.0,0.0,0.0,0.0,0.0,0.0,0.0,0.0,0.0,0.0,0.0,0.0,0.0,0.0,0.0,0.0,0.0,0.0,0.0,0.0,0.0,0.0,0.0,0.0,0.0,0.0,0.0,0.0,0.0,0.0,0.0,0.0,0.0,0.0,0.0,0.0,0.0,0.0,0.0,0.0,0.0,0.0,0.0,0.0,0.0,0.0,0.0,0.0,0.0,0.0,0.0,0.0,0.0,0.0,0.0,0.0,0.0,0.0,0.0,0.0,0.0,0.0,0.0,0.0,0.0,0.0,0.0,0.0,0.0,0.0,0.0,0.0,0.0,0.0,0.0,0.0,0.0,0.0,0.0,0.0,0.0,0.0,0.0,0.0,0.0,0.0,0.0,0.0,0.0,0.0,0.0,0.0,0.0,0.0,0.0,0.0,0.0,0.0,0.0,0.0,0.0,0.0,0.0,0.0,0.0,0.0,0.0,0.0,0.0,0.0,0.0,0.0,0.0,0.0,0.0,0.0,0.0,0.0,0.0,0.0,0.0,0.0,0.0,0.0,0.0,0.0,0.0,0.0,0.0,0.0,0.0,0.0,0.0,0.0,0.0,0.0,0.0,0.0,0.0,0.0,0.0,0.0,0.0,0.0,0.0,0.0,0.0,0.0,0.0,0.0,0.0,0.0,0.0,0.0,0.0,0.0,0.0,0.0,0.0,0.0,0.0,0.0,0.0,0.0,0.0,0.0,0.0,0.0,0.0,0.0,0.0,0.0,0.0,0.0,0.0,0.0,0.0,0.0,0.0,0.0,0.0,0.0,0.0,0.0,0.0,0.0,0.0,0.0,0.0,0.0,0.0,0.0,0.0,0.0,0.0,0.0,0.0,0.0,0.0,0.0,0.0,0.0,0.0,0.0,0.0,0.0,0.0,0.0,0.0,0.0,0.0,0.0,0.0,0.0,0.0,0.0,0.0,0.0,0.0,0.0,0.0,0.0,0.0,0.0,0.0,0.0,0.0,0.0,0.0,0.0,0.0,0.0,0.0,0.0,0.0,0.0,0.0,0.0,0.0,0.0,0.0,0.0,0.0,0.0,0.0,0.0,0.0,0.0,0.0,0.0,0.0,0.0,0.0,0.0,0.0,0.0,0.0,0.0,0.0,0.0,0.0,0.0,0.0,0.0,0.0,0.0,0.0,0.0,0.0,0.0,0.0,0.0,0.0,0.0,0.0,0.0,0.0,0.0,0.0,0.0,0.0,0.0,0.0,0.0,0.0,0.0,0.0,0.0,0.0,0.0,0.0,0.0,0.0,0.0,0.0,0.0,0.0,0.0,0.0,0.0,0.0,0.0,0.0,0.0,0.0,0.0,0.0,0.0,0.0,0.0,0.0,0.0,0.0,0.0,0.0,0.0,0.0,0.0,0.0,0.0,0.0,0.0,0.0,0.0,0.0,0.0,0.0,0.0,0.0,0.0,0.0,0.0,0.0,0.0,0.0,0.0,0.0,0.0,0.0,0.0,0.0,0.0,0.0,0.0,0.0,0.0,0.0,0.0,0.0,0.0,0.0,0.0,0.0,0.0,0.0,0.0,0.0,0.0,0.0,0.0,0.0,0.0,0.0,0.0,0.0,0.0,0.0,0.0,0.0,0.0,0.0,0.0,0.0,0.0,0.0,0.0,0.0,0.0,0.0,0.0,0.0,0.0,0.0,0.0,0.0,0.0,0.0,0.0,0.0,0.0,0.0,0.0,0.0,0.0,0.0,0.0,0.0,0.0,0.0,0.0,0.0,0.0,0.0,0.0,0.0,0.0,0.0,0.0,0.0,0.0,0.0,0.0,0.0,0.0,0.0,0.0,0.0,0.0,0.0,0.0,0.0,0.0,0.0,0.0,0.0,0.0,0.0,0.0,0.0,0.0,0.0,0.0,0.0,0.0,0.0,0.0,0.0,0.0,0.0,0.0,0.0,0.0,0.0,0.0,0.0,0.0,0.0,0.0,0.0,0.0,0.0,0.0,0.0,0.0,0.0,0.0,0.0,0.0,0.0,0.0,0.0,0.0,0.0,0.0,0.0,0.0,0.0,0.0,0.0,0.0,0.0,0.0,0.0,0.0,0.0,0.0,0.0,0.0,0.0,0.0,0.0,0.0,0.0,0.0,0.0,0.0,0.0,0.0,0.0,0.0,0.0,0.0,0.0,0.0,0.0,0.0,0.0,0.0,0.0,0.0,0.0,0.0,0.0,0.0,0.0,0.0,0.0,0.0,0.0,0.0,0.0,0.0,0.0,0.0,0.0,0.0,0.0,0.0,0.0,0.0,0.0,0.0,0.0,0.0,0.0,0.0,0.0,0.0,0.0,0.0,0.0,0.0,0.0,0.0,0.0,0.0,0.0,0.0,0.0,0.0,0.8755,0.0,0.0,0.0,0.0,0.0,0.0,0.0,0.0,0.0,0.0,0.0,0.0,0.0,0.0,0.0,0.0,0.0,0.0,0.0,0.0,0.0,0.0,0.0,0.0,1.4747,1.5581,1.5581,1.575,1.5887,1.5887,0.0,0.0,0.0,0.0,0.0,1.4578,1.4236,1.4428,1.5188,1.5389,1.5932,1.6817,1.6987,1.6404,1.5138,0.0,0.0,0.0,0.0,0.0,0.0,0.0,0.0,0.0,0.0,0.0,0.0,0.0,0.0,0.0,0.0,0.0,0.0,0.0,0.0,0.0,0.0,0.0,0.0,0.0,0.0,0.0,0.0,0.0,0.0,0.0,0.0,0.0,0.0,0.0,0.0,0.0,0.0,0.0,0.0,0.0,0.0,0.0,0.0,0.0,0.0,0.0,0.0,0.0,0.0,0.0,0.0,0.0,0.0,0.0,0.0,0.0,0.0,0.0,0.0,0.0,0.0,0.0,0.0,0.0,0.0,0.0,0.0,0.0,0.0,0.0,0.8861,0.0,0.0,0.0,0.0,0.0,0.0,0.0,0.0,0.0,0.0,0.0,0.0,0.0,0.0,0.0,0.0,0.0,0.0,0.0,0.0,0.0,1.3318,1.3379,1.4945,1.6017,1.6117,1.6437,1.6642,1.6642,1.5839,0.0,0.0,0.0,1.4814,1.5153,1.4864,1.5464,1.6914,1.6674,1.7313,1.8793,1.9232,1.8601,1.7049,1.6751,0.0,0.0,0.0,0.0,0.0,0.0,0.0,0.0,0.0,0.0,0.0,0.0,0.0,0.0,0.0,0.0,0.0,0.0,0.0,0.0,0.0,0.0,0.0,0.0,0.0,0.0,0.0,0.0,0.0,0.0,0.0,0.0,0.0,0.0,0.0,0.0,0.0,0.0,0.0,0.0,0.0,0.0,0.0,0.0,0.0,0.0,0.0,0.0,0.0,0.0,0.0,0.0,0.0,0.0,0.0,0.0,0.0,0.0,0.0,0.0,0.0,0.0,0.0,0.9775,1.0052,1.0489,1.0395,1.0096,0.9749,0.9326,0.8831,0.8321,0.0,0.0,0.0,0.0,0.0,0.0,0.0,0.0,0.0,0.0,0.0,0.0,0.0,0.0,0.0,0.0,0.0,0.0,0.0,0.0,1.3823,1.4123,1.4893,1.564,1.6201,1.6327,1.6362,1.6362,1.643,0.0,0.0,1.5724,1.525,1.5435,1.5078,1.5683,1.7345,1.9136,2.0376,2.1049,2.1131,2.103,2.0716,1.9282,1.8557,1.8423,0.0,0.0,0.0,0.0,0.0,0.0,0.0,0.0,0.0,0.0,0.0,0.0,0.0,0.0,0.0,0.0,0.0,0.0,0.0,0.0,0.0,0.0,0.0,0.0,0.0,0.0,0.0,0.0,0.0,0.0,0.0,0.0,0.0,0.0,0.0,0.0,0.0,0.0,0.0,0.0,0.0,1.2097,1.2865,0.0,0.0,0.0,0.0,0.0,0.0,0.0,0.0,0.0,0.0,0.0,0.0,0.0,0.0,1.0459,1.0083,0.9864,0.9888,0.9315,0.9138,0.9414,0.9414,0.9402,0.946,0.9453,0.0,0.8,0.7974,0.0,0.0,0.0,0.0,0.0,0.0,0.0,0.0,0.0,0.0,0.0,0.0,0.0,0.0,0.0,0.0,0.0,0.0,0.0,0.0,0.0,1.5612,1.6818,1.7803,1.8403,1.8464,1.7808,1.767,1.7149,1.6181,1.5442,1.5201,1.5474,1.6038,1.7402,1.971,2.1944,2.3107,2.3381,2.4014,2.4294,2.4299,2.3537,2.2017,1.9867,1.8473,0.0,0.0,0.0,0.0,0.0,0.0,0.0,0.0,0.0,0.0,0.0,0.0,0.0,0.0,0.0,0.0,0.0,0.0,0.0,0.0,0.0,0.0,0.0,0.0,0.0,0.0,0.0,0.0,0.0,0.0,0.0,0.0,0.0,0.0,0.0,0.0,0.0,0.0,0.0,1.1561,1.2766,1.2825,1.2859,1.2729,0.0,0.0,0.0,0.0,0.0,0.0,0.0,0.0,0.0,1.0543,1.0096,0.9884,0.9914,0.9708,0.969,0.9785,0.9648,0.9598,0.9659,0.9747,0.9825,0.989,0.9958,0.9676,0.913,0.8645,0.8092,0.7522,0.0,0.0,0.0,0.0,0.6898,0.6765,0.0,0.0,0.0,0.0,0.0,0.0,0.0,0.0,0.0,0.0,0.0,0.0,1.4896,1.6655,1.8194,1.9176,2.0202,2.0274,1.9192,1.8556,1.762,1.6257,1.5581,1.5479,1.5975,1.7611,1.9738,2.2342,2.4293,2.535,2.5646,2.6473,2.6944,2.6943,2.6878,2.5119,2.2104,2.0672,1.9447,0.0,0.0,0.0,0.0,0.0,0.0,0.0,0.0,0.0,0.0,0.0,0.0,0.0,0.0,0.0,0.0,0.0,0.0,0.0,0.0,0.0,0.0,0.0,0.0,0.0,0.0,0.0,0.0,0.0,0.0,0.0,0.0,0.0,0.0,0.0,0.0,0.0,0.0,1.1983,1.2938,1.2825,1.2846,1.2601,0.0,0.0,0.0,0.0,0.0,0.0,1.0074,1.0304,1.0397,1.0205,1.0003,0.9772,0.9378,0.9534,0.9669,0.9785,1.0005,1.0127,1.0164,1.0283,1.0354,1.0392,1.0392,1.0307,1.011,0.9439,0.8879,0.8414,0.8157,0.7987,0.7736,0.7763,0.7697,0.7584,0.0,0.0,0.0,0.0,0.0,0.0,0.0,0.0,0.0,0.0,0.0,1.4789,1.6253,1.7963,1.9218,1.9713,2.0452,2.0557,0.0,1.8636,1.8018,1.8064,1.6887,1.6587,1.7285,1.9909,2.2394,2.4655,2.5809,2.6924,2.7948,2.7973,2.8009,2.8057,2.8,2.7372,2.6095,2.3854,2.2284,2.1041,0.0,0.0,0.0,0.0,0.0,0.0,0.0,0.0,0.0,0.0,0.0,0.0,0.0,0.0,0.0,0.0,0.0,0.0,0.0,0.0,0.0,0.0,0.0,0.0,0.0,0.0,0.0,0.0,0.0,0.0,0.0,0.0,0.0,0.0,0.0,0.0,0.0,0.0,0.0,1.3124,1.2605,0.0,0.0,0.0,0.0,0.999,1.0414,1.0943,1.1543,1.1028,1.0871,1.1241,1.0306,0.9832,1.0002,1.0158,1.0239,1.0246,1.0259,1.0337,1.047,1.0477,1.0561,1.0697,1.0697,1.0612,1.0432,0.9968,0.968,0.9513,0.9354,0.9063,0.8839,0.8862,0.8503,0.7926,0.0,0.0,0.0,0.0,0.0,1.011,1.021,1.0598,1.1107,1.1757,1.3854,1.5711,1.689,1.8932,2.0556,2.1412,2.2191,2.2147,2.1022,2.0356,1.975,1.9236,1.813,1.8448,2.0489,2.2224,2.4008,2.5871,2.7369,2.8237,2.8623,2.9003,2.9155,2.9155,2.916,2.8775,2.7927,2.6058,2.4431,2.2924,2.0865,1.8932,0.0,0.0,0.0,0.0,0.0,0.0,0.0,0.0,0.0,0.0,0.0,0.0,0.0,0.0,0.0,0.0,0.0,0.0,0.0,0.0,0.0,0.0,0.0,0.0,0.0,0.0,0.0,0.0,0.0,0.0,0.0,0.0,0.0,0.0,0.0,0.0,0.0,1.1625,1.1652,0.0,0.0,1.0147,0.9761,0.9938,0.9963,0.9945,1.0173,1.0207,1.0292,1.0404,1.0256,1.0185,1.0331,1.0388,1.0466,1.0565,1.0565,1.0588,1.0639,1.0639,1.067,1.0721,1.0721,1.0697,1.0646,1.049,1.0092,0.9784,0.9731,0.9546,0.9376,0.8986,0.8808,0.7994,0.0,0.0,0.0,0.0,1.0046,0.997,1.021,1.0657,1.1332,1.2281,1.4358,1.6323,1.7735,1.9843,2.1453,2.2273,2.3083,2.295,2.164,2.101,2.0342,1.9585,1.9194,2.0263,2.2793,2.3942,2.5426,2.7313,2.8399,2.9003,2.9245,2.9639,2.9792,2.9792,2.9792,2.9578,2.9151,2.8059,2.6515,2.4682,2.3012,2.1455,1.9962,0.0,0.0,0.0,0.0,0.0,0.0,0.0,0.0,0.0,0.0,0.0,0.0,0.0,0.0,0.0,0.0,0.0,0.0,0.0,0.0,0.0,0.0,0.0,0.0,0.0,0.0,0.0,0.0,0.0,0.0,0.0,0.0,0.0,0.0,0.0,1.0634,1.0894,1.1142,1.107,1.06,1.0042,0.9743,0.9742,0.9634,0.9605,0.9605,0.9981,1.0198,1.0198,1.0348,1.0473,1.0568,1.0568,1.0619,1.0721,1.0721,1.0721,1.0721,1.0727,1.0731,1.0731,1.0744,1.0758,1.0635,0.9404,0.9389,0.9947,0.8759,0.9109,1.0106,0.9697,0.803,0.5304,0.0,0.0,0.0,0.9905,0.9905,0.9905,0.9905,1.086,1.1977,1.3035,1.4676,1.6559,1.8733,2.0705,2.1956,2.2292,2.2946,2.2867,2.1599,2.0426,1.9572,1.9095,2.0208,2.1866,2.402,2.5114,2.6748,2.8889,2.8889,2.9245,2.9792,2.9792,2.9792,2.9792,2.9792,2.9792,2.9792,2.9792,2.8536,2.6496,2.4782,2.4104,2.369,0.0,0.0,0.0,0.0,0.0,0.0,0.0,0.0,0.0,0.0,0.0,0.0,0.0,0.0,0.0,0.0,0.0,0.0,0.0,0.0,0.0,0.0,0.0,0.0,0.0,0.0,0.0,0.0,0.0,0.0,0.0,0.0,0.0,0.9555,1.0457,1.1067,1.117,1.0985,1.0662,1.0007,0.9608,0.9405,0.9408,0.9815,1.0063,1.0063,1.0341,1.05,1.05,1.0643,1.0721,1.0721,1.0721,1.0721,1.0721,1.0721,1.0721,1.0721,1.0744,1.0622,1.0485,1.0518,1.0535,1.0398,0.6985,0.7538,1.0427,0.6855,0.7538,1.043,1.043,0.593,-0.0,0.0,0.0,0.9607,0.9841,0.9686,0.9607,0.988,1.086,1.1839,1.2542,1.5182,1.751,1.8868,2.0953,2.238,2.2871,2.276,2.2509,2.2128,2.0733,2.0208,2.0809,2.2648,2.4359,2.5799,2.6856,2.7924,2.8889,2.9372,2.9651,2.9792,2.9792,2.9792,2.9792,2.9792,2.9792,2.9792,2.9792,2.944,2.8762,2.7494,2.6239,2.4971,0.0,0.0,0.0,0.0,0.0,0.0,0.0,0.0,0.0,0.0,0.0,0.0,0.0,0.0,0.0,0.0,0.0,0.0,0.0,0.0,0.0,0.0,0.0,0.0,0.0,0.0,0.0,0.0,0.0,0.0,0.0,0.0,0.8758,0.9116,0.9284,0.9455,0.9514,0.9789,0.9888,0.9913,0.982,0.9914,1.0025,1.0243,1.0368,1.0368,1.0551,1.0656,1.0656,1.07,1.0721,1.0721,1.0721,1.0721,1.0721,1.0738,1.0744,1.0744,1.0642,0.9285,0.684,0.6846,0.8349,1.0561,0.9597,0.9881,1.0591,0.9603,0.6604,0.2961,0.2961,0.175,-0.0,0.0,0.9487,0.9449,0.9659,0.954,0.9461,0.9659,1.0775,1.1864,1.2655,1.5248,1.7547,1.8844,2.059,2.1911,2.2372,2.2388,2.2035,2.128,2.0629,2.0992,2.2472,2.423,2.577,2.7123,2.8014,2.8692,2.9269,2.9651,2.9792,2.9792,2.9792,2.9792,2.9792,2.9792,2.9792,2.9792,2.9792,2.9792,2.9729,2.8583,2.7817,2.711,2.513,2.352,2.2163,2.0223,1.8794,1.7644,1.7011,0.0,0.0,0.0,0.0,0.0,0.0,0.0,0.0,0.0,0.0,0.0,0.0,0.0,0.0,0.0,0.0,0.0,0.0,0.0,0.0,0.0,0.0,0.0,0.0,0.8925,0.887,0.894,0.8895,0.8998,0.9276,0.9595,0.9849,0.9998,1.0148,1.0273,1.0361,1.0504,1.0585,1.0585,1.067,1.0721,1.0721,1.0721,1.0721,1.0721,1.0731,1.0734,1.0734,1.0761,0.9955,0.859,0.9984,0.9585,0.0,0.4431,0.4301,0.6472,0.9478,0.8935,0.0,0.0,0.0,0.0,0.0,-0.0,-0.0,0.0,0.9253,0.9354,0.9408,0.9316,0.9313,0.9479,1.0669,1.1971,1.3135,1.5151,1.7137,1.8707,1.9974,2.092,2.1355,2.1895,2.1606,0.0,0.0,2.197,2.4067,2.527,2.6593,2.8187,2.875,2.9257,2.9792,2.9792,2.9792,2.9792,2.9792,2.9792,2.9792,2.9674,2.9584,2.9624,2.9456,2.9468,2.9534,2.8359,2.8609,2.9232,2.6065,2.4699,2.4078,2.119,1.9434,1.8447,1.7978,0.0,0.0,0.0,0.0,0.0,0.0,0.0,0.0,0.0,0.0,0.0,0.0,0.0,0.0,0.0,0.0,0.0,0.0,0.0,0.0,0.0,0.0,0.0,0.0,0.8885,0.8801,0.8988,0.9137,0.9378,0.9774,0.9971,1.0137,1.029,1.0432,1.0517,1.0517,1.0643,1.0721,1.0721,0.0,0.0,0.0,0.0,1.0724,1.0731,1.0765,1.0512,1.0101,1.0561,0.9072,0.6069,0.8404,0.9514,0.9103,0.2704,-0.0,0.0541,0.6914,0.5678,-0.0,-0.0,-0.0,-0.0,-0.0,-0.0,-0.0,0.0,0.9286,0.9008,0.9343,0.891,0.885,0.9883,1.0654,1.1797,1.3684,1.5429,1.6986,1.8229,1.9736,2.0756,2.0869,2.133,2.1694,0.0,0.0,2.3953,2.5239,2.6801,2.7952,2.8712,2.9312,2.9664,2.9792,2.9792,2.9792,2.9792,2.9792,2.9792,2.9727,2.8867,2.8405,2.8347,2.7545,2.7626,2.8347,2.7209,2.7452,2.8171,2.6221,2.4955,2.4089,2.2671,2.1944,2.1523,2.0752,1.9902,1.9082,1.8574,0.0,0.0,0.0,0.0,0.0,0.0,0.0,0.0,0.0,0.0,0.0,0.0,0.0,0.0,0.0,0.0,0.0,0.0,0.0,0.0,0.9718,0.9268,0.9032,0.9425,0.9602,0.9724,0.9812,1.0066,1.0293,1.0436,1.0585,1.0677,1.0677,1.0704,1.0721,1.0721,1.0721,0.0,1.0748,1.0748,1.0761,1.0655,1.0644,0.9307,0.6411,0.0,0.0,0.9498,0.4454,0.2087,0.1948,0.0557,-0.0,0.0139,0.1513,0.1224,-0.0,-0.0,-0.0,-0.0,-0.0,-0.0,-0.0,0.9224,0.9062,0.8871,0.9062,0.8662,0.8667,0.9741,1.0534,1.1769,1.3835,1.5254,1.6534,1.7664,1.8781,1.9434,1.9434,1.9936,0.0,0.0,2.3376,2.4707,2.637,2.7774,2.88,2.9347,2.9651,2.9792,2.9792,2.9792,2.9792,2.9792,2.9792,2.9477,2.8911,2.8383,2.7766,2.729,2.6719,2.6801,2.7197,2.613,2.5953,2.6333,2.5513,2.4941,2.4388,2.3288,2.2725,2.2451,2.2021,2.1299,2.0498,2.0059,1.8375,1.6271,0.0,0.0,0.0,0.0,0.0,0.0,0.0,0.0,0.0,0.0,0.0,0.0,0.0,0.0,0.7926,0.0,0.0,0.9006,0.9489,0.9405,0.9378,0.9673,0.9842,0.9964,1.0042,1.0249,1.0443,1.0592,1.0673,1.0721,1.0721,1.0731,1.0738,1.0738,1.0755,1.0635,1.0645,0.8929,0.8005,0.8018,0.9817,0.9751,0.806,0.6157,0.5334,0.5194,0.1683,-0.0,-0.0,-0.0,-0.0,-0.0,-0.0,-0.0,-0.0,-0.0,-0.0,-0.0,-0.0,-0.0,-0.0,0.8618,0.8706,0.8706,0.8706,0.8421,0.8498,0.9481,1.0348,1.1595,1.3557,1.4924,1.6003,1.686,1.7693,1.8242,0.0,0.0,0.0,0.0,2.3728,2.5347,2.7364,2.8515,2.9264,2.9779,2.9792,2.9792,2.9792,2.9549,2.9549,2.9792,2.9369,2.8787,2.8093,2.7684,2.6948,2.6141,2.5891,2.5975,2.6058,2.4967,2.4628,2.4787,2.4542,2.4457,2.4382,2.3474,2.2812,2.2402,2.248,2.1768,2.0851,2.0572,1.8887,1.6788,1.5694,1.4077,0.0,0.0,0.0,0.0,0.0,0.0,0.0,0.0,0.0,0.7943,0.9035,0.8413,0.8037,0.9411,0.9118,0.8862,0.9188,0.9469,0.97,0.9846,1.0022,1.0185,1.0314,1.0426,1.0555,1.0711,1.0727,1.0731,1.0734,1.0755,1.0355,0.9673,0.9695,0.9996,1.0719,0.7922,0.5764,0.4401,0.7139,0.862,0.862,0.2823,-0.0,-0.0,-0.0,-0.0,-0.0,-0.0,-0.0,-0.0,-0.0,-0.0,-0.0,-0.0,-0.0,-0.0,-0.0,-0.0,-0.0,0.0,0.8347,0.8347,0.8347,0.8033,0.8199,0.9499,1.0165,1.1079,1.2579,1.4477,1.5608,1.5302,1.7024,1.8405,1.8845,0.0,0.0,2.2924,2.5021,2.6779,2.7957,2.9101,2.9768,2.9792,2.9792,2.9792,2.9792,2.8762,2.8774,2.9727,2.7816,2.7335,2.801,2.6042,2.5091,2.4957,2.3887,2.4049,2.4872,2.3714,2.3887,2.4702,2.3714,2.3309,2.3299,2.3135,2.2627,2.2012,2.2383,2.1239,1.9679,1.9978,1.8672,1.6773,1.5311,0.0,1.291,1.171,1.1612,1.1486,0.9855,1.0126,1.0282,0.0,0.0,0.8718,0.8585,0.8436,0.8462,0.8907,0.8889,0.9055,0.949,0.9693,0.9849,1.0002,1.0266,1.046,1.0377,1.05,1.0561,1.0734,1.0751,1.0761,1.0658,1.0665,0.9294,0.617,0.6036,0.7439,1.0616,1.0356,0.7061,0.0699,0.0993,0.1142,0.1142,0.0433,-0.0,-0.0,-0.0,-0.0,-0.0,-0.0,-0.0,-0.0,-0.0,-0.0,-0.0,-0.0,-0.0,-0.0,-0.0,-0.0,-0.0,0.0,0.7947,0.7947,0.7947,0.7812,0.8159,0.9508,0.9874,1.0664,1.2388,1.3349,1.4042,1.4449,1.5501,1.6337,1.6647,0.0,0.0,2.2026,2.4443,2.6466,2.8007,2.9214,2.9512,2.8852,2.9499,2.9142,2.7866,2.7999,2.8006,2.7865,2.6963,2.6365,2.6168,2.5221,2.443,2.38,2.3299,2.3387,2.38,2.3299,2.3387,2.38,2.3299,2.2533,2.1861,2.2505,2.2024,0.0,0.0,2.0087,1.8771,1.9067,1.7771,1.6004,1.54,1.4414,0.0,1.3454,1.2949,0.0,0.0,1.0848,1.0076,0.9292,0.8744,0.86,0.8632,0.8686,0.8838,0.914,0.9269,0.9445,0.0,0.9917,1.0046,1.0169,1.0368,1.0436,1.0551,0.881,0.8322,1.0495,0.8867,0.765,0.766,0.9582,1.0006,0.863,0.4469,0.3001,0.4398,0.4469,0.2964,-0.0,-0.0,-0.0,-0.0,-0.0,-0.0,-0.0,-0.0,-0.0,-0.0,-0.0,-0.0,-0.0,-0.0,-0.0,-0.0,-0.0,-0.0,-0.0,-0.0,-0.0,-0.0,0.0,0.7695,0.7695,0.7695,0.7802,0.8267,0.9332,0.9611,1.0233,1.1779,1.2346,1.2974,1.397,1.4392,1.4685,1.49,1.6466,1.8354,0.0,2.2963,2.5177,2.6952,2.8124,2.837,2.7639,2.8493,2.8124,2.6504,2.6998,2.6933,2.6519,2.5819,2.5274,2.483,2.4485,2.3877,2.3135,2.3135,2.3135,2.3135,2.3135,2.3135,2.3038,2.264,2.172,2.0732,2.1531,2.0763,1.9254,1.9048,1.8138,1.7163,1.7343,1.6293,1.5021,1.5198,1.4345,1.3464,1.3935,0.0,0.0,1.1881,1.0986,0.9962,0.9516,0.8819,0.8465,0.872,0.8862,0.9018,0.9273,0.9442,0.0,0.9824,0.9942,1.0222,1.0377,0.9528,0.9377,1.0571,0.841,0.7905,1.0475,0.8336,0.6044,0.4025,0.6327,0.7709,0.7738,0.287,-0.0,-0.0,-0.0,-0.0,-0.0,-0.0,-0.0,-0.0,-0.0,-0.0,-0.0,-0.0,-0.0,-0.0,-0.0,-0.0,-0.0,-0.0,-0.0,-0.0,-0.0,-0.0,-0.0,-0.0,-0.0,-0.0,0.0,0.0,0.7695,0.7695,0.8076,0.8538,0.8969,0.9422,0.9843,1.0301,1.1673,1.3003,1.3987,1.4111,1.426,1.4687,1.6115,1.7472,1.8521,2.0927,2.2945,2.4353,2.5378,2.6144,2.6516,2.6546,2.6579,2.6504,2.5421,2.5434,2.6431,2.421,2.381,2.4723,2.3637,2.3135,2.3135,2.3135,2.3135,2.3135,2.3135,2.3135,2.2911,2.1506,2.0594,2.007,2.007,1.8567,1.648,1.6071,1.5195,1.4381,1.4456,1.4116,0.0,1.4322,1.3679,0.0,0.0,0.0,1.1199,0.9793,0.9921,1.006,0.8973,0.8693,0.8743,0.8899,0.8933,0.8984,0.9133,0.9286,0.9375,0.9454,0.986,1.0108,1.0283,0.7498,0.6836,1.0336,1.0616,1.0596,0.0,1.0632,0.7694,0.0673,0.0269,0.0271,0.0274,0.0137,-0.0,-0.0,-0.0,-0.0,-0.0,-0.0,-0.0,-0.0,-0.0,-0.0,-0.0,-0.0,-0.0,-0.0,-0.0,-0.0,-0.0,-0.0,-0.0,-0.0,-0.0,-0.0,-0.0,-0.0,-0.0,-0.0,0.0,0.0,0.0,0.8164,0.8516,0.8936,0.932,0.9521,0.98,1.0244,1.1271,0.0,0.0,0.0,0.0,0.0,0.0,0.0,1.7929,1.9593,2.1307,2.2992,2.4247,2.4821,2.4525,2.5474,2.5464,2.422,2.4619,2.4584,2.422,2.3495,2.3299,2.3637,2.3299,2.3135,2.3135,2.3135,2.3135,2.3115,2.2832,2.2725,2.2533,2.1299,1.9644,1.7899,0.0,1.5666,1.4561,1.4331,1.3412,1.243,1.2833,0.0,0.0,1.2494,1.2457,1.2226,0.0,0.0,1.0373,1.0259,0.9766,0.9201,0.8934,0.8862,0.8849,0.8798,0.8869,0.8923,0.8869,0.9076,0.9268,0.9434,0.7884,0.7576,1.0157,0.9582,0.9365,1.0507,1.0671,0.0,0.0,0.0,0.0,0.0134,-0.0,-0.0,-0.0,-0.0,-0.0,-0.0,-0.0,-0.0,-0.0,-0.0,-0.0,-0.0,-0.0,-0.0,-0.0,-0.0,-0.0,-0.0,-0.0,-0.0,-0.0,-0.0,-0.0,-0.0,-0.0,-0.0,-0.0,-0.0,-0.0,-0.0,0.0,0.0,0.0,0.0,0.0,0.0,0.0,0.0,0.0,0.0,0.0,0.0,0.0,0.0,0.0,0.0,0.0,0.0,0.0,0.0,1.8913,2.0529,2.1466,2.1989,2.1971,2.2839,2.2929,2.2217,2.2935,2.3056,2.2654,2.2646,2.2773,2.292,2.292,2.2998,2.3125,2.2978,2.264,2.2225,2.1749,2.1258,2.0662,1.9178,1.7489,0.0,0.0,1.2441,1.1983,1.2087,1.1762,1.1356,0.0,0.0,1.2033,1.1317,1.1219,1.1303,0.0,1.0285,0.9486,0.9887,0.9392,0.8818,0.8916,0.8896,0.8828,0.873,0.8706,0.8686,0.8648,0.8811,0.9004,0.9281,0.7779,0.6735,0.6918,0.6907,0.685,0.6931,0.6816,0.0,0.0,0.0,0.0,-0.0,-0.0,-0.0,-0.0,-0.0,-0.0,-0.0,-0.0,-0.0,-0.0,-0.0,-0.0,-0.0,-0.0,-0.0,-0.0,-0.0,-0.0,-0.0,-0.0,-0.0,-0.0,-0.0,-0.0,-0.0,-0.0,-0.0,-0.0,-0.0,-0.1751,-0.408,0.0,0.0,0.0,0.0,0.0,0.0,0.0,0.0,0.0,0.0,0.0,0.0,0.0,0.0,0.0,0.0,0.0,0.0,0.0,0.0,0.0,1.7149,1.7302,1.7938,1.9117,1.8795,1.9222,2.0485,2.0482,2.0948,2.1749,2.1732,2.1973,2.2373,2.2288,2.2532,2.2892,2.2407,2.1684,2.0612,1.9925,1.8797,1.7418,1.5631,0.0,0.0,0.0,0.0,0.0,0.0,0.0,0.0,0.0,0.0,0.0,0.0,0.0,0.9891,0.9826,0.9191,0.854,0.8696,0.8842,0.8947,0.893,0.8815,0.8703,0.8679,0.8455,0.8303,0.0,0.0,0.8605,0.8871,0.9109,0.7166,0.0917,-0.0,-0.0,0.0,0.0,0.0,0.0,0.0,0.0,-0.0,0.0,-0.0,-0.0,-0.0,-0.0,-0.0,-0.0,-0.0,-0.0,-0.0,-0.0,-0.0,-0.0,-0.0,-0.0,-0.0,-0.0,-0.0,-0.0,-0.0,-0.0,-0.0,-0.0292,-0.0584,-0.0584,-0.0438,-0.0292,-0.0292,-0.496,-1.1292,0.0,0.0,0.0,0.0,0.0,0.0,0.0,0.0,0.0,0.0,0.0,0.0,0.0,0.0,0.0,0.0,0.0,0.0,0.0,0.0,0.0,0.0,0.0,1.6894,1.6933,1.8019,1.8676,0.0,1.9354,1.9778,1.9938,1.9997,2.0176,2.0498,1.9854,1.9761,2.0133,1.9281,1.8661,1.8195,0.0,1.7123,1.6463,0.0,0.0,0.0,0.0,0.0,0.0,0.0,0.0,0.0,0.0,0.0,1.0277,0.0,0.0,0.9421,0.9031,0.8887,0.8855,0.9005,0.9069,0.9042,0.8818,0.8737,0.8615,0.8279,0.8268,0.8237,0.0,0.0,0.0,0.8241,0.4972,0.0,0.0262,-0.0,0.0,0.0,0.0,-0.0,-0.0,-0.0,0.0,0.0,-0.0,-0.0,-0.0,-0.0,-0.0,-0.0,-0.0,-0.0,-0.0,-0.0,-0.0,-0.0,-0.0,-0.0,-0.0,-0.0,-0.0,-0.0,-0.0,-0.0,-0.0,-0.0,-0.3355,-0.8632,-0.8632,-0.6855,-0.4361,-0.4361,-0.5526,-0.7715,0.0,0.0,0.0,0.0,0.0,0.0,0.0,0.0,0.0,0.0,0.0,0.0,0.0,0.0,0.0,0.0,0.0,0.0,0.0,0.0,0.0,0.0,1.3646,1.4199,1.4347,1.5225,1.5782,0.0,0.0,0.0,1.7297,1.7574,1.7802,1.7893,1.7605,1.7696,1.7917,1.7216,0.0,0.0,0.0,0.0,0.0,0.0,0.0,0.0,0.0,0.0,0.0,0.0,0.0,1.1024,0.9752,0.9584,0.9688,0.9046,0.0,0.9109,0.9012,0.9015,0.9137,0.915,0.9106,0.8964,0.8601,0.8529,0.8411,0.7945,0.7911,0.0,0.0,0.0,0.0,0.0,0.0,0.0,-0.0,-0.0,-0.0,0.0,-0.0,0.0,-0.0,-0.0,-0.0,0.0,-0.0,-0.0,-0.0,-0.0,-0.0,-0.0,-0.0,-0.0,-0.0,-0.0,-0.0,-0.0,-0.0,-0.0,-0.0146,-0.3501,-0.3209,-0.0146,0.0,-0.3496,-0.4962,-0.3204,-0.5096,-0.92,-1.098,-1.0233,-0.83,-0.83,-0.8292,-0.8721,0.0,0.0,0.0,0.0,0.0,0.0,0.0,0.0,0.0,0.0,0.9676,0.0,0.0,0.0,0.0,0.0,0.0,0.0,0.0,0.0,0.0,0.0,1.1051,1.1197,1.1848,0.0,0.0,0.0,0.0,0.0,0.0,0.0,0.0,0.0,0.0,0.0,0.0,0.0,0.0,0.0,0.0,0.0,0.0,0.0,0.0,0.0,0.0,0.0,0.0,0.0,0.8756,1.1305,0.9507,0.9303,0.9642,0.8804,0.873,0.8981,0.9164,0.931,0.9374,0.9222,0.9072,0.8842,0.8457,0.8329,0.8072,0.7385,0.0,0.7661,0.7859,0.0,0.4838,0.0716,0.0,-0.0,-0.0,-0.0,-0.0,-0.0,-0.0,-0.0,-0.0,-0.0,-0.0,-0.0,-0.0,-0.0,-0.0,-0.0,-0.0,-0.0,-0.0,-0.0,-0.0,-0.0,-0.0,-0.0,-0.1021,-0.1605,-0.1751,-0.8036,-0.7449,-0.175,0.0,0.0,-1.1289,-0.8012,-0.6538,-0.6974,-1.0215,-1.1553,-1.1549,-1.1549,-1.1529,-1.165,0.0,0.0,0.0,0.0,0.0,0.0,0.0,0.0,0.0,0.0,0.9481,0.9907,0.0,0.0,0.0,0.0,0.0,0.0,0.0,0.0,0.0,0.0,1.0938,1.1121,0.0,0.0,0.0,0.0,0.0,0.0,0.0,0.0,0.0,0.0,0.0,0.0,0.0,0.0,0.0,0.0,0.0,0.0,0.0,0.0,0.0,0.0,0.0,0.0,0.0,0.0,0.8255,0.9904,0.8623,0.8484,0.8811,0.8777,0.8896,0.9025,0.9422,0.9551,0.9534,0.9381,0.9228,0.9051,0.867,0.8373,0.0,0.0,0.0,0.7752,0.7338,0.3937,0.0,0.01,0.0,0.0,0.0,0.0,-0.0,0.0,0.0,0.0,0.0,0.0,0.0,0.0,0.0,0.0,-0.0,-0.0,-0.0,-0.0,-0.0,-0.0,-0.0,-0.0,-0.0,-0.0146,-0.6572,-0.9518,-0.9515,-0.7722,-0.7865,-0.949,-0.6837,0.0,-1.1563,-1.0816,-1.0649,-1.0627,-1.1365,-1.165,-1.1633,-1.1633,-1.163,-1.1623,0.0,0.0,0.0,0.0,0.0,0.0,0.0,0.7784,0.7869,0.8317,0.9132,0.9518,0.9059,0.9172,0.9159,0.0,0.0,0.0,0.0,0.0,0.0,0.0,0.0,0.0,0.0,0.0,0.0,0.0,0.0,0.0,0.0,0.0,0.0,0.0,0.0,0.0,0.0,0.0,0.0,0.0,0.0,0.0,0.0,0.0,0.0,0.0,0.0,0.0,0.0,0.0,0.7339,0.8612,0.8282,0.8309,0.854,0.8849,0.8991,0.9133,0.9507,0.9663,0.9669,0.9456,0.9339,0.9064,0.8649,0.0,0.0,0.0,0.0,0.3749,0.3436,0.0,0.0,0.0,0.0,0.0,0.0,0.0,0.0,0.0,0.0,0.0,0.0,0.0,0.0,0.0,0.0,0.0,-0.0,-0.0,-0.1896,-0.584,-0.5986,-0.5103,-0.3056,-0.3055,-0.3055,-0.3056,-0.6847,-0.9641,-1.1573,-0.9616,-0.9908,-1.1556,-0.9602,0.0,-1.1533,-1.1667,-1.165,-1.1636,-1.1636,-1.163,-1.1619,-1.1619,-1.1619,-1.1619,0.0,0.0,0.0,0.0,0.0,0.0,0.0,0.8103,0.8156,0.8517,0.9011,0.9225,0.8931,0.8898,0.8878,0.0,0.0,0.0,0.0,0.0,0.0,0.0,0.0,0.0,0.0,0.0,0.0,0.0,0.0,0.0,0.0,0.0,0.0,0.0,0.0,0.0,0.0,0.0,0.0,0.0,0.0,0.0,0.0,0.0,0.0,0.0,0.0,0.0,0.0,0.0,0.66,0.739,0.7841,0.8191,0.8496,0.8801,0.8991,0.9181,0.9517,0.9673,0.9683,0.9586,0.8931,0.8363,0.8553,0.8317,0.0,0.0,0.2313,-0.0,-0.0,0.0,0.0,0.0,0.0,0.0,0.0,0.0,0.0,0.0,0.0,0.0,0.0,0.0,0.0,0.0,0.0,0.0,-0.2477,-0.248,-0.496,-1.0245,-1.1141,-1.0091,-0.7125,-0.698,-0.698,-0.698,-0.6976,-0.8587,-1.1549,-1.166,-1.166,-1.1539,-1.164,0.0,0.0,-1.1626,-1.1619,-1.1619,-1.1619,-1.1619,-1.1619,-1.1619,-1.1619,-1.1619,0.0,0.0,0.0,0.0,0.0,0.0,0.0,0.8192,0.853,0.903,0.9439,0.9526,0.9176,0.9143,0.9044,0.0,0.0,0.0,0.0,0.0,0.0,0.0,0.0,0.0,0.0,0.0,0.0,0.0,0.0,0.0,0.0,0.0,0.0,0.0,0.0,0.0,0.0,0.0,0.0,0.0,0.0,0.0,0.0,0.0,0.0,0.0,0.0,0.0,0.0,0.0,0.0,0.6461,0.6912,0.7624,0.8347,0.8645,0.0,0.0,0.949,0.9534,0.9566,0.9542,0.737,0.588,0.834,0.0,0.0,0.0,0.0281,-0.0,-0.0,-0.0,0.0,0.0,0.0,0.0,0.0,0.0,0.0,0.0,0.0,0.0,0.0,0.0,0.0,0.0,0.0,0.0,0.0,-1.0553,-0.9208,-0.6397,-0.9777,-1.1411,-1.1112,-1.1112,-1.1112,-1.1112,-1.1079,-1.1217,-1.1657,-1.1633,-1.1623,-1.1626,-1.1619,0.0,0.0,-1.1619,-1.1619,-1.1619,-1.1619,-1.1619,-1.1619,-1.1619,-1.1619,-1.1619,0.0,0.0,0.0,0.0,0.0,0.0,0.7749,0.8029,0.8317,0.8905,0.9392,0.9566,0.9216,0.9399,0.9319,0.8844,0.0,0.0,0.0,0.0,0.0,0.0,0.0,0.0,0.0,0.0,0.0,0.0,0.0,0.0,0.0,0.0,0.0,0.0,0.0,0.0,0.0,0.0,0.0,0.0,0.0,0.0,0.0,0.0,0.0,0.0,0.0,0.0,0.0,0.0,0.0,0.0,0.6311,0.684,0.0,0.0,0.833,0.8784,0.914,0.9452,0.9637,0.9695,0.8806,0.7072,0.4218,0.0,0.258,0.0445,-0.0,-0.0,-0.0,-0.0,-0.0,0.0,-0.0,-0.0,0.0,0.0,0.0,0.0,0.0,0.0,0.0,0.0,0.0,0.0,0.0,0.0,0.0,-1.1513,-1.096,-0.9307,-1.0784,-1.1667,-1.1653,-1.1653,-1.1653,-1.1653,-1.164,-1.1633,-1.1633,-1.1623,-1.1619,-1.1619,-1.1619,0.0,0.0,-1.1619,-1.1619,-1.1619,-1.1619,-1.1619,-1.1619,-1.1619,-1.1619,-1.1619,0.0,0.0,0.0,0.0,0.0,0.6794,0.7729,0.8003,0.827,0.8858,0.9372,0.9599,0.9392,0.9479,0.9385,0.8971,0.8858,0.0,0.0,0.0,0.0,0.0,0.0,0.0,0.0,0.0,0.0,0.0,0.6711,0.0,0.0,0.0,0.0,0.0,0.0,0.0,0.0,0.0,0.0,0.0,0.0,0.0,0.0,0.0,0.0,0.0,0.0,0.0,0.0,0.0,0.0,0.0,0.0,0.0,0.0,0.0,0.6767,0.7246,0.7542,0.8565,0.9624,0.9806,0.8376,0.5667,0.0,0.0,-0.0,-0.0,-0.0,-0.0,-0.0,-0.0,-0.0,-0.0,-0.1154,-0.2187,-0.2308,0.0,0.0,0.0,0.0,0.0,0.0,0.0,0.0,0.0,0.0,0.0,0.0,-1.1399,-1.1623,-1.1643,-1.1643,-1.1636,-1.1619,-1.1619,-1.1619,-1.1619,-1.1619,-1.1619,-1.1619,-1.1619,-1.1619,-1.1619,0.0,0.0,0.0,-1.1619,-1.1619,-1.1619,-1.1619,-1.1619,-1.1619,-1.1619,-1.1619,-1.1619,0.0,0.0,0.0,0.0,0.0,0.0,0.7702,0.8183,0.8577,0.9103,0.9499,0.9686,0.9679,0.9419,0.919,0.9183,0.8971,0.0,0.0,0.0,0.0,0.0,0.0,0.0,0.0,0.0,0.6102,0.7284,0.6321,0.637,0.0,0.0,0.0,0.0,0.0,0.0,0.0,0.0,0.0,0.0,0.0,0.0,0.0,0.0,0.0,0.0,0.0,0.0,0.0,0.0,0.0,0.0,0.0,0.0,0.0,0.0,0.3824,0.4153,0.4499,0.6728,0.9069,0.9663,0.495,0.01,0.0,-0.0,-0.0,-0.0,-0.0,-0.0,-0.0,-0.0,-0.0,-0.0,-0.3944,-0.721,-0.7818,0.0,0.0,0.0,0.0,0.0,0.0,0.0,0.0,0.0,0.0,0.0,0.0,-1.1392,-1.1463,-1.1613,-1.1619,-1.1619,-1.1619,-1.1619,-1.1619,-1.1619,-1.1619,-1.1619,-1.1619,-1.1619,-1.1619,0.0,0.0,0.0,0.0,-1.1619,-1.1619,-1.1619,-1.1619,-1.1619,-1.1619,-1.1619,-1.1619,-1.1619,0.0,0.0,0.0,0.0,0.0,0.0,0.0,0.7742,0.7969,0.8571,0.8905,0.9158,0.9359,0.8845,0.8533,0.8488,0.8687,0.0,0.0,0.0,0.0,0.0,0.0,0.0,0.0,0.6887,0.6473,0.6533,0.5868,0.5954,0.6759,0.6637,0.0,0.0,0.0,0.0,0.0,0.0,0.0,0.0,0.0,0.0,0.0,0.0,0.0,0.0,0.0,0.0,0.0,0.0,0.0,0.0,0.0,0.0,0.0,0.0,0.0,0.0,0.1417,0.2152,0.2902,0.31,0.1515,-0.0,-0.0,-0.0,-0.0,-0.0,-0.0,-0.0741,-0.3236,-0.3694,-0.3591,-0.3117,-0.4336,0.0,0.0,0.0,0.0,0.0,0.0,0.0,0.0,0.0,0.0,0.0,0.0,0.0,0.0,-1.1182,-1.1352,-1.1609,-1.1619,-1.1619,-1.1619,-1.1619,-1.1619,-1.1619,-1.1619,-1.1619,-1.1619,-1.1619,0.0,0.0,0.0,0.0,0.0,-1.1619,-1.1619,-1.1619,-1.1619,-1.1619,-1.1619,-1.1619,-1.1619,-1.1619,0.0,0.0,0.0,0.0,0.0,0.0,0.0,0.7439,0.7688,0.8143,0.8363,0.8631,0.8977,0.8323,0.8032,0.852,0.8469,0.0,0.0,0.0,0.0,0.0,0.0,0.0,0.7688,0.737,0.6859,0.6186,0.586,0.5881,0.6196,0.6135,0.5872,0.0,0.0,0.0,0.0,0.0,0.0,0.0,0.0,0.0,0.0,0.0,0.0,0.0,0.0,0.0,0.0,0.0,0.0,0.0,0.0,0.0,0.0,0.0,0.2071,0.0,0.0,-0.0,-0.0,-0.0,-0.0,-0.0,-0.0,-0.0,-0.0369,-0.177,-0.206,-0.2491,-0.4108,-0.5012,-0.5396,-0.504,-0.5295,0.0,0.0,0.0,0.0,0.0,0.0,0.0,0.0,0.0,0.0,0.0,0.0,0.0,0.0,0.0,-1.1192,-1.144,-1.1447,-1.1474,-1.1535,-1.1535,-1.1562,-1.1619,-1.1619,-1.1619,-1.1619,-1.1619,0.0,0.0,0.0,0.0,0.0,-1.1619,-1.1619,-1.1619,-1.1619,-1.1619,-1.1619,-1.1619,-1.1619,-1.1619,0.0,0.0,0.0,0.0,0.0,0.0,0.0,0.7228,0.7522,0.7856,0.7848,0.8116,0.8684,0.7889,0.7795,0.8967,0.0,0.0,0.0,0.0,0.0,0.0,0.0,0.0,0.77,0.7682,0.7172,0.6186,0.6164,0.6047,0.58,0.5677,0.5443,0.5125,0.4992,0.0,0.0,0.0,0.0,0.0,0.0,0.0,0.0,0.0,0.0,0.0,0.0,0.0,0.0,0.0,0.0,0.0,0.0,0.0,0.0,0.0,0.0,0.0,0.0,0.0,0.0,0.0,-0.0,-0.0,-0.0,-0.0229,0.0,-0.4725,-0.5372,-0.4867,-0.3242,-0.451,-0.5791,-0.5872,-0.6606,0.0,0.0,0.0,0.0,0.0,0.0,0.0,0.0,0.0,0.0,0.0,0.0,0.0,0.0,0.0,-1.0992,-1.1128,-1.1131,-1.1209,-1.1372,-1.1375,-1.1447,-1.1589,-1.1589,-1.1592,-1.1603,-1.1603,0.0,0.0,0.0,0.0,0.0,-1.1619,-1.1619,-1.1619,-1.1619,-1.1619,-1.1619,-1.1619,-1.1619,-1.1619,0.0,0.0,0.0,0.0,0.0,0.0,0.0,0.0,0.0,0.0,0.7575,0.7715,0.8096,0.7616,0.744,0.0,0.0,0.0,0.0,0.0,0.0,0.0,0.0,0.0,0.7711,0.7373,0.6873,0.6186,0.6007,0.5835,0.5803,0.5888,0.564,0.5128,0.5094,0.485,0.0,0.0,0.0,0.0,0.0,0.0,0.0,0.0,0.0,0.0,0.0,0.0,0.0,0.0,0.0,0.0,0.0,0.0,0.0,0.0,-0.0,-0.0,-0.0,0.0,-0.0,-0.0,-0.0,-0.0,0.0,-0.2152,-0.4367,-0.5219,0.0,0.0,-0.5463,-0.5623,-0.6036,0.0,0.0,0.0,0.0,0.0,0.0,0.0,0.0,0.0,0.0,0.0,0.0,0.0,0.0,0.0,0.0,0.0,-1.0789,-1.0822,-1.0826,-1.0951,-1.1212,-1.1216,-1.1236,-1.127,-1.127,-1.1331,-1.1447,-1.1447,0.0,0.0,0.0,0.0,-1.1619,-1.1619,-1.1619,-1.1619,-1.1619,-1.1619,-1.1619,-1.1619,-1.1619,-1.1619,0.0,0.0,0.0,0.0,0.0,0.0,0.0,0.0,0.0,0.0,0.0,0.7381,0.7682,0.7049,0.0,0.0,0.0,0.0,0.0,0.0,0.0,0.0,0.0,0.8459,0.7697,0.757,0.7088,0.6314,0.6226,0.6165,0.6013,0.6098,0.5854,0.5328,0.505,0.4755,0.0,0.0,0.0,0.0,0.0,0.0,0.0,0.0,0.0,0.0,0.0,0.1736,0.0,0.2412,0.1367,-0.0,0.0,0.0,0.0,0.0,-0.0,-0.0,-0.0,-0.0,-0.0,-0.0,-0.0,-0.0443,-0.2117,0.0,0.0,0.0,0.0,0.0,0.0,0.0,0.0,0.0,0.0,0.0,0.0,0.0,0.0,0.0,0.0,0.0,0.0,0.0,0.0,0.0,0.0,0.0,0.0,0.0,-1.0721,-1.0721,-1.0721,-1.0833,-1.1063,-1.1063,-1.1097,-1.1162,-1.1162,-1.1206,-1.1287,-1.1287,-1.1331,0.0,0.0,0.0,-1.1409,-1.1409,-1.1409,-1.1409,-1.1409,-1.1409,-1.1409,-1.1409,-1.1409,-1.1409,0.0,0.0,0.0,0.0,0.0,0.0,0.0,0.0,0.0,0.0,0.0,0.0,0.0,0.0,0.0,0.0,0.0,0.0,0.0,0.0,0.0,0.0,0.8745,0.8438,0.7576,0.7661,0.7254,0.6229,0.6463,0.6467,0.6227,0.6271,0.603,0.5532,0.4975,0.4626,0.4519,0.0,0.0,0.0,0.0,0.0,0.0,0.0,0.0,0.0,0.0,0.0,0.0,-0.0,-0.0,-0.0,-0.0,0.0,0.0,0.0,0.0,0.0,-0.0,-0.0,-0.0,-0.0,-0.0,-0.0832,-0.3849,0.0,0.0,0.0,0.0,0.0,0.0,0.0,0.0,0.0,0.0,0.0,0.0,0.0,0.0,0.0,0.0,0.0,0.0,0.0,0.0,0.0,0.0,0.0,0.0,0.0,0.0,-1.0721,-1.0721,-1.0782,-1.0911,-1.0914,-1.0975,-1.1094,-1.1094,-1.1107,-1.1131,-1.1131,-1.1141,0.0,0.0,0.0,-1.1162,-1.1162,-1.1162,-1.1162,-1.1162,-1.1162,-1.1162,-1.1162,-1.1162,-1.1162,0.0,0.0,0.0,0.0,0.0,0.0,0.0,0.0,0.0,0.0,0.0,0.0,0.0,0.0,0.0,0.0,0.0,0.0,0.0,0.0,0.0,0.7858,0.8455,0.8257,0.7076,0.7058,0.6452,0.529,0.5707,0.594,0.6071,0.6322,0.6067,0.5382,0.5036,0.4728,0.4519,0.4519,0.0,0.0,0.0,0.0,0.0,0.0,0.0,0.0,0.0,0.0,0.0,-0.0,-0.0,-0.0,-0.0,0.0,0.0,0.0,0.0,0.0,-0.0,-0.0,-0.0,-0.0,-0.0,-0.015,-0.0736,0.0,0.0,0.0,0.0,0.0,0.0,0.0,0.0,0.0,0.0,0.0,0.0,0.0,0.0,0.0,0.0,0.0,0.0,0.0,0.0,0.0,0.0,0.0,0.0,0.0,0.0,-1.0721,-1.0721,-1.0731,-1.0755,-1.0755,-1.0765,-1.0789,-1.0789,-1.0856,-1.0982,-1.0982,-1.105,0.0,0.0,-1.1162,-1.1162,-1.1162,-1.1162,-1.1162,-1.1162,-1.1162,-1.1162,-1.1162,-1.1162,-1.1162,0.0,0.0,0.0,0.0,0.0,0.0,0.0,0.0,0.0,0.0,0.0,0.0,0.0,0.0,0.0,0.0,0.0,0.0,0.0,0.0,0.6818,0.7225,0.7578,0.7307,0.6328,0.6428,0.6209,0.5455,0.5864,0.6166,0.639,0.6281,0.5922,0.5415,0.505,0.4748,0.4519,0.4519,0.4473,0.0,0.0,0.0,0.0,0.0,0.0,0.0,0.0,0.0,0.0,0.0,-0.0,-0.0,-0.0,0.0,0.0,0.0,0.0,0.0,-0.0,-0.0,-0.0,-0.0,-0.2153,-0.3979,-0.2504,0.0,0.0,0.0,0.0,0.0,0.0,0.0,0.0,0.0,0.0,0.0,0.0,0.0,0.0,0.0,0.0,0.0,0.0,0.0,0.0,0.0,0.0,0.0,0.0,0.0,0.0,0.0,-1.0721,-1.0721,-1.0721,-1.0721,-1.0721,-1.0721,-1.0721,-1.0758,-1.0826,-1.0826,-1.086,-1.0924,0.0,-1.0924,-1.0924,-1.0924,-1.0924,-1.0924,-1.0924,-1.0924,-1.0924,-1.0924,-1.0924,-1.0924,0.0,0.0,0.0,0.0,0.0,0.0,0.0,0.0,0.0,0.0,0.0,0.0,0.0,0.0,0.0,0.0,0.0,0.0,0.0,0.6158,0.6274,0.6538,0.644,0.6266,0.5935,0.6106,0.609,0.5855,0.6186,0.6413,0.6688,0.624,0.5789,0.5415,0.505,0.4748,0.4519,0.4519,0.4477,0.0,0.0,0.0,0.0,0.0,0.0,0.0,0.0,0.0,0.0,0.0,0.0,0.0,0.0,0.0,0.0,-0.0,-0.0,-0.0,-0.0,-0.0,-0.0,-0.0,0.0,-0.5956,-0.5078,-0.6202,0.0,0.0,0.0,0.0,0.0,0.0,0.0,0.0,0.0,0.0,0.0,0.0,0.0,0.0,0.0,0.0,0.0,0.0,0.0,0.0,0.0,0.0,0.0,0.0,0.0,0.0,-1.0721,-1.0721,-1.0721,-1.0721,-1.0721,-1.0721,-1.0721,-1.0721,-1.0721,-1.0721,-1.0721,-1.0721,-1.0721,-1.0721,-1.0721,-1.0721,-1.0721,-1.0721,-1.0721,-1.0721,-1.0721,-1.0721,-1.0721,-1.0721,0.0,0.0,0.0,0.0,0.0,0.0,0.0,0.0,0.0,0.0,0.0,0.0,0.0,0.0,0.0,0.0,0.0,0.0,0.0,0.4904,0.4963,0.555,0.5126,0.5348,0.6363,0.623,0.6155,0.596,0.616,0.6413,0.6688,0.624,0.5789,0.5415,0.505,0.4748,0.4519,0.4519,0.4477,0.4383,0.285,0.0,0.0,0.0,0.0,0.0,0.0,0.0,0.0,0.0,0.0,0.0,0.0,0.0,-0.0,-0.0,-0.0,-0.0,-0.0,-0.0,-0.0,-0.0,-0.031,0.0,-0.6637,-0.807,0.0,-0.7478,0.0,0.0,0.0,0.0,0.0,0.0,0.0,0.0,0.0,0.0,0.0,0.0,0.0,0.0,0.0,0.0,0.0,0.0,0.0,0.0,0.0,0.0,0.0,0.0,0.0,-1.0721,-1.0721,-1.0721,-1.0721,-1.0721,-1.0721,-1.0721,-1.0721,-1.0721,-1.0721,-1.0721,-1.0721,-1.0721,-1.0721,-1.0721,-1.0721,-1.0721,-1.0721,-1.0721,-1.0721,-1.0721,-1.0721,-1.0721,0.0,0.0,0.0,0.0,0.0,0.0,0.0,0.0,0.0,0.0,0.0,0.0,0.0,0.0,0.0,0.0,0.0,0.0,0.0,0.4405,0.4519,0.4974,0.48,0.4995,0.5559,0.574,0.5911,0.618,0.6349,0.6403,0.6417,0.5966,0.5562,0.5206,0.4908,0.4714,0.4599,0.4511,0.4478,0.4454,0.3851,0.0,0.0,0.0,0.0,0.0,0.0,0.0,0.0,0.0,-0.0,-0.0,-0.0,-0.0,-0.0,-0.0,-0.0,-0.0,-0.0,-0.0,-0.0,-0.0,-0.0,0.0,0.0,-0.7127,-0.8313,-0.8062,-0.8038,0.0,0.0,0.0,0.0,0.0,0.0,0.0,0.0,0.0,0.0,0.0,0.0,0.0,0.0,0.0,0.0,0.0,0.0,0.0,0.0,0.0,0.0,0.0,0.0,-1.0721,-1.0721,-1.0721,-1.0721,-1.0721,-1.0721,-1.0721,-1.0721,-1.0721,-1.0721,-1.0721,-1.0721,-1.0721,-1.0721,-1.0721,-1.0721,-1.0721,-1.0721,-1.0721,-1.0721,-1.0721,-1.0721,-1.0721,0.0,0.0,0.0,0.0,0.0,0.0,0.0,0.0,0.0,0.0,0.0,0.0,0.0,0.0,0.0,0.0,0.0,0.0,0.41,0.4136,0.4291,0.4519,0.4632,0.4805,0.5033,0.5386,0.5732,0.6242,0.6329,0.6332,0.6176,0.5728,0.543,0.526,0.4914,0.4789,0.4823,0.4633,0.4562,0.4478,0.4512,0.2695,0.0,0.0,0.0,0.0,0.0,0.0,0.0,0.0,-0.0,-0.0,0.0,-0.0,-0.0,-0.0,-0.0,-0.0,-0.0,-0.0,-0.0427,-0.2094,0.0,0.0,-0.5288,-0.7227,-0.8473,-0.834,0.0,0.0,0.0,0.0,0.0,0.0,0.0,0.0,0.0,0.0,0.0,0.0,0.0,0.0,0.0,0.0,0.0,0.0,0.0,0.0,0.0,0.0,0.0,0.0,-1.0721,-1.0721,-1.0721,-1.0721,-1.0721,-1.0721,-1.0721,-1.0721,-1.0721,-1.0721,-1.0721,-1.0721,-1.0721,-1.0721,-1.0721,-1.0721,-1.0721,-1.0721,-1.0721,-1.0721,-1.0721,-1.0721,-1.0721,-1.0721,0.0,0.0,0.0,0.0,0.0,0.0,0.0,0.0,0.0,0.0,0.0,0.0,0.0,0.0,0.0,0.0,0.0,0.0,0.3851,0.4073,0.4174,0.4177,0.4519,0.4746,0.4916,0.5241,0.5624,0.6033,0.6232,0.6173,0.6013,0.5566,0.5437,0.5562,0.5118,0.5003,0.5061,0.4893,0.4663,0.4487,0.4459,0.2695,-0.0,0.0,0.0,0.0,0.0,0.0,0.0,0.0,-0.0,-0.0,-0.0,0.0,-0.0,-0.0,-0.0,-0.0,-0.0,-0.0,-0.1352,0.0,0.0,0.0,-0.8555,-0.8784,-0.8798,-0.8543,0.0,0.0,0.0,0.0,0.0,0.0,0.0,0.0,0.0,0.0,0.0,0.0,0.0,0.0,0.0,0.0,0.0,0.0,0.0,0.0,0.0,0.0,0.0,0.0,-1.0721,-1.0721,-1.0721,-1.0721,-1.0721,-1.0721,-1.0721,-1.0721,-1.0721,-1.0721,-1.0721,-1.0721,-1.0721,-1.0721,-1.0721,-1.0721,-1.0721,-1.0721,-1.0721,-1.0721,-1.0721,-1.0721,-1.0721,-1.0721,0.0,0.0,0.0,0.0,0.0,0.0,0.0,0.0,0.0,0.0,0.0,0.0,0.0,0.0,0.0,0.0,0.0,0.0,0.3847,0.3983,0.4079,0.4216,0.4405,0.4574,0.4632,0.491,0.5264,0.5698,0.5759,0.5654,0.5393,0.5159,0.5016,0.4958,0.4931,0.4891,0.4833,0.349,0.3829,0.4914,0.2333,0.0784,-0.0,0.0,0.0,0.0,0.0,0.0,0.0,0.0,0.0,0.0,-0.0,0.0,-0.0,-0.0,-0.0,-0.0,-0.0,-0.2458,0.0,0.0,0.0,0.0,0.0,-0.8549,0.0,0.0,0.0,0.0,0.0,0.0,0.0,0.0,0.0,0.0,0.0,0.0,0.0,0.0,0.0,0.0,0.0,0.0,0.0,0.0,0.0,0.0,0.0,0.0,0.0,0.0,-1.0721,-1.0721,-1.0721,-1.0721,-1.0721,-1.0721,-1.0721,-1.0721,-1.0721,-1.0721,-1.0721,-1.0721,-1.0721,-1.0721,-1.0721,-1.0721,-1.0721,-1.0721,-1.0721,-1.0721,-1.0721,-1.0721,-1.0721,-1.0721,0.0,0.0,0.0,0.0,0.0,0.0,0.0,0.0,0.0,0.0,0.6979,0.6937,0.0,0.0,0.0,0.0,0.0,0.0,0.3755,0.3899,0.404,0.4097,0.4346,0.4546,0.4551,0.4796,0.5023,0.5233,0.5348,0.5284,0.5047,0.5016,0.4986,0.4962,0.506,0.5123,0.5102,0.3942,0.3399,0.3062,0.0852,-0.0,-0.0,0.0,0.0,0.0,0.0,0.0,0.0,0.0,0.0,0.0,-0.0,0.0,0.0,-0.0,-0.0,-0.0395,-0.228,0.0,0.0,0.0,0.0,0.0,0.0,0.0,0.0,0.0,0.0,0.0,0.0,0.0,0.0,0.0,0.0,0.0,0.0,0.0,0.0,0.0,0.0,0.0,0.0,0.0,0.0,0.0,0.0,0.0,0.0,0.0,0.0,0.0,-1.0544,-1.0544,-1.0544,-1.0544,-1.0575,-1.0629,-1.0629,-1.066,-1.0721,-1.0721,-1.0721,-1.0721,-1.0721,-1.0721,-1.0721,-1.0721,-1.0721,-1.0721,-1.0721,-1.0721,-1.0721,-1.0721,-1.0721,-1.0721,0.0,0.0,0.0,0.0,0.0,0.0,0.0,0.0,0.0,0.0,0.6979,0.681,0.0,0.0,0.0,0.0,0.0,0.0,0.0,0.3854,0.3992,0.3984,0.4346,0.4584,0.4667,0.4806,0.4809,0.467,0.4965,0.5033,0.488,0.5036,0.5179,0.5367,0.5408,0.5418,0.5453,0.5446,0.3329,-0.0,-0.0,-0.0,-0.0,-0.0,0.0,0.0,0.0,0.0,0.0,0.0,0.0,0.0,-0.0,-0.0,-0.0,-0.0,-0.0257,-0.1508,0.0,0.0,0.0,0.0,0.0,0.0,0.0,0.0,0.0,0.0,0.0,0.0,0.0,0.0,0.0,0.0,0.0,0.0,0.0,0.0,0.0,0.0,0.0,0.0,0.0,0.0,0.0,0.0,0.0,0.0,0.0,0.0,0.0,0.0,-1.028,-1.028,-1.028,-1.028,-1.0344,0.0,-1.0473,-1.0551,-1.07,-1.0714,-1.0721,-1.0721,-1.0721,-1.0721,-1.0721,-1.0721,-1.0721,-1.0721,-1.0721,-1.0721,-1.0721,-1.0721,-1.0721,-1.0721,0.0,0.0,0.0,0.0,0.0,0.0,0.0,0.0,0.0,0.0,0.0,0.0,0.0,0.0,0.0,0.0,0.0,0.0,0.0,0.3854,0.3992,0.3984,0.4346,0.4532,0.4567,0.4545,0.4545,0.4567,0.4816,0.4826,0.4565,0.484,0.4918,0.4847,0.522,0.4496,0.3084,0.469,0.3282,-0.0,-0.0,-0.0,-0.0,-0.0,-0.0,0.0,0.0,0.0,0.0,0.0,0.0,0.0,-0.0,-0.0,-0.0,-0.0,-0.236,-0.5396,0.0,0.0,0.0,0.0,0.0,0.0,0.0,0.0,0.0,0.0,0.0,0.0,0.0,0.0,0.0,0.0,0.0,0.0,0.0,0.0,0.0,0.0,0.0,0.0,0.0,0.0,0.0,0.0,0.0,0.0,0.0,0.0,0.0,-1.028,-1.028,-1.028,-1.028,-1.028,-1.0297,0.0,-1.0327,-1.0402,-1.0544,-1.0666,-1.0721,-1.0721,-1.0721,-1.0721,-1.0721,-1.0721,-1.0721,-1.0721,-1.0721,-1.0721,-1.0721,-1.0721,-1.0721,-1.0721,0.0,0.0,0.0,0.0,0.0,0.0,0.0,0.0,0.0,0.0,0.0,0.0,0.0,0.0,0.0,0.0,0.0,0.0,0.0,0.3806,0.3941,0.4097,0.4353,0.4525,0.4525,0.4477,0.4477,0.4525,0.4629,0.4663,0.4575,0.4809,0.4914,0.4918,0.5276,0.4784,0.3675,0.3087,0.1735,-0.0,-0.0,-0.0,-0.0,-0.0,-0.0,-0.0,-0.0,0.0,0.0,0.0,0.0,0.0,0.0,0.0,-0.0,-0.0,-0.3057,-0.6597,0.0,0.0,0.0,0.0,0.0,0.0,0.0,0.0,0.0,0.0,0.0,0.0,0.0,0.0,0.0,0.0,0.0,0.0,0.0,0.0,0.0,0.0,0.0,0.0,0.0,0.0,0.0,0.0,0.0,0.0,0.0,-1.0063,-1.0063,-1.0063,-1.0063,-1.0063,-1.0063,-1.0063,-1.0097,-1.0171,-1.0171,-1.0249,-1.0399,-1.0619,-1.0721,-1.0721,-1.0721,-1.0721,-1.0721,-1.0721,-1.0721,-1.0721,-1.0721,-1.0721,-1.0721,-1.0721,-1.0721,-1.0721,0.0,0.0,0.0,0.0,0.0,0.0,0.0,0.0,0.0,0.0,0.0,0.0,0.0,0.0,0.0,0.0,0.0,0.0,0.0,0.3722,0.3904,0.4216,0.4418,0.4356,0.4103,0.4113,0.4113,0.4103,0.4385,0.4568,0.4693,0.4827,0.4941,0.5088,0.5272,0.5398,0.5153,0.1544,-0.0,-0.0,-0.0,-0.0,-0.0,-0.0,-0.0,-0.0,-0.0,-0.0,-0.0,-0.0,0.0,0.0,0.0,0.0,-0.0057,-0.0299,-0.3001,-0.6063,0.0,0.0,0.0,0.0,0.0,0.0,0.0,0.0,0.0,0.0,0.0,0.0,0.0,0.0,0.0,0.0,0.0,0.0,0.0,0.0,0.0,0.0,0.0,0.0,0.0,0.0,0.0,0.0,0.0,0.0,-0.9822,-0.9822,-0.9822,-0.9822,-0.9822,-0.9822,-0.9822,-0.9822,-0.9883,-1.0012,-1.0036,-1.0117,-1.0249,-1.0521,-1.0656,-1.068,-1.0707,-1.0721,-1.0721,-1.0721,-1.0721,-1.0721,-1.0721,-1.0721,-1.0721,-1.0721,-1.0721,-1.0721,0.0,0.0,0.0,0.0,0.0,0.0,0.0,0.0,0.0,0.0,0.6556,0.5964,0.5382,0.476,0.0,0.0,0.0,0.0,0.3581,0.0,0.0,0.4421,0.4494,0.3868,0.2562,0.2507,0.2507,0.2507,0.3859,0.4528,0.4501,0.4734,0.483,0.491,0.5244,0.5373,0.5146,0.1565,-0.0,-0.0,-0.0,-0.0,-0.0,-0.0,-0.0,-0.0,-0.0,-0.0,-0.0,-0.0,-0.0,0.0,0.0,0.0,0.0,0.0,0.0,0.0,0.0,0.0,0.0,0.0,0.0,0.0,0.0,0.0,0.0,0.0,0.0,0.0,0.0,0.0,0.0,0.0,0.0,0.0,0.0,0.0,0.0,0.0,0.0,0.0,0.0,0.0,0.0,0.0,0.0,0.0,-0.9822,-0.9822,-0.9822,-0.9822,-0.9822,-0.9822,-0.9822,-0.9822,-0.9832,-0.9852,-0.9985,-1.0059,-1.0086,-1.0259,-1.0405,-1.0531,-1.0663,-1.0721,-1.0721,-1.0721,-1.0721,-1.0721,-1.0721,-1.0721,-1.0721,-1.0721,-1.0721,-1.0721,0.0,0.0,0.0,0.0,0.0,0.0,0.0,0.0,0.0,0.0,0.0,0.5086,0.4817,0.4295,0.0,0.0,0.0,0.0,0.2647,0.2604,0.0,0.3,0.3958,0.4174,0.3525,0.1807,0.1354,0.2176,0.377,0.4488,0.4486,0.4562,0.4832,0.5179,0.5302,0.4266,0.2269,0.0697,-0.0,-0.0,-0.0,-0.0,-0.0,-0.0,-0.0,-0.0,-0.0,-0.0,-0.0,-0.0,-0.0,0.0,0.0,0.0,0.0,0.0,0.0,0.0,0.0,0.0,0.0,0.0,0.0,0.0,0.0,0.0,0.0,0.0,0.0,0.0,0.0,0.0,0.0,0.0,0.0,0.0,0.0,0.0,0.0,0.0,0.0,0.0,0.0,0.0,0.0,0.0,0.0,-0.9574,-0.9574,-0.9656,-0.9703,-0.9703,-0.9778,-0.9822,-0.9822,-1.066,-1.1137,-1.114,-1.1214,-1.0767,-0.9927,-1.008,-1.0232,-1.0382,-1.0527,-1.0592,-1.0599,-1.0683,-1.0721,-1.0721,-1.0721,-1.0721,-1.0721,-1.0721,-1.0721,-1.0721,0.0,0.0,0.0,0.0,0.0,0.0,0.0,0.0,0.0,0.0,0.0,0.0,0.463,0.0,0.0,0.0,0.0,0.0,0.144,0.0,0.0,0.0,0.2648,0.3335,0.3357,0.1147,0.0555,0.1657,0.2808,0.3744,0.4528,0.4495,0.4356,0.4006,0.4004,0.2557,-0.0,-0.0,-0.0,-0.0,-0.0,-0.0,-0.0,-0.0,-0.0,-0.0,-0.0,-0.0,-0.0,0.0,0.0,0.0,0.0,0.0,0.0,0.0,0.0,0.0,0.0,0.0,0.0,0.0,0.0,0.0,0.0,0.0,0.0,0.0,0.0,0.0,0.0,0.0,0.0,0.0,0.0,0.0,0.0,0.0,0.0,0.0,0.0,0.0,0.0,0.0,0.0,0.0,0.0,-0.9381,-0.9381,-0.949,-0.9551,-0.9551,-0.9652,-0.9827,-1.018,-1.1881,-1.2499,-1.2145,-1.2192,-1.1378,-0.9825,-0.9937,-1.0053,-1.0175,-1.0358,-1.046,-1.05,-1.0616,-1.0683,-1.0721,-1.0721,-1.0721,-1.0721,-1.0721,-1.0721,-1.0721,0.0,0.0,0.0,0.0,0.0,0.0,0.0,0.0,0.0,0.0,0.0,0.0,0.5232,0.4252,0.3581,0.3581,0.3609,0.0,0.0,0.0,0.0,0.0,0.0,0.0,0.024,0.0096,0.0048,0.0096,0.0199,0.1687,0.4473,0.4522,0.2964,0.0242,0.03,0.0209,-0.0,-0.0,-0.0,-0.0,-0.0,-0.0,-0.0,-0.0,-0.0,-0.0,-0.0,-0.0,0.0,0.0,0.0,0.0,0.0,0.0,0.0,0.0,0.0,0.0,0.0,0.0,0.0,0.0,0.0,0.0,0.0,0.0,0.0,0.0,0.0,0.0,0.0,0.0,0.0,0.0,0.0,0.0,0.0,0.0,0.0,0.0,0.0,0.0,0.0,0.0,0.0,0.0,0.0,-0.9381,-0.9381,-0.9388,-0.9395,-0.9395,-0.9401,-1.0091,-1.1454,-1.324,-1.3343,-1.1841,-1.2132,-1.1378,-0.9822,-0.9829,-0.9836,-0.9863,-1.0161,-1.0368,-1.049,-1.05,-1.0588,-1.0721,-1.0721,-1.0721,-1.0721,-1.0721,-1.0721,-1.0721,0.0,0.0,0.0,0.0,0.0,0.0,0.0,0.0,0.0,0.0,0.0,0.0,0.0,0.2669,0.2768,0.3519,0.2207,0.0,0.0,0.0,0.0,0.0,0.0,0.0,-0.0,-0.0,-0.0,-0.0,-0.0,0.0573,0.1612,0.1631,0.1052,-0.0,-0.0,-0.0,-0.0,-0.0,-0.0,-0.0,-0.0,-0.0,-0.0,-0.0,-0.0,-0.0,0.0,0.0,0.0,0.0,0.0,0.0,-0.4488,-0.4333,-0.4085,-0.3636,-0.396,0.0,0.0,0.0,0.0,0.0,0.0,0.0,0.0,0.0,0.0,0.0,0.0,0.0,0.0,0.0,0.0,0.0,0.0,0.0,0.0,0.0,0.0,0.0,0.0,0.0,0.0,0.0,0.0,0.0,0.0,0.0,-0.91,-0.9184,-0.9685,-1.058,-1.0685,-1.1999,-1.438,-1.5145,-1.4619,-1.314,-1.4387,-1.309,-0.969,-1.0853,-1.0781,-0.9825,-0.9937,-1.007,-1.0222,-1.0412,-1.0524,-1.0582,-1.068,-1.0721,-1.0721,-1.0721,-1.0721,-1.0721,0.0,0.0,0.0,0.0,0.0,0.0,0.0,0.0,0.3004,0.3551,0.0,0.0,0.0,0.0,0.152,0.2301,0.0945,-0.0,-0.0,-0.0,0.0,0.0,0.0,0.0,-0.0,-0.0,-0.0,-0.0,-0.0,-0.0,-0.0,-0.0,-0.0,-0.0,-0.0,-0.0,-0.0,-0.0,-0.0,-0.0,-0.0,-0.0,-0.0,-0.0,-0.0,-0.0232,0.0,0.0,0.0,0.0,0.0,0.0,-0.4539,-0.4455,-0.4177,-0.4277,-0.4395,0.0,-0.4823,0.0,0.0,0.0,0.0,0.0,0.0,0.0,0.0,0.0,0.0,0.0,0.0,0.0,0.0,0.0,0.0,0.0,0.0,0.0,0.0,0.0,0.0,0.0,0.0,0.0,0.0,0.0,0.0,0.0,-0.894,-0.9468,-1.0512,-1.1939,-1.2511,-1.3811,-1.5824,-1.6477,-1.5964,-1.45,-1.5756,-1.4531,-1.1126,-1.2298,-1.2393,-1.1378,-1.0899,-1.0393,-1.0066,-1.0263,-1.0402,-1.0504,-1.0605,-1.0673,-1.0721,-1.0721,-1.0721,-1.0721,0.0,0.0,0.0,0.0,0.0,0.0,0.0,0.0,0.2211,0.3356,0.0,0.0,0.0,0.0,0.0,-0.0,-0.0,-0.0,-0.0,-0.0,-0.0,-0.0,-0.0,0.0,-0.0,-0.0,-0.0,-0.0,-0.0,-0.0,-0.0,-0.0,-0.0,-0.0,-0.0,-0.0,-0.0,-0.0,-0.0,-0.0,0.0,-0.0,-0.0,0.0,0.0,0.0,-0.5371,-0.7022,0.0,-0.4123,0.0,0.0,0.0,-0.4834,-0.4519,-0.4512,-0.4519,-0.4522,0.0,0.0,0.0,0.0,0.0,0.0,0.0,0.0,0.0,0.0,0.0,0.0,0.0,0.0,0.0,0.0,0.0,0.0,0.0,0.0,0.0,0.0,0.0,0.0,0.0,0.0,0.0,0.0,0.0,-0.8937,-0.8937,-1.0347,-1.1864,-1.3372,-1.477,-1.5417,-1.5417,-1.7111,-1.7252,-1.5695,-1.6063,-1.5512,-1.423,-1.4245,-1.4377,-1.447,-1.2928,-1.1476,-1.0167,-1.0046,-1.0219,-1.0606,-1.0616,-1.0582,-1.0714,-1.0717,-1.0721,-1.0721,0.0,0.0,0.0,0.0,0.0,0.2571,0.335,0.2895,0.2119,0.0,0.0,0.0,0.009,-0.0,-0.0,-0.0,-0.0,-0.0,-0.0,-0.0,-0.0,-0.0,-0.0,-0.0,-0.0,-0.0,-0.0,-0.0,-0.0,-0.0,-0.0,-0.0,-0.0,-0.0,-0.0,-0.0,-0.0,-0.0,0.0,-0.0,-0.0,-0.0,0.0,0.0,0.0,0.0,0.0,-0.5956,-0.7343,0.0,-0.5714,-0.5228,0.0,-0.468,-0.4498,-0.4338,-0.446,-0.4602,-0.4546,0.0,0.0,0.0,0.0,0.0,0.0,0.0,0.0,0.0,0.0,0.0,0.0,0.0,0.0,0.0,0.0,0.0,0.0,0.0,0.0,0.0,0.0,0.0,0.0,0.0,0.0,0.0,-0.894,-0.9372,-1.0457,-1.2832,-1.4449,-1.477,-1.628,-1.7041,-1.7041,-1.745,-1.6945,-1.5534,-1.6798,-1.619,-1.3795,-1.5145,-1.5219,-1.4234,-1.405,-1.3684,-1.3263,-1.22,-1.1821,-1.1932,-1.2187,-1.1545,-1.0568,-1.068,-1.0721,-1.0721,0.0,0.0,0.1028,0.1034,0.1034,0.1305,0.1984,0.1803,0.1214,0.0,0.0,0.0,-0.0,-0.0,-0.0,-0.0,-0.0,-0.0,-0.0,-0.0,-0.0,-0.0,-0.0,-0.0,-0.0,-0.0,-0.0,-0.0,-0.0,-0.0509,-0.149,-0.0474,-0.0,-0.0,-0.0,-0.0,-0.0,-0.0,0.0,0.0,-0.2424,0.0,0.0,-0.5144,-0.6662,0.0,0.0,0.0,-0.7615,-0.7362,-0.6791,0.0,0.0,0.0,-0.4785,-0.4511,-0.4643,-0.4843,-0.4694,-0.4718,-0.4816,0.0,0.0,0.0,0.0,0.0,0.0,0.0,0.0,0.0,0.0,0.0,0.0,0.0,0.0,0.0,0.0,0.0,0.0,0.0,0.0,0.0,0.0,0.0,0.0,-1.0345,-1.0345,-1.1014,-1.2588,-1.4393,-1.563,-1.628,-1.7147,-1.7582,-1.7582,-1.7582,-1.7147,-1.628,-1.7329,-1.6927,-1.5389,-1.6579,-1.672,-1.612,-1.5571,-1.5814,-1.6514,-1.4975,-1.3999,-1.3378,-1.2939,-1.2722,-1.2556,-1.1961,-1.2281,-1.2935,0.0,0.0,-0.0,-0.0,-0.0,-0.0092,-0.0462,-0.0231,-0.0139,0.0,-0.0623,-0.0539,-0.0336,-0.0263,-0.0224,-0.0224,-0.0224,-0.0212,-0.0181,-0.0179,-0.0135,-0.0,-0.014,-0.0286,-0.0382,-0.0297,-0.0248,-0.0191,-0.0191,-0.1216,-0.3158,-0.1259,-0.0237,-0.0,-0.0286,-0.0447,-0.0476,-0.0363,0.0,-0.0852,-0.5969,-0.8,0.0,0.0,-0.573,0.0,-0.7654,-0.7763,-0.7732,-0.7458,-0.6922,0.0,0.0,0.0,0.0,0.0,-0.4975,-0.5172,-0.5009,-0.4992,-0.507,0.0,0.0,0.0,0.0,-0.5925,0.0,0.0,0.0,0.0,0.0,0.0,0.0,0.0,0.0,0.0,0.0,0.0,0.0,0.0,0.0,0.0,0.0,0.0,-1.2402,-1.2402,-1.2505,-1.3307,-1.4879,-1.5317,-1.6187,-1.7482,-1.7515,-1.7535,-1.7535,-1.7569,-1.7582,-1.7582,-1.7582,-1.7729,-1.7996,-1.8029,-1.833,-1.8712,-1.7369,-1.7771,-1.9203,-1.7793,-1.638,-1.4902,-1.3646,-1.4089,-1.5291,-1.3989,-1.4586,-1.5883,0.0,-0.0,-0.0,-0.0,-0.0,-0.0808,-0.3253,-0.1565,-0.1025,-0.3968,-0.4346,-0.3785,-0.2318,-0.1946,-0.1797,-0.1797,-0.1797,-0.1691,-0.1485,-0.1428,-0.1028,-0.0045,-0.1116,-0.2142,-0.2873,-0.2177,-0.1679,-0.1473,-0.1473,-0.121,-0.0716,-0.2219,-0.1865,-0.0091,-0.2025,-0.3148,-0.3559,0.0,0.0,-0.3209,-0.6608,0.0,-0.7955,-0.7245,-0.7372,-0.787,-0.7807,-0.7879,-0.7916,0.0,-0.7217,-0.6715,0.0,0.0,0.0,-0.5362,-0.544,-0.5613,-0.5348,-0.545,-0.5555,0.0,0.0,0.0,0.0,-0.5318,0.0,0.0,0.0,0.0,0.0,0.0,0.0,0.0,0.0,0.0,0.0,0.0,0.0,0.0,0.0,0.0,0.0,0.0,-1.2402,-1.2402,-1.3421,-1.4259,-1.4616,-1.5808,-1.6563,-1.6874,-1.7108,-1.7235,-1.7235,-1.7468,-1.7582,-1.7582,-1.7582,-1.7615,-1.7682,-1.7929,-1.811,-1.8243,-1.8367,-1.8604,-1.9025,-1.8912,-1.7954,-1.6589,-1.6359,-1.5746,-1.4971,-1.4998,-1.5268,-1.5548,-0.1439,-0.1124,-0.1108,-0.1097,-0.1073,-0.1628,-0.31,-0.2747,-0.2742,-0.4067,-0.4897,-0.5064,-0.4146,-0.3766,-0.348,-0.3375,-0.3357,-0.3309,-0.3168,-0.2846,-0.2443,-0.1814,-0.1933,-0.2642,-0.4,-0.3419,-0.3057,-0.2893,-0.2744,-0.2375,-0.183,-0.2417,-0.229,-0.152,-0.2479,-0.3392,-0.4237,0.0,-0.3974,-0.4702,-0.6741,0.0,-0.7845,-0.7848,-0.7938,-0.7943,-0.7929,-0.7974,-0.7984,-0.7611,-0.7336,0.0,0.0,-0.6417,-0.6376,0.0,-0.5905,-0.6054,-0.5681,-0.5688,0.0,-0.5616,0.0,0.0,0.0,0.0,0.0,0.0,0.0,0.0,0.0,0.0,0.0,0.0,0.0,0.0,0.0,0.0,0.0,0.0,0.0,0.0,0.0,0.0,-1.4068,-1.4068,-1.4892,-1.537,-1.537,-1.6214,-1.6707,-1.6707,-1.6847,-1.6927,-1.6927,-1.7221,-1.7368,-1.7368,-1.7515,-1.7582,-1.7589,-1.7742,-1.7903,-1.807,-1.8517,-1.8791,-1.8945,-1.9245,-1.8887,-1.8077,-1.75,-1.7235,-1.7293,-1.693,-1.7365,-1.8166,-0.266,-0.2568,-0.256,-0.252,-0.2579,-0.2637,-0.2579,-0.3688,-0.4266,-0.3607,-0.4629,-0.5495,-0.5498,-0.5223,-0.4985,-0.4745,-0.4681,-0.4585,-0.4581,-0.4065,-0.3752,-0.3672,-0.2774,-0.2942,-0.4363,-0.4133,-0.4017,-0.3912,-0.3738,-0.3614,-0.3578,-0.2658,-0.2574,-0.3183,-0.2788,-0.3249,-0.4241,0.0,0.0,-0.5672,0.0,-0.7129,-0.7465,-0.7763,-0.7913,-0.7923,-0.8007,-0.8038,-0.798,-0.7587,0.0,-0.7356,-0.6783,-0.681,0.0,0.0,0.0,0.0,0.0,0.0,0.0,0.0,0.0,-0.6012,0.0,0.0,0.0,-0.7834,0.0,0.0,0.0,0.0,0.0,0.0,0.0,0.0,0.0,0.0,0.0,0.0,0.0,0.0,0.0,0.0,-1.5645,-1.5818,-1.5892,-1.6012,-1.6179,-1.6406,-1.654,-1.654,-1.6593,-1.662,-1.662,-1.6914,-1.7094,-1.7154,-1.7388,-1.7528,-1.7582,-1.7582,-1.7716,-1.7976,-1.827,-1.8571,-1.8865,-1.9158,-1.9319,-1.9269,-1.8052,-1.8495,-1.9654,-1.8809,-1.9366,-2.0561,-0.3677,-0.3629,-0.3818,-0.3812,-0.4015,-0.4184,-0.4015,-0.4294,-0.4663,-0.5094,-0.5437,-0.5701,-0.5771,-0.5634,-0.5575,-0.5617,-0.5265,-0.4967,-0.4842,-0.4566,-0.426,-0.388,-0.3926,-0.3932,-0.3989,-0.4111,-0.3999,-0.3636,-0.3711,-0.3737,-0.3585,-0.3625,-0.3758,-0.3907,-0.4148,0.0,0.0,0.0,-0.5349,0.0,-0.6527,-0.653,0.0,-0.7214,-0.7448,-0.7499,-0.7896,-0.8038,-0.8011,0.0,-0.7763,-0.7678,0.0,-0.7275,-0.7431,0.0,0.0,0.0,0.0,0.0,0.0,0.0,-0.7152,0.0,0.0,0.0,-0.8128,-0.7777,0.0,0.0,0.0,0.0,0.0,0.0,0.0,0.0,0.0,0.0,0.0,0.0,0.0,0.0,0.0,0.0,-1.499,-1.5772,-1.5137,-1.5057,-1.5838,-1.5912,-1.5925,-1.5925,-1.6186,-1.6326,-1.6326,-1.6607,-1.6887,-1.7148,-1.7181,-1.7335,-1.7582,-1.7582,-1.7602,-1.7655,-1.7963,-1.8263,-1.8564,-1.8851,-1.9132,-1.9366,-1.9166,-1.9296,-1.9452,-1.9536,-1.9774,-1.998,-0.467,-0.4498,-0.4396,-0.4412,-0.4337,-0.4271,-0.4239,-0.4746,-0.5196,-0.5411,-0.5748,-0.6033,-0.5957,-0.5808,0.0,-0.5881,0.0,-0.5306,0.0,0.0,-0.456,-0.4361,-0.417,-0.4138,-0.424,-0.4141,-0.4022,-0.3836,-0.3805,-0.3721,-0.3585,-0.3777,-0.3993,-0.431,-0.4525,0.0,-0.5342,0.0,0.0,0.0,0.0,0.0,0.0,-0.7285,-0.7756,-0.7784,-0.7974,-0.8038,-0.8004,0.0,-0.7689,0.0,0.0,0.0,0.0,0.0,0.0,0.0,0.0,0.0,0.0,0.0,0.0,0.0,-0.6508,0.0,-0.8225,0.0,0.0,0.0,0.0,0.0,0.0,0.0,0.0,0.0,0.0,0.0,0.0,0.0,0.0,0.0,0.0,0.0,0.0,0.0,0.0,-1.483,-1.5538,-1.5738,-1.5832,-1.5832,-1.5952,-1.6012,-1.6012,-1.6306,-1.66,-1.6894,-1.7068,-1.7301,-1.7582,-1.7582,-1.7582,-1.7602,-1.7909,-1.8116,-1.827,-1.8731,-1.8998,-1.9125,-1.9299,-1.9366,-1.9406,-1.9693,-1.98,-1.9887,-0.5902,-0.5271,-0.467,-0.4455,-0.4311,-0.4213,-0.4314,-0.4955,-0.5428,-0.5454,-0.5855,-0.618,-0.618,-0.608,0.0,0.0,-0.6544,-0.636,0.0,0.0,-0.5276,-0.4911,-0.4453,0.0,-0.4577,-0.4273,-0.41,-0.4019,-0.391,-0.3802,-0.3704,-0.3849,-0.409,-0.4416,-0.4687,-0.5101,-0.5583,0.0,0.0,-0.5928,-0.6098,-0.6268,-0.6519,-0.7489,-0.7933,-0.8038,-0.8038,-0.8038,-0.8001,-0.7743,-0.7658,0.0,-0.798,0.0,0.0,0.0,0.0,0.0,-0.7915,0.0,0.0,0.0,0.0,0.0,0.0,0.0,0.0,0.0,0.0,0.0,0.0,0.0,0.0,-1.0772,0.0,0.0,0.0,0.0,0.0,0.0,0.0,0.0,0.0,0.0,0.0,0.0,0.0,0.0,-1.5351,-1.5591,-1.5745,-1.5825,-1.5832,-1.5832,-1.5832,-1.6046,-1.6299,-1.6587,-1.6887,-1.7181,-1.7468,-1.7549,-1.7582,-1.7595,-1.7822,-1.7969,-1.809,-1.8597,-1.8851,-1.8951,-1.9252,-1.9366,-1.9392,-1.9606,-1.9679,-1.9753,-0.737,-0.5958,-0.4517,-0.395,-0.405,-0.4311,-0.4649,-0.4829,-0.5095,-0.5523,0.0,0.0,0.0,0.0,0.0,0.0,0.0,-0.8296,-0.8294,0.0,-0.6664,-0.5446,-0.5074,-0.4826,0.0,-0.4528,-0.4307,-0.4019,-0.4016,-0.4012,-0.4009,-0.411,-0.4187,-0.4227,-0.48,-0.5294,-0.5606,-0.5884,-0.6505,-0.7295,-0.7153,-0.7448,-0.7926,0.0,-0.7662,-0.8038,-0.8038,0.0,0.0,-0.7858,-0.7804,0.0,0.0,0.0,0.0,0.0,0.0,0.0,0.0,0.0,0.0,-0.7264,0.0,0.0,0.0,0.0,-1.0676,0.0,0.0,0.0,0.0,-1.2024,-1.1643,-1.1069,-1.1002,0.0,0.0,0.0,0.0,0.0,0.0,0.0,0.0,0.0,0.0,0.0,0.0,0.0,-1.5304,-1.5404,-1.5538,-1.5818,-1.5832,-1.5832,-1.5832,-1.5838,-1.5992,-1.6293,-1.658,-1.6874,-1.7174,-1.7455,-1.7582,-1.7582,-1.7595,-1.7769,-1.807,-1.8377,-1.8671,-1.8951,-1.9252,-1.9366,-1.9366,-1.9379,-1.9379,-1.9426,0.0,-0.6734,-0.6224,0.0,0.0,-0.5872,-0.6559,-0.6445,-0.6776,0.0,0.0,0.0,0.0,0.0,-1.0027,0.0,0.0,-0.8968,-0.8865,-0.7493,0.0,0.0,0.0,-0.5237,0.0,-0.4843,-0.4514,-0.4311,-0.4114,-0.4019,-0.4022,-0.4123,-0.4244,-0.4416,0.0,-0.5504,0.0,0.0,0.0,0.0,0.0,-0.8782,-0.9197,0.0,0.0,-0.8038,-0.8038,-0.8038,0.0,-0.798,-0.8474,-0.9252,-0.969,-1.0337,-1.1042,-1.1566,-1.1757,0.0,0.0,0.0,-1.2104,-1.0219,0.0,0.0,0.0,0.0,0.0,0.0,0.0,0.0,0.0,-1.2225,-1.1964,-1.1376,-1.1276,-1.0942,0.0,0.0,0.0,0.0,0.0,0.0,0.0,0.0,0.0,0.0,0.0,0.0,0.0,-1.5184,-1.5438,-1.5538,-1.5732,-1.5832,-1.5832,-1.5832,-1.5979,-1.6273,-1.6373,-1.6673,-1.7154,-1.7248,-1.7402,-1.7582,-1.7582,-1.7642,-1.7762,-1.807,-1.837,-1.8664,-1.8958,-1.9192,-1.9366,-1.9366,-1.9366,-1.9412,-0.7603,0.0,0.0,0.0,0.0,0.0,0.0,0.0,0.0,0.0,-0.9632,0.0,-1.126,0.0,-1.16,0.0,-1.1384,-1.0506,-0.9799,-0.9005,0.0,-0.7322,-0.7158,0.0,0.0,-0.6218,-0.5567,-0.5335,-0.4677,-0.4284,-0.4178,-0.4277,-0.448,-0.4871,0.0,0.0,0.0,0.0,-0.7494,0.0,0.0,-1.0314,0.0,0.0,-0.8821,-0.8038,0.0,-0.8726,-0.8825,-0.9213,-0.9917,-1.0605,-1.122,-1.1833,-1.2472,-1.3014,-1.3159,-1.3064,-1.2585,-1.3171,0.0,-1.1754,-1.1494,0.0,-1.0162,0.0,0.0,0.0,0.0,0.0,0.0,0.0,-1.2432,-1.1837,-1.139,-1.0708,0.0,0.0,0.0,0.0,0.0,0.0,0.0,0.0,-1.1369,-1.2432,0.0,0.0,0.0,0.0,-1.5291,-1.5391,-1.5678,-1.5832,-1.5832,-1.5832,-1.5925,-1.6119,-1.6219,-1.6526,-1.6994,-1.7101,-1.7308,-1.7582,-1.7582,-1.7582,-1.7609,-1.7916,-1.8223,-1.8517,-1.8811,-1.9105,-1.9366,-1.9366,-1.9366,-1.9412,0.0,0.0,0.0,0.0,-0.7114,0.0,0.0,0.0,-0.9663,0.0,-1.0538,-1.1148,-1.1657,-1.1752,-1.2368,-1.3826,-1.3613,0.0,-1.1222,-1.2135,0.0,0.0,-0.9682,-1.0204,-1.0194,-0.8475,-0.7373,-0.6984,-0.5663,-0.4876,-0.4636,-0.4629,-0.4948,-0.5576,-0.5516,0.0,-0.7068,-0.8561,-0.9361,-0.9855,-1.1384,-1.2042,-1.2042,-1.2042,-1.0386,-0.8333,-0.9608,-1.0096,-1.0293,-1.1463,-1.1945,-1.2237,-1.3488,-1.3974,-1.4262,-1.5439,-1.5832,-1.5534,-1.4364,-1.3974,-1.3607,-1.1977,0.0,0.0,0.0,0.0,-1.2987,0.0,0.0,0.0,0.0,0.0,-1.3039,-1.2385,-1.1303,-1.0147,-0.9031,0.0,0.0,0.0,0.0,0.0,0.0,0.0,-1.0595,-1.1744,-1.1824,0.0,0.0,0.0,-1.5044,-1.5364,-1.5671,-1.5832,-1.5832,-1.5832,-1.5832,-1.5832,-1.6119,-1.6406,-1.6714,-1.7001,-1.7295,-1.7582,-1.7582,-1.7582,-1.7602,-1.7903,-1.821,-1.8517,-1.8791,-1.9092,-1.9366,-1.9366,-1.9366,-1.9406,-0.9348,-0.9408,-0.9235,0.0,-0.8804,-0.9168,0.0,0.0,0.0,0.0,-1.2768,-1.3093,-1.4551,-1.4665,-1.4874,-1.5298,-1.4349,0.0,0.0,0.0,0.0,-1.0948,-1.084,-1.0695,-1.0526,-0.9442,0.0,-0.8134,0.0,0.0,-0.6435,-0.617,-0.615,-0.6341,0.0,0.0,-0.8274,-0.9389,-1.0992,-1.2824,-1.3245,-1.3392,0.0,0.0,-1.2328,-1.0974,-1.1263,-1.1365,-1.1463,-1.175,-1.2522,-1.3494,-1.3776,-1.4561,-1.5343,-1.573,-1.5832,-1.573,-1.5432,-1.5337,-1.519,-1.4784,-1.4172,-1.3709,0.0,0.0,0.0,0.0,0.0,0.0,0.0,0.0,0.0,-1.2184,-1.0995,-1.0127,0.0,0.0,0.0,0.0,0.0,0.0,0.0,0.0,-1.0421,-1.1162,0.0,0.0,0.0,0.0,0.0,-1.505,-1.5565,-1.5832,-1.5832,-1.5832,-1.5832,-1.5832,-1.5905,-1.6213,-1.6707,-1.678,-1.7094,-1.7582,-1.7582,-1.7582,-1.7589,-1.7669,-1.8016,-1.8497,-1.8577,-1.8918,-1.9366,-1.9366,-1.9366,-1.9379,-1.0415,0.0,0.0,-1.1063,0.0,0.0,-1.1682,0.0,0.0,-1.3857,-1.4028,0.0,-1.5305,-1.5622,-1.5832,-1.5832,-1.5184,0.0,0.0,0.0,0.0,-1.2488,-1.2744,-1.2868,-1.2726,-1.1289,0.0,-0.9721,0.0,0.0,-0.7084,-0.6748,-0.675,0.0,0.0,-0.8011,0.0,-1.0622,-1.2572,-1.459,-1.4702,0.0,0.0,-1.4752,-1.4268,-1.3596,-1.3596,-1.3204,-1.2818,-1.3403,-1.4076,-1.4752,-1.4752,-1.5242,-1.5832,-1.5832,-1.5832,-1.5832,-1.5832,-1.5832,-1.5832,-1.5832,-1.5458,-1.5023,-1.477,-1.4816,-1.4823,0.0,0.0,0.0,0.0,0.0,0.0,-1.1563,-1.0742,-1.0221,0.0,0.0,0.0,0.0,0.0,0.0,0.0,0.0,0.0,0.0,0.0,0.0,0.0,0.0,0.0,-1.475,-1.5337,-1.5698,-1.5832,-1.5832,-1.5832,-1.5832,-1.5832,-1.6139,-1.6707,-1.6707,-1.7027,-1.7582,-1.7582,-1.7582,-1.7582,-1.7582,-1.7943,-1.8517,-1.8771,-1.9078,-1.9366,-1.9366,-1.9366,-1.9366,0.0,0.0,0.0,0.0,0.0,0.0,0.0,-1.2959,0.0,-1.4126,0.0,-1.5073,-1.5057,-1.5514,-1.5832,-1.5832,0.0,-1.523,-1.3799,-1.5065,-1.5217,-1.3787,-1.4844,-1.5438,-1.5398,-1.3404,0.0,0.0,0.0,-0.7995,-0.7367,-0.7023,0.0,0.0,0.0,0.0,0.0,-1.2081,-1.395,0.0,-1.5732,-1.5832,-1.5832,-1.5832,-1.5832,-1.5832,-1.5832,-1.5051,-1.4364,-1.5439,-1.5832,-1.5832,-1.5832,-1.5832,-1.5832,-1.5832,-1.5832,-1.5832,-1.5832,-1.5832,-1.5832,-1.5832,-1.5832,-1.5698,-1.519,-1.5277,-1.5384,-1.513,-1.5077,-1.5211,0.0,0.0,0.0,0.0,0.0,0.0,0.0,0.0,0.0,0.0,0.0,0.0,0.0,0.0,0.0,0.0,0.0,0.0,0.0,0.0,0.0,-1.4502,-1.509,0.0,-1.5825,0.0,-1.5832,-1.5832,-1.5832,-1.6139,-1.6707,-1.6707,-1.7027,-1.7582,-1.7582,-1.7582,-1.7582,-1.7582,-1.7943,-1.8544,-1.9098,-1.9332,-1.9366,-1.9366,-1.9366,-1.9366,0.0,0.0,0.0,0.0,0.0,-1.4055,-1.3786,-1.3848,-1.4164,-1.4747,-1.5343,-1.5651,-1.5625,-1.573,-1.5832,-1.5832,-1.5832,0.0,0.0,0.0,0.0,-1.5389,-1.5631,-1.5645,-1.5398,-1.4309,-1.3198,0.0,-1.0788,-0.9669,-0.8837,-0.8555,0.0,0.0,0.0,0.0,-1.2576,-1.3691,0.0,-1.5758,-1.5805,-1.5832,-1.5832,-1.5832,-1.5832,-1.5832,-1.5832,-1.5635,-1.5534,-1.573,-1.5832,-1.5832,-1.5832,-1.5832,-1.5832,-1.5832,-1.5832,-1.5832,-1.5832,-1.5832,-1.5832,-1.5832,-1.5832,-1.5805,-1.5698,-1.5718,-1.5738,-1.5691,-1.5678,-1.5565,-1.5184,0.0,0.0,0.0,0.0,0.0,0.0,0.0,0.0,0.0,0.0,0.0,0.0,0.0,0.0,0.0,0.0,0.0,0.0,0.0,0.0,0.0,-1.509,0.0,0.0,0.0,-1.5832,-1.5832,-1.5832,-1.6139,-1.6707,-1.6707,-1.7027,-1.7582,-1.7582,-1.7582,-1.7582,-1.7582,-1.7943,-1.8524,-1.8865,-1.9152,-1.9366,-1.9366,-1.9366,-1.9366,0.0,0.0,0.0,0.0,0.0,0.0,0.0,-1.6157,0.0,-1.5063,-1.5198,-1.5364,-1.5389,-1.5622,-1.5832,-1.5832,-1.5832,-1.5832,-1.5832,-1.5832,-1.5832,-1.5832,-1.5832,0.0,-1.5625,-1.491,-1.4035,-1.2999,-1.1663,-1.0555,-0.9679,-0.9085,-0.8884,-0.9078,0.0,-1.1563,0.0,0.0,0.0,-1.5618,-1.5765,-1.5832,-1.5832,-1.5832,-1.5832,-1.5832,-1.5832,-1.5832,-1.5832,-1.5832,-1.5832,-1.5832,-1.5832,-1.5832,-1.5832,-1.5832,-1.5832,-1.5832,-1.5832,-1.5832,-1.5832,-1.5832,-1.5832,-1.5832,-1.5832,-1.5832,-1.5832,-1.5832,-1.5832,-1.5651,-1.507,-1.4369,0.0,0.0,0.0,0.0,0.0,0.0,0.0,0.0,0.0,0.0,0.0,0.0,0.0,0.0,0.0,0.0,0.0,0.0,0.0,0.0,0.0,0.0,0.0,0.0,0.0,-1.5832,-1.5832,-1.6139,-1.6707,-1.6707,-1.7027,-1.7582,-1.7582,-1.7582,-1.7595,-1.7756,-1.809,-1.8517,-1.8811,-1.9105,-1.9366,-1.9366,-1.9366,-1.9366,0.0,-1.8004,0.0,0.0,-1.8401,0.0,-1.8585,-1.8279,-1.7463,-1.5812,-1.5305,-1.519,-1.519,-1.5514,-1.5832,-1.5832,-1.5832,-1.5832,-1.5832,-1.5832,-1.5832,-1.5832,-1.5832,-1.5832,-1.5832,-1.5317,-1.4589,0.0,-1.2345,-1.1189,-1.0194,-0.9439,-0.9272,0.0,0.0,0.0,0.0,0.0,-1.5301,-1.5876,-1.5826,-1.5832,-1.5832,-1.6109,-1.6197,-1.6197,-1.6473,-1.656,-1.656,-1.656,-1.6197,-1.5832,-1.5832,-1.5832,-1.5832,-1.5832,-1.5832,-1.5832,-1.5832,-1.5832,-1.5832,-1.5832,-1.5832,-1.5832,-1.5832,-1.5832,-1.5832,-1.5832,-1.5832,-1.5651,-1.507,-1.4683,0.0,0.0,0.0,0.0,0.0,0.0,0.0,0.0,0.0,0.0,0.0,0.0,0.0,0.0,0.0,0.0,-1.0584,-1.1269,0.0,0.0,0.0,-1.5055,-1.6271,0.0,-1.592,0.0,-1.592,-1.6139,-1.6707,-1.6707,-1.7027,-1.7582,-1.7582,-1.7582,-1.7602,-1.7849,-1.8163,-1.851,-1.8744,-1.9052,-1.9366,-1.9366,-1.9366,-1.9366,0.0,0.0,0.0,0.0,0.0,0.0,0.0,-1.9054,-1.8873,-1.7581,-1.6476,-1.5724,-1.5724,-1.573,-1.5832,-1.5832,-1.5832,-1.5832,-1.5832,-1.5832,-1.5832,-1.5832,-1.5832,-1.5832,-1.5832,-1.5518,-1.4796,0.0,0.0,0.0,0.0,-1.016,-1.0294,0.0,0.0,0.0,0.0,-1.6339,-1.6937,-1.7368,-1.6285,-1.5832,-1.592,-1.7037,-1.7498,-1.7684,-1.8772,-1.9131,-1.9131,-1.9131,-1.7662,-1.5832,-1.5832,-1.5832,-1.5832,-1.5832,-1.5832,-1.5832,-1.5832,-1.5832,-1.5832,-1.5832,-1.5832,-1.5832,-1.5832,-1.5832,-1.5832,-1.5832,-1.5832,-1.5651,-1.507,-1.5351,-1.5657,0.0,0.0,0.0,0.0,0.0,0.0,0.0,0.0,0.0,0.0,0.0,0.0,0.0,0.0,0.0,-1.0564,-1.0889,-1.2158,-1.4457,0.0,-1.5625,-1.7993,-1.6558,-1.6386,-1.7505,-1.6386,-1.6139,-1.6707,-1.6707,-1.7027,-1.7582,-1.7582,-1.7582,-1.7589,-1.7615,-1.7969,-1.8497,-1.8517,-1.8871,-1.9366,-1.9366,-1.9366,-1.9366,0.0,0.0,0.0,0.0,0.0,0.0,0.0,-2.0878,-2.0386,-1.994,-1.8789,-1.8029,-1.8029,-1.7987,-1.7742,-1.6973,-1.6922,-1.6574,-1.5825,-1.648,-1.6943,-1.6943,-1.7669,-1.8033,-1.8033,-1.7186,-1.6674,0.0,0.0,0.0,0.0,0.0,0.0,0.0,0.0,-1.6709,-1.7588,-1.8001,-1.8409,-1.8772,-1.8218,-1.8033,-1.8126,-1.8588,-1.8772,-1.8864,-1.9314,-1.9497,-1.9497,-1.9497,-1.8403,-1.6943,-1.6943,-1.6386,-1.5832,-1.5832,-1.5832,-1.5832,-1.5832,-1.5832,-1.5832,-1.5832,-1.5832,-1.5832,-1.5832,-1.5832,-1.5832,-1.5832,-1.6386,-1.7145,-1.7599,-1.6987,-1.7026,0.0,0.0,0.0,0.0,0.0,0.0,0.0,0.0,0.0,0.0,0.0,0.0,0.0,0.0,0.0,-1.1616,-1.2233,-1.333,-1.5052,0.0,-1.7126,-1.8156,-1.8053,-1.7948,-1.7684,-1.7225,-1.6896,-1.6707,-1.7477,-1.8218,-1.8708,-1.7996,-1.7582,-1.7582,-1.7582,-1.7943,-1.849,-1.849,-1.8851,-1.9366,-1.9366,-1.9366,-1.9366,-2.207,0.0,-2.178,0.0,-2.2456,-2.2456,-2.3028,-2.2349,-2.1876,-2.1876,-2.1098,-2.0316,-1.9564,-1.9491,-1.9175,-1.8333,-1.8203,-1.7863,-1.6936,-1.777,-1.8234,-1.8234,-1.9047,0.0,-1.9497,-1.8688,-1.8395,-1.8746,-1.6293,0.0,0.0,0.0,0.0,0.0,-1.7931,-1.8832,-1.929,-1.9579,-1.9886,-2.0034,-1.967,-1.9497,-1.9588,-1.9852,-2.0034,-2.0124,-2.0404,-2.0584,-2.0584,-2.0584,-1.9853,-1.8923,-1.835,-1.7584,-1.6929,-1.6929,-1.6929,-1.6929,-1.6929,-1.6929,-1.6929,-1.6929,-1.6929,-1.6929,-1.6929,-1.6929,-1.6929,-1.6929,-1.7584,-1.8503,-1.9314,-1.8449,-1.8201,-2.0183,0.0,0.0,0.0,0.0,0.0,0.0,0.0,-1.5517,0.0,0.0,0.0,0.0,0.0,0.0,-1.2901,-1.3385,0.0,0.0,0.0,0.0,0.0,-1.9401,-1.9039,-1.8234,-1.8234,-1.7926,-1.7299,-1.8452,-1.9194,-1.9524,-1.8199,-1.7582,-1.7582,-1.7582,-1.8251,-1.9126,-1.8705,-1.9176,-2.0033,-1.9591,-1.97,-2.004,-2.2427,-2.2456,-2.2581,-2.3028,-2.3047,-2.3047,-2.3135,-2.3047,-2.3047,-2.3047,-2.3047,-2.2127,-1.9773,-1.9502,-1.9488,-1.9497,-1.9497,-1.9488,-1.9497,-1.9488,-1.9497,0.0,0.0,-1.9497,-1.9497,-1.9497,-1.9315,-1.9137,0.0,0.0,-1.7632,0.0,-1.7437,-1.7747,-1.9585,-2.0583,-2.0907,-2.1121,-2.1293,-2.1203,-1.9943,-1.9497,-1.967,-2.0845,-2.1293,-2.1382,-2.2589,-2.3047,-2.3047,-2.3047,-2.2598,-2.1668,-1.9978,-1.9497,-1.9497,-1.9497,-1.9497,-1.9497,-1.9497,-1.9497,-1.9497,-1.9497,-1.9497,-1.9497,-1.9497,-1.9497,-1.9497,-1.9497,-1.9497,-1.9497,-1.9497,-1.9488,-1.9249,-1.8712,0.0,0.0,0.0,0.0,0.0,0.0,-1.5641,-1.4292,-1.5923,0.0,0.0,0.0,0.0,0.0,0.0,0.0,0.0,-1.7787,-1.7963,0.0,-2.1792,-2.0298,-1.9488,-1.9497,-1.9497,-1.9223,-1.8671,-1.9321,-1.962,-1.9524,-1.8199,-1.7582,-1.7582,-1.7582,-1.8765,-2.0498,-1.9023,-1.9717,-2.1365,-1.9924,-2.0371,-2.1586,-2.2911,-2.2921,-2.2931,-2.3047,-2.3135,-2.3135,-2.3135,-2.3135,-2.3135,-2.3135,-2.3135,-2.2804,-2.2011,-2.1947,-2.1587,0.0,-2.0755,-2.0395,0.0,-2.0305,-2.0755,-2.0755,-2.1498,-2.1952,-2.1952,-2.1123,-2.106,-2.1854,0.0,0.0,0.0,-1.9644,-2.0207,-2.0969,-2.1855,-2.2265,-2.2417,-2.2837,-2.3009,-2.2948,-2.285,-2.287,-2.287,-2.3246,-2.3429,-2.3438,-2.3822,-2.4014,-2.4014,-2.4014,-2.3818,-2.3528,-2.3009,-2.1733,-2.0412,-2.0412,-2.0412,-2.0362,-2.0019,-1.9944,-1.9794,-1.9554,-1.9497,-1.9497,-1.9497,-1.9497,-1.9761,-2.0576,-2.0755,-2.0935,-2.1765,-2.1302,-2.0944,-2.1609,-2.0848,0.0,0.0,0.0,0.0,0.0,0.0,-1.6429,0.0,-1.6061,0.0,0.0,0.0,0.0,0.0,0.0,0.0,0.0,-2.0141,0.0,-2.1885,-2.191,-2.1578,-2.0755,-2.0755,-2.0976,-2.1379,-2.1121,-2.155,-2.2366,-2.0939,-2.0428,-2.0428,-2.0428,-2.105,-2.2001,-2.1579,-2.2104,-2.3039,-2.2597,-2.271,-2.3151,-2.374,-2.3388,-2.3135,-2.3135,-2.3135,-2.3135,-2.3135,-2.3135,-2.3135,-2.3135,-2.3135,-2.3135,-2.3135,-2.3135,0.0,-2.2031,-2.1943,-2.1731,-2.1157,-2.1807,-2.2329,-2.2479,-2.3147,-2.3623,-2.3623,0.0,0.0,-2.3379,-2.1511,-2.0815,-2.1276,-2.1624,-2.2102,-2.2764,-2.3193,-2.3379,-2.3408,-2.3848,-2.4023,-2.4043,-2.4307,-2.4414,-2.4414,-2.4414,-2.4414,-2.4414,-2.4414,-2.4414,-2.4414,-2.4414,-2.4521,-2.4658,-2.4658,-2.3701,-2.2592,-2.2289,-2.2105,-2.2052,-2.1804,-2.1733,-2.1644,-2.1172,-2.1075,-2.1039,-2.0889,-2.0854,-2.1033,-2.1854,-2.1943,-2.2217,-2.296,-2.2492,-2.2217,-2.296,-2.1798,-2.0996,-2.1802,0.0,0.0,0.0,0.0,0.0,0.0,-1.7666,0.0,0.0,0.0,0.0,0.0,0.0,0.0,-1.96,-2.1504,0.0,-2.2353,-2.2881,-2.2492,-2.1293,-2.1608,-2.23,-2.3299,-2.2716,-2.2876,-2.3583,-2.2257,-2.1752,-2.1752,-2.1752,-2.239,-2.3483,-2.2961,-2.3511,-2.4599,-2.4044,-2.4156,-2.471,-2.48,-2.3964,0.0,0.0,-2.3202,0.0,-2.3183,-2.3222,-2.3242,-2.3222,-2.3135,-2.3154,-2.3184,-2.3184,-2.3193,-2.3223,0.0,0.0,0.0,-2.3838,-2.4004,-2.4394,-2.4414,-2.4414,-2.4414,-2.4414,-2.4228,-2.3838,-2.3428,-2.3223,-2.3223,-2.3223,-2.3223,-2.3242,-2.3652,-2.3838,-2.3857,-2.4287,-2.4463,-2.4463,-2.4492,-2.4512,-2.4512,-2.4512,-2.4512,-2.4512,-2.4512,-2.4512,-2.4512,-2.4512,-2.4775,-2.5117,-2.5117,-2.54,-2.5576,-2.4746,-2.4512,-2.4502,-2.4473,-2.4463,-2.4365,-2.3935,-2.3809,-2.3682,-2.3242,-2.3135,-2.3135,-2.3135,-2.3135,-2.3135,-2.3135,-2.3135,-2.3125,-2.3096,-2.2412,-2.1875,-2.1846,0.0,0.0,0.0,0.0,0.0,0.0,-1.8906,-1.9365,0.0,0.0,0.0,0.0,0.0,-1.9609,-2.123,-2.2109,-2.2744,-2.3135,-2.3135,-2.2511,-2.1436,-2.2326,-2.3289,-2.44,-2.4031,-2.3791,-2.3791,-2.2567,-2.1954,-2.1954,-2.1954,-2.3219,-2.4977,-2.3597,-2.4373,-2.6045,-2.4599,-2.5041,-2.6264,0.0,0.0,-2.4102,-2.3261,-2.3846,-2.442,-2.442,-2.4358,-2.44,-2.4405,-2.3674,-2.3262,-2.3603,-2.3633,-2.3769,-2.4092,-2.3818,-2.3818,-2.4238,-2.4268,-2.4316,-2.4414,-2.4414,-2.4414,-2.4414,-2.4414,-2.4365,-2.4268,-2.416,-2.4111,-2.4111,-2.4111,-2.4111,-2.4121,-2.4219,-2.4268,-2.4297,-2.4727,-2.4912,-2.4941,-2.5283,-2.543,-2.543,-2.543,-2.543,-2.543,-2.543,-2.543,-2.543,-2.543,-2.5498,-2.5586,-2.5586,-2.5654,-2.5693,-2.5488,-2.543,-2.5352,-2.501,-2.4912,-2.4814,-2.4375,-2.4033,-2.3682,-2.3242,-2.3135,-2.3135,-2.3135,-2.3135,-2.3135,-2.3135,-2.3135,-2.3037,-2.2715,-2.2227,-2.1768,-2.1435,-2.0537,0.0,0.0,-1.9883,-1.9707,-1.9941,-2.0146,-2.0127,0.0,0.0,0.0,0.0,-2.0918,-2.1309,-2.1719,-2.2549,-2.3037,-2.3135,-2.3135,-2.3124,-2.3166,-2.3693,-2.4301,-2.4932,-2.5179,-2.5226,-2.5226,-2.4913,-2.4716,-2.4716,-2.4716,-2.5405,-2.6481,-2.6153,-2.6769,-2.7726,-2.7394,-2.7511,-2.7736,-2.6393,-2.5899,-2.537,-2.4754,-2.5155,-2.5579,-2.5572,-2.5606,-2.5373,-2.4903,-2.442,-2.4017,-2.3849,-2.3965,-2.4248,-2.4678,-2.4326,-2.4258,-2.4687,-2.4717,-2.4805,-2.501,-2.5019,-2.5019,-2.5019,-2.5019,-2.4922,-2.4717,-2.4521,-2.4414,-2.4414,-2.4414,-2.4414,-2.4424,-2.4619,-2.4717,-2.4746,-2.5185,-2.5371,-2.54,-2.5635,-2.5742,-2.5742,-2.5742,-2.5742,-2.5742,-2.5742,-2.5742,-2.5742,-2.5742,-2.5742,-2.5742,-2.5742,-2.5742,-2.5742,-2.5742,-2.5742,-2.5684,-2.5439,-2.5371,-2.5264,-2.4824,-2.4248,-2.373,-2.3486,-2.3281,-2.3135,-2.3135,-2.3135,-2.3135,-2.3135,-2.3135,-2.2998,-2.2578,-2.2158,-2.1738,-2.1299,-2.082,0.0,-2.084,-2.084,-2.0908,-2.1143,-2.1348,-2.1279,-2.085,-2.1387,0.0,-2.1465,-2.209,-2.2373,-2.2178,-2.2803,-2.3135,-2.3135,-2.3135,-2.3359,-2.3799,-2.4219,-2.4648,-2.5088,-2.5527,-2.5742,-2.5742,-2.5742,-2.5742,-2.5742,-2.5742,-2.624,-2.7012,-2.7012,-2.7539,-2.8291,-2.8291,-2.8291,-2.8291,-2.8118,-2.7369,-2.6707,-2.6509,-2.6614,-2.6759,-2.6773,-2.6698,-2.6426,-2.5521,-2.5584,-2.5413,-2.4655,-2.4826,-2.5142,-2.5496,-2.5095,-2.4952,-2.5146,-2.5166,-2.5342,-2.5723,-2.5742,-2.5742,-2.5742,-2.5742,-2.5557,-2.5166,-2.4795,-2.4619,-2.4619,-2.4619,-2.4619,-2.4629,-2.5,-2.5166,-2.5195,-2.5576,-2.5742,-2.5742,-2.5742,-2.5742,-2.5742,-2.5742,-2.5742,-2.5742,-2.5742,-2.5742,-2.5742,-2.5742,-2.5742,-2.5742,-2.5742,-2.5742,-2.5742,-2.5742,-2.5742,-2.5742,-2.5742,-2.5742,-2.5635,-2.5176,-2.4521,-2.3945,-2.3818,-2.3506,-2.3213,-2.3154,-2.3135,-2.3135,-2.3135,-2.3135,-2.2978,-2.249,-2.2119,-2.1709,-2.1201,0.0,-2.126,-2.1328,-2.1719,-2.2002,-2.207,-2.2344,-2.2393,-2.21,-2.2676,-2.292,-2.2627,-2.2939,-2.2969,-2.2617,-2.2949,-2.3135,-2.3135,-2.3135,-2.3389,-2.3887,-2.4248,-2.4678,-2.5176,-2.5566,-2.5742,-2.5742,-2.5742,-2.5742,-2.5742,-2.5742,-2.624,-2.7012,-2.7012,-2.7539,-2.8291,-2.8291,-2.8291,-2.8291,-2.8256,-2.8004,-2.7544,-2.6679,-2.7221,-2.7808,-2.785,-2.7813,-2.792,-2.8199,-2.7524,-2.7294,-2.791,-2.8076,-2.7865,-2.7254,-2.7139,-2.6666,-2.5625,-2.5635,-2.5664,-2.5732,-2.5742,-2.5742,-2.5742,-2.5742,-2.5703,-2.5635,-2.5566,-2.5527,-2.5527,-2.5527,-2.5527,-2.5537,-2.5605,-2.5635,-2.5635,-2.5713,-2.5742,-2.5742,-2.5742,-2.5742,-2.5742,-2.5742,-2.5742,-2.5742,-2.5742,-2.5742,-2.5742,-2.5742,-2.5742,-2.5742,-2.5742,-2.5742,-2.5742,-2.5742,-2.5742,-2.5742,-2.5742,-2.5742,-2.5635,-2.5176,-2.4971,-2.4678,-2.3955,-2.374,-2.3584,-2.3213,-2.3135,-2.3135,-2.3135,-2.3135,-2.2881,-2.2109,-2.1924,-2.1602,-2.0791,0.0,-2.1367,-2.1738,-2.2158,-2.2549,-2.291,-2.2685,-2.2637,-2.292,-2.2734,-2.2734,-2.3027,-2.3105,-2.3105,-2.3047,-2.3105,-2.3135,-2.3135,-2.3135,-2.3535,-2.4316,-2.4385,-2.4844,-2.5635,-2.5703,-2.5742,-2.5742,-2.5742,-2.5742,-2.5742,-2.5742,-2.624,-2.7012,-2.7012,-2.7539,-2.8291,-2.8291,-2.8291,-2.8291,-2.913,-2.8983,-2.8821,-2.8373,-2.8706,-2.9028,-2.9028,-2.9036,-2.9015,-2.8949,-2.8715,-2.8568,-2.8778,-2.9004,-2.8978,-2.8566,-2.7955,-2.7315,-2.6754,-2.611,-2.5742,-2.5742,-2.5742,-2.5742,-2.5742,-2.5742,-2.5742,-2.5742,-2.5742,-2.5742,-2.5742,-2.5742,-2.5742,-2.5742,-2.5742,-2.5742,-2.5742,-2.5742,-2.5742,-2.5742,-2.5742,-2.5742,-2.5742,-2.5742,-2.5742,-2.5742,-2.5742,-2.5742,-2.5742,-2.5742,-2.5742,-2.5742,-2.5742,-2.5742,-2.5742,-2.5742,-2.5742,-2.5742,-2.5742,-2.5742,-2.5684,-2.5478,-2.5244,-2.4961,-2.457,-2.4297,-2.4004,-2.3574,-2.3486,-2.3418,-2.3184,-2.3135,-2.2939,-2.2324,-2.2031,0.0,0.0,-2.1455,-2.1748,-2.2168,-2.2598,-2.293,-2.3125,-2.2959,-2.293,-2.3125,-2.2959,-2.293,-2.3125,-2.3135,-2.3135,-2.3135,-2.3135,-2.3135,-2.3135,-2.3135,-2.3564,-2.4414,-2.4414,-2.4883,-2.5742,-2.5742,-2.5742,-2.5742,-2.5742,-2.5742,-2.5742,-2.5742,-2.6113,-2.6699,-2.6924,-2.7402,-2.7988,-2.8203,-2.8291,-2.8291,-2.9792,-2.9792,-2.9792,-2.9792,-2.9792,-2.9792,-2.9792,-2.9792,-2.9692,-2.9479,-2.9749,-3.0,-2.9869,-3.0097,-3.0135,-2.9863,-2.8947,-2.8319,-2.8038,-2.7115,-2.6476,-2.61,-2.638,-2.6562,-2.6562,-2.6562,-2.6562,-2.6562,-2.6562,-2.6562,-2.6562,-2.6294,-2.6294,-2.6562,-2.5917,-2.583,-2.611,-2.583,-2.5742,-2.5742,-2.5742,-2.5742,-2.5742,-2.5742,-2.5742,-2.5742,-2.5742,-2.5742,-2.5742,-2.5742,-2.5742,-2.5742,-2.5742,-2.5742,-2.5742,-2.5742,-2.5742,-2.5742,-2.5742,-2.5742,-2.5742,-2.5742,-2.5478,-2.5195,-2.5088,-2.4805,-2.4443,-2.4023,-2.3857,-2.3691,-2.335,-2.3213,-2.2998,-2.2578,0.0,0.0,0.0,-2.1973,-2.2148,-2.2471,-2.2881,-2.3135,-2.3135,-2.3135,-2.3135,-2.3135,-2.3135,-2.3135,-2.3135,-2.3135,-2.3135,-2.3135,-2.3135,-2.3135,-2.3135,-2.3242,-2.3672,-2.4414,-2.4521,-2.498,-2.5742,-2.5742,-2.5742,-2.5742,-2.5742,-2.5742,-2.5742,-2.5742,-2.5996,-2.6426,-2.6846,-2.7285,-2.7715,-2.8135,-2.8291,-2.8291,-2.9792,-2.9792,-2.9792,-2.9792,-2.9792,-2.9792,-2.9792,-2.9792,-3.0156,-3.1104,-3.1279,-3.1622,-3.2709,-3.2772,-3.2339,-3.1134,-3.0944,-3.0496,-2.9315,-2.9223,-2.8588,-2.7494,-2.8495,-2.9131,-2.9131,-2.9131,-2.9131,-2.9131,-2.9131,-2.9131,-2.9131,-2.7955,-2.8049,-2.9039,-2.6754,-2.639,-2.74,-2.6197,-2.5742,-2.5742,-2.5742,-2.5742,-2.5742,-2.5742,-2.5742,-2.5742,-2.5742,-2.5742,-2.5742,-2.5742,-2.5742,-2.5742,-2.5742,-2.5742,-2.5742,-2.5742,-2.5742,-2.5742,-2.5742,-2.5742,-2.5742,-2.5742,-2.5713,-2.5586,-2.5166,-2.5039,-2.4893,-2.4463,-2.4062,-2.3779,-2.375,-2.3408,-2.2998,-2.2578,0.0,0.0,-2.1943,-2.2217,-2.248,-2.251,-2.2881,-2.3135,-2.3135,-2.3135,-2.3135,-2.3135,-2.3135,-2.3135,-2.3135,-2.3135,-2.3135,-2.3135,-2.3135,-2.3135,-2.3135,-2.3545,-2.3975,-2.4424,-2.4824,-2.5273,-2.5742,-2.5742,-2.5742,-2.5742,-2.5742,-2.5742,-2.5742,-2.5742,-2.5996,-2.6426,-2.6846,-2.7285,-2.7715,-2.8135,-2.8291,-2.8291,-2.9792,-2.9792,-2.9792,-2.9792,-2.9792,-2.9792,-2.9792,-2.9792,-3.0181,-3.1248,-3.1386,-3.1813,-3.2955,-3.3081,-3.2896,-3.2426,-3.1689,-3.1033,-3.0586,-3.0496,-2.9954,-2.8773,-2.9131,-2.9407,-2.9407,-2.9407,-2.9407,-2.9407,-2.9407,-2.9407,-2.9407,-2.8958,-2.8958,-2.9315,-2.8402,-2.7851,-2.7589,-2.7851,-2.7579,-2.6945,-2.7673,-2.8038,-2.8038,-2.8038,-2.8038,-2.8038,-2.8038,-2.8038,-2.8038,-2.8038,-2.7484,-2.6849,-2.6849,-2.639,-2.5742,-2.5742,-2.5742,-2.5742,-2.5742,-2.5742,-2.5742,-2.5742,-2.5742,-2.5693,-2.5518,-2.5478,-2.5352,-2.4912,-2.4697,-2.4414,-2.3887,-2.3652,-2.3398,-2.2969,0.0,-2.2549,-2.2646,-2.2578,-2.2607,-2.2871,-2.3047,-2.3135,-2.3135,-2.3135,-2.3135,-2.3135,-2.3135,-2.3135,-2.3135,-2.3135,-2.3135,-2.3135,-2.3135,-2.3135,-2.3135,-2.3574,-2.4004,-2.4424,-2.4863,-2.5303,-2.5742,-2.5742,-2.5742,-2.5742,-2.5742,-2.5742,-2.5742,-2.5742,-2.584,-2.6055,-2.6748,-2.7119,-2.7344,-2.8037,-2.8291,-2.8291,-2.9792,-2.9792,-2.9792,-2.9792,-2.9792,-2.9792,-2.9792,-2.9792,-3.0181,-3.1248,-3.1386,-3.1813,-3.2955,-3.3081,-3.3081,-3.3081,-3.2326,-3.1777,-3.1777,-3.1777,-3.1412,-3.0598,-3.0598,-3.0598,-3.0598,-3.0598,-3.0598,-3.0598,-3.0598,-3.0598,-3.0598,-3.0135,-3.0135,-3.0508,-2.9772,-2.9131,-2.8773,-2.9223,-2.9046,-2.8441,-2.9364,-2.9732,-2.9866,-2.9866,-2.9866,-2.9866,-2.9866,-2.9866,-2.9866,-2.9866,-2.9316,-2.8645,-2.8494,-2.7419,-2.6197,-2.583,-2.5742,-2.5742,-2.5742,-2.5742,-2.5742,-2.5742,-2.5742,-2.5742,-2.5742,-2.5742,-2.5644,-2.5342,-2.5166,-2.4893,-2.4297,-2.3965,-2.3691,-2.3389,-2.2988,-2.2812,-2.3096,-2.2891,-2.2812,-2.3105,-2.3135,-2.3135,-2.3135,-2.3135,-2.3135,-2.3135,-2.3135,-2.3135,-2.3135,-2.3135,-2.3135,-2.3135,-2.3135,-2.3135,-2.3135,-2.3701,-2.4131,-2.4424,-2.5,-2.5439,-2.5742,-2.5742,-2.5742,-2.5742,-2.5742,-2.5742,-2.5742,-2.5742,-2.5742,-2.582,-2.668,-2.7012,-2.7119,-2.7978,-2.8291,-2.8291,-2.9792,-2.9792,-2.9792,-2.9792,-2.9792,-2.9792,-2.9792,-2.9792,-3.0181,-3.1248,-3.1386,-3.1813,-3.2955,-3.3081,-3.3081,-3.3081,-3.3081,-3.3081,-3.3081,-3.3081,-3.3081,-3.3081,-3.3081,-3.3081,-3.3081,-3.3081,-3.3081,-3.3081,-3.3081,-3.3081,-3.3068,-3.1777,-3.1865,-3.2982,-3.0508,-3.0135,-3.1134,-2.9954,-2.9698,-3.024,-3.024,-3.0532,-3.1067,-3.1067,-3.1067,-3.1067,-3.1067,-3.1067,-3.1067,-3.1067,-3.1067,-3.0881,-3.0397,-2.8979,-2.741,-2.611,-2.5742,-2.5732,-2.5732,-2.5732,-2.5742,-2.5742,-2.5742,-2.5742,-2.5742,-2.5742,-2.5742,-2.5742,-2.5381,-2.5068,-2.5068,-2.4375,-2.3799,-2.3789,-2.3428,-2.3135,-2.3135,-2.3135,-2.3135,-2.3135,-2.3135,-2.3135,-2.3135,-2.3135,-2.3135,-2.3135,-2.3135,-2.3135,-2.3135,-2.3135,-2.3135,-2.3135,-2.3135,-2.3135,-2.3144,-2.3994,-2.4414,-2.4424,-2.5312,-2.5742,-2.5742,-2.5742,-2.5742,-2.5742,-2.5742,-2.5742,-2.5742,-2.5742,-2.5742,-2.582,-2.668,-2.7012,-2.7119,-2.7978,-2.8291,-2.8291,-2.9792,-2.9792,-2.9792,-2.9792,-2.9792,-2.9792,-2.9792,-2.9792,-3.0181,-3.1248,-3.1386,-3.1813,-3.2955,-3.3081,-3.3081,-3.3081,-3.3081,-3.3081,-3.3081,-3.3081,-3.3081,-3.3081,-3.3081,-3.3081,-3.3081,-3.3081,-3.3081,-3.3081,-3.3081,-3.3081,-3.3081,-3.2711,-3.2711,-3.3068,-3.2339,-3.1906,-3.1884,-3.2345,-3.2376,-3.2195,-3.3039,-3.3424,-3.357,-3.357,-3.357,-3.357,-3.357,-3.357,-3.357,-3.357,-3.299,-3.2101,-3.1077,-3.0125,-2.936,-2.8994,-2.8021,-2.703,-2.703,-2.638,-2.5742,-2.5742,-2.5742,-2.5742,-2.5742,-2.5742,-2.5742,-2.5742,-2.5635,-2.5439,-2.5127,-2.4609,-2.4131,-2.3838,-2.3428,-2.3135,-2.3135,-2.3135,-2.3135,-2.3135,-2.3135,-2.3135,-2.3135,-2.3135,-2.3135,-2.3135,-2.3135,-2.3135,-2.3135,-2.3135,-2.3135,-2.3135,-2.3135,-2.3291,-2.3594,-2.4141,-2.4414,-2.4424,-2.5312,-2.5742,-2.5742,-2.5742,-2.5742,-2.5742,-2.5742,-2.5742,-2.5742,-2.5742,-2.5742,-2.582,-2.668,-2.7012,-2.7119,-2.7978,-2.8291,-2.8291,-3.0419,-3.0343,-3.0203,-2.9856,-2.9792,-2.9792,-2.9792,-2.9792,-3.0181,-3.1248,-3.1386,-3.1813,-3.2955,-3.3081,-3.3081,-3.3081,-3.3081,-3.3081,-3.3081,-3.3081,-3.3081,-3.3081,-3.3081,-3.3081,-3.3081,-3.3081,-3.3081,-3.3081,-3.3081,-3.3081,-3.3081,-3.3081,-3.3194,-3.3407,-3.3407,-3.3332,-3.3186,-3.3943,-3.4074,-3.3991,-3.4753,-3.5177,-3.5366,-3.5366,-3.5366,-3.5366,-3.5366,-3.5366,-3.5366,-3.5366,-3.4743,-3.3699,-3.2427,-3.17,-3.1192,-3.0616,-2.962,-2.8599,-2.8599,-2.7905,-2.721,-2.721,-2.6839,-2.6476,-2.6476,-2.6839,-2.721,-2.721,-2.6754,-2.6481,-2.6744,-2.6053,-2.5309,-2.5048,-2.4907,-2.4574,-2.4072,-2.3824,-2.38,-2.38,-2.3387,-2.3135,-2.3135,-2.3135,-2.3135,-2.3135,-2.3135,-2.3135,-2.3135,-2.3135,-2.3213,-2.3389,-2.3398,-2.3603,-2.4033,-2.4463,-2.4678,-2.4687,-2.5391,-2.5742,-2.5742,-2.5742,-2.5742,-2.5742,-2.5742,-2.5742,-2.5742,-2.5742,-2.5742,-2.581,-2.6494,-2.6865,-2.71,-2.7793,-2.8144,-2.8291,-3.1462,-3.1241,-3.0895,-3.0075,-2.9869,-2.9792,-2.9792,-2.9792,-3.0181,-3.1248,-3.1386,-3.1813,-3.2955,-3.3081,-3.3081,-3.3081,-3.3081,-3.3081,-3.3081,-3.3081,-3.3081,-3.3081,-3.3081,-3.3081,-3.3081,-3.3081,-3.3081,-3.3081,-3.3081,-3.3081,-3.3081,-3.3081,-3.337,-3.3897,-3.3897,-3.4236,-3.4801,-3.4801,-3.5115,-3.5617,-3.5617,-3.5918,-3.6358,-3.6358,-3.6358,-3.6358,-3.6358,-3.6358,-3.6358,-3.6358,-3.6031,-3.5419,-3.4244,-3.3599,-3.2875,-3.1708,-3.0941,-3.0323,-3.0323,-2.9869,-2.9407,-2.9407,-2.868,-2.7861,-2.7778,-2.8588,-2.9407,-2.9407,-2.8495,-2.8132,-2.9223,-2.8104,-2.707,-2.707,-2.7283,-2.6915,-2.5762,-2.5209,-2.5009,-2.4967,-2.4049,-2.3387,-2.3387,-2.3299,-2.3212,-2.3212,-2.3135,-2.3154,-2.3193,-2.3271,-2.3565,-2.4008,-2.4108,-2.4395,-2.4832,-2.5145,-2.5258,-2.5068,-2.5527,-2.5742,-2.5742,-2.5742,-2.5742,-2.5742,-2.583,-2.583,-2.583,-2.583,-2.583,-2.5869,-2.6211,-2.6621,-2.7021,-2.749,-2.791,-2.8242,-3.2321,-3.1669,-3.1106,-3.0895,-3.0279,-2.9792,-2.9792,-2.9792,-3.0181,-3.1248,-3.1386,-3.1813,-3.2955,-3.3081,-3.3081,-3.3081,-3.3081,-3.3081,-3.3081,-3.3081,-3.3081,-3.3081,-3.3081,-3.3081,-3.3081,-3.3081,-3.3081,-3.3081,-3.3081,-3.3081,-3.3081,-3.3081,-3.337,-3.3897,-3.3897,-3.4449,-3.5366,-3.5366,-3.568,-3.6182,-3.6182,-3.6257,-3.6358,-3.6358,-3.6358,-3.6358,-3.6358,-3.6358,-3.6358,-3.6358,-3.6282,-3.6182,-3.5886,-3.5407,-3.4879,-3.4588,-3.314,-3.1654,-3.1654,-3.0526,-2.9407,-2.9407,-2.9954,-3.0124,-2.9223,-2.9223,-2.9407,-2.9407,-2.9223,-2.9131,-2.9315,-2.8834,-2.8421,-2.8421,-2.8087,-2.7648,-2.7012,-2.6771,-2.6561,-2.6185,-2.5891,-2.5724,-2.5724,-2.4967,-2.4457,-2.4457,-2.3627,-2.3291,-2.3633,-2.4568,-2.529,-2.5747,-2.6646,-2.7414,-2.7807,-2.6925,-2.6072,-2.5068,-2.5527,-2.5742,-2.5742,-2.5742,-2.5742,-2.5732,-2.6754,-2.722,-2.722,-2.722,-2.722,-2.7177,-2.6596,-2.6445,-2.6621,-2.7383,-2.7725,-2.7851,-3.338,-3.289,-3.2249,-3.1389,-3.1193,-3.0983,-3.057,-3.0846,-3.1402,-3.2001,-3.2076,-3.2363,-3.3028,-3.3081,-3.3081,-3.3081,-3.3081,-3.3081,-3.3081,-3.3081,-3.3081,-3.3081,-3.3081,-3.3081,-3.3081,-3.3081,-3.3081,-3.3081,-3.3081,-3.3206,-3.347,-3.347,-3.3909,-3.4675,-3.4675,-3.5152,-3.5931,-3.5931,-3.6094,-3.6358,-3.6358,-3.6358,-3.6358,-3.6358,-3.6358,-3.6358,-3.6358,-3.6358,-3.6358,-3.6358,-3.6358,-3.6358,-3.6358,-3.6157,-3.5931,-3.5931,-3.4854,-3.3668,-3.3411,-3.2485,-3.1454,-3.1205,-3.1601,-3.1777,-3.0496,-3.0687,-3.1146,-3.1146,-3.0687,-3.0406,-3.1057,-3.0465,-2.9923,-2.9923,-3.0032,-2.9768,-2.8889,-2.8572,-2.831,-2.7706,-2.7152,-2.6914,-2.6914,-2.6315,-2.6064,-2.6378,-2.5806,-2.5574,-2.5816,-2.6431,-2.6987,-2.7477,-2.8121,-2.8622,-2.9116,-2.8401,-2.748,-2.6303,-2.5905,-2.5742,-2.5742,-2.6294,-2.6572,-2.6668,-2.7955,-2.8495,-2.8495,-2.8495,-2.8132,-2.7515,-2.7115,-2.6773,-2.6535,-2.7563,-2.8188,-2.8612,-3.4394,-3.4095,-3.3518,-3.196,-3.2177,-3.2321,-3.1536,-3.2105,-3.2746,-3.3048,-3.2895,-3.2971,-3.3356,-3.324,-3.3081,-3.3081,-3.3081,-3.3081,-3.3081,-3.3081,-3.3081,-3.3081,-3.3081,-3.3081,-3.3081,-3.3081,-3.3081,-3.3081,-3.3081,-3.3307,-3.3759,-3.3859,-3.4437,-3.5403,-3.5504,-3.5855,-3.6358,-3.6358,-3.6358,-3.6358,-3.6358,-3.6358,-3.6358,-3.6358,-3.6358,-3.6358,-3.6358,-3.6358,-3.6358,-3.6358,-3.6358,-3.6358,-3.6358,-3.6358,-3.6358,-3.6358,-3.5968,-3.5416,-3.4876,-3.4324,-3.3771,-3.3219,-3.3081,-3.2797,-3.1777,-3.2326,-3.3081,-3.3081,-3.2239,-3.1865,-3.2896,-3.2239,-3.15,-3.15,-3.2031,-3.1965,-3.0893,-3.0422,-2.9953,-2.9412,-2.8502,-2.8012,-2.8012,-2.7843,-2.7929,-2.835,-2.82,-2.8158,-2.8248,-2.8423,-2.8737,-2.9238,-2.9438,-2.9734,-3.0045,-2.9863,-2.9223,-2.8226,-2.6935,-2.6197,-2.611,-2.7305,-2.7955,-2.7955,-2.9223,-2.9681,-2.9681,-2.9681,-2.9131,-2.8226,-2.7955,-2.7544,-2.7039,-2.8143,-2.9024,-2.988,-3.5344,-3.461,-3.3945,-3.3671,-3.3031,-3.2522,-3.2464,-3.2522,-3.2963,-3.4012,-3.3349,-3.3198,-3.438,-3.3628,-3.3081,-3.3081,-3.3081,-3.3081,-3.3081,-3.3081,-3.3081,-3.3081,-3.3081,-3.3081,-3.3081,-3.3081,-3.3081,-3.3081,-3.3081,-3.3119,-3.3206,-3.3671,-3.4236,-3.4851,-3.5328,-3.5855,-3.6358,-3.6358,-3.6358,-3.6358,-3.6358,-3.6358,-3.6358,-3.6358,-3.6358,-3.6358,-3.6358,-3.6358,-3.6358,-3.6358,-3.6358,-3.6358,-3.6358,-3.6358,-3.6358,-3.6358,-3.5968,-3.5416,-3.4876,-3.4324,-3.3771,-3.3219,-3.3081,-3.3068,-3.2884,-3.2982,-3.3081,-3.3081,-3.2982,-3.2896,-3.3068,-3.2982,-3.2797,-3.2797,-3.292,-3.278,-3.2012,-3.1888,-3.1639,-3.1173,-3.0934,-3.0852,-3.0852,-3.0001,-2.9521,-2.9593,-2.8643,-2.8305,-2.8656,-2.9648,-3.0418,-3.0826,-3.1955,-3.2537,-3.2612,-3.15,-3.0855,-3.0676,-2.9498,-2.8308,-2.74,-2.8588,-2.9131,-2.9223,-3.0395,-3.0956,-3.0956,-3.0956,-3.0855,-3.0586,-2.959,-2.9084,-2.9101,-2.9592,-3.0367,-3.1119,-3.5504,-3.5133,-3.4691,-3.4095,-3.4109,-3.4041,-3.3463,-3.3822,-3.4433,-3.5164,-3.4803,-3.458,-3.4696,-3.3713,-3.3081,-3.3081,-3.3641,-3.3713,-3.3154,-3.3628,-3.3713,-3.3154,-3.3081,-3.3081,-3.3081,-3.3081,-3.3081,-3.3081,-3.3081,-3.3395,-3.3997,-3.4248,-3.4813,-3.5642,-3.5893,-3.6132,-3.6358,-3.6358,-3.6358,-3.6358,-3.6358,-3.6358,-3.6358,-3.6358,-3.6358,-3.6358,-3.6358,-3.6358,-3.6358,-3.6358,-3.6358,-3.6358,-3.6358,-3.6358,-3.6358,-3.6358,-3.6194,-3.5881,-3.5328,-3.4776,-3.4223,-3.3671,-3.3307,-3.3081,-3.3081,-3.3081,-3.3081,-3.3081,-3.3081,-3.3081,-3.3081,-3.3081,-3.3081,-3.3081,-3.3081,-3.2993,-3.2729,-3.2692,-3.2491,-3.1913,-3.1574,-3.1512,-3.1813,-3.1422,-3.1282,-3.1601,-3.1186,-3.1011,-3.1165,-3.1711,-3.2093,-3.2227,-3.2797,-3.3081,-3.3081,-3.2513,-3.1865,-3.1223,-3.1412,-3.0418,-2.868,-2.9863,-3.0406,-3.0496,-3.1689,-3.2239,-3.2239,-3.2239,-3.1865,-3.1134,-3.0586,-3.0406,-3.0464,-3.0985,-3.1367,-3.1628]},{"header":{"parameterUnit":"m.s-1","parameterCategory":1,"la1":30.6,"la2":28.766,"lo1":-90.7593,"lo2":-88.6598,"dy":0.0162,"dx":0.0183,"nx":116,"ny":114,"refTime":"2024-05-23T06:00:00:Z","depth":0,"parameterNumber":3,"parameterNumberName":"V-component_of_WINDS"},"data":[0.0,0.0,0.0,0.0,0.0,0.0,0.0,0.0,0.0,0.0,0.0,0.0,0.0,0.0,0.0,0.0,0.0,0.0,0.0,0.0,0.0,0.0,0.0,0.0,0.0,0.0,0.0,0.0,0.0,0.0,0.0,0.0,0.0,0.0,0.0,0.0,0.0,0.0,0.0,0.0,0.0,0.0,0.0,0.0,0.0,0.0,0.0,0.0,0.0,0.0,0.0,0.0,0.0,0.0,0.0,0.0,0.0,0.0,0.0,0.0,0.0,0.0,0.0,0.0,0.0,0.0,0.0,0.0,0.0,0.0,0.0,0.0,0.0,0.0,0.0,0.0,0.0,0.0,0.0,0.0,0.0,0.0,0.0,0.0,0.0,0.0,0.0,0.0,0.0,0.0,0.0,0.0,0.0,0.0,0.0,0.0,0.0,0.0,0.0,0.0,0.0,0.0,0.0,0.0,0.0,0.0,0.0,0.0,0.0,0.0,0.0,0.0,0.0,0.0,0.0,0.0,0.0,0.0,0.0,0.0,0.0,0.0,0.0,0.0,0.0,0.0,0.0,0.0,0.0,0.0,0.0,0.0,0.0,0.0,0.0,0.0,0.0,0.0,0.0,0.0,0.0,0.0,0.0,0.0,0.0,0.0,0.0,0.0,0.0,0.0,0.0,0.0,0.0,0.0,0.0,0.0,0.0,0.0,0.0,0.0,0.0,0.0,0.0,0.0,0.0,0.0,0.0,0.0,0.0,0.0,0.0,0.0,0.0,0.0,0.0,0.0,0.0,0.0,0.0,0.0,0.0,0.0,0.0,0.0,0.0,0.0,0.0,0.0,0.0,0.0,0.0,0.0,0.0,0.0,0.0,0.0,0.0,0.0,0.0,0.0,0.0,0.0,0.0,0.0,0.0,0.0,0.0,0.0,0.0,0.0,0.0,0.0,0.0,0.0,0.0,0.0,0.0,0.0,0.0,0.0,0.0,0.0,0.0,0.0,0.0,0.0,0.0,0.0,0.0,0.0,0.0,0.0,0.0,0.0,0.0,0.0,0.0,0.0,0.0,0.0,0.0,0.0,0.0,0.0,0.0,0.0,0.0,0.0,0.0,0.0,0.0,0.0,0.0,0.0,0.0,0.0,0.0,0.0,0.0,0.0,0.0,0.0,0.0,0.0,0.0,0.0,0.0,0.0,0.0,0.0,0.0,0.0,0.0,0.0,0.0,0.0,0.0,0.0,0.0,0.0,0.0,0.0,0.0,0.0,0.0,0.0,0.0,0.0,0.0,0.0,0.0,0.0,0.0,0.0,0.0,0.0,0.0,0.0,0.0,0.0,0.0,0.0,0.0,0.0,0.0,0.0,0.0,0.0,0.0,0.0,0.0,0.0,0.0,0.0,0.0,0.0,0.0,0.0,0.0,0.0,0.0,0.0,0.0,0.0,0.0,0.0,0.0,0.0,0.0,0.0,0.0,0.0,0.0,0.0,0.0,0.0,0.0,0.0,0.0,0.0,0.0,0.0,0.0,0.0,0.0,0.0,0.0,0.0,0.0,0.0,0.0,0.0,0.0,0.0,0.0,0.0,0.0,0.0,0.0,0.0,0.0,0.0,0.0,0.0,0.0,0.0,0.0,0.0,0.0,0.0,0.0,0.0,0.0,0.0,0.0,0.0,0.0,0.0,0.0,0.0,0.0,0.0,0.0,0.0,0.0,0.0,0.0,0.0,0.0,0.0,0.0,0.0,0.0,0.0,0.0,0.0,0.0,0.0,0.0,0.0,0.0,0.0,0.0,0.0,0.0,0.0,0.0,0.0,0.0,0.0,0.0,0.0,0.0,0.0,0.0,0.0,0.0,0.0,0.0,0.0,0.0,0.0,0.0,0.0,0.0,0.0,0.0,0.0,0.0,0.0,0.0,0.0,0.0,0.0,0.0,0.0,0.0,0.0,0.0,0.0,0.0,0.0,0.0,0.0,0.0,0.0,0.0,0.0,0.0,0.0,0.0,0.0,0.0,0.0,0.0,0.0,0.0,0.0,0.0,0.0,0.0,0.0,0.0,0.0,0.0,0.0,0.0,0.0,0.0,0.0,0.0,0.0,0.0,0.0,0.0,0.0,0.0,0.0,0.0,0.0,0.0,0.0,0.0,0.0,0.0,0.0,0.0,0.0,0.0,0.0,0.0,0.0,0.0,0.0,0.0,0.0,0.0,0.0,0.0,0.0,0.0,0.0,0.0,0.0,0.0,0.0,0.0,0.0,0.0,0.0,0.0,0.0,0.0,0.0,0.0,0.0,0.0,0.0,0.0,0.0,0.0,0.0,0.0,0.0,0.0,0.0,0.0,0.0,0.0,0.0,0.0,0.0,0.0,0.0,0.0,0.0,0.0,0.0,0.0,0.0,0.0,0.0,0.0,0.0,0.0,0.0,0.0,0.0,0.0,0.0,0.0,0.0,0.0,0.0,0.0,0.0,0.0,0.0,0.0,0.0,0.0,0.0,0.0,0.0,0.0,0.0,0.0,0.0,0.0,0.0,0.0,0.0,0.0,0.0,0.0,0.0,0.0,0.0,0.0,0.0,0.0,0.0,0.0,0.0,0.0,0.0,0.0,0.0,0.0,0.0,0.0,0.0,0.0,0.0,0.0,0.0,0.0,0.0,0.0,0.0,0.0,0.0,0.0,0.0,0.0,0.0,0.0,0.0,0.0,0.0,0.0,0.0,0.0,0.0,0.0,0.0,0.0,0.0,0.0,0.0,0.0,0.0,0.0,0.0,0.0,0.0,0.0,0.0,0.0,0.0,0.0,0.0,0.0,0.0,0.0,0.0,0.0,0.0,0.0,0.0,0.0,0.0,0.0,0.0,0.0,0.0,0.0,0.0,0.0,0.0,0.0,0.0,0.0,0.0,0.0,0.0,0.0,0.0,0.0,0.0,0.0,0.0,0.0,0.0,0.0,0.0,0.0,0.0,0.0,0.0,0.0,0.0,0.0,0.0,0.0,0.0,0.0,0.0,0.0,0.0,0.0,0.0,0.0,0.0,0.0,0.0,0.0,0.0,0.0,0.0,0.0,0.0,0.0,0.0,0.0,0.0,0.0,0.0,0.0,0.0,0.0,0.0,0.0,0.0,0.0,0.0,0.0,0.0,0.0,0.0,0.0,0.0,0.0,0.0,0.0,0.0,0.0,0.0,0.0,0.0,0.0,0.0,0.0,0.0,0.0,0.0,0.0,0.0,0.0,0.0,0.0,0.0,0.0,0.0,0.0,0.0,0.0,0.0,0.0,0.0,0.0,0.0,0.0,0.0,0.0,0.0,0.0,0.0,0.0,0.0,0.0,0.0,0.0,0.0,0.0,0.0,0.0,0.0,0.0,0.0,0.0,0.0,0.0,0.0,0.0,0.0,0.0,0.0,0.0,0.0,0.0,0.0,0.0,0.0,0.0,0.0,0.0,0.0,0.0,0.0,0.0,0.0,0.0,0.0,0.0,0.0,0.0,0.0,0.0,0.0,0.0,0.0,0.0,0.0,0.0,0.0,0.0,0.0,0.0,0.0,0.0,0.0,0.0,0.0,0.0,0.0,0.0,0.0,0.0,0.0,0.0,0.0,0.0,0.0,0.0,0.0,0.0,0.0,0.0,0.0,0.0,0.0,0.0,0.0,0.0,0.0,0.0,0.0,0.0,0.0,0.0,0.0,0.0,0.0,0.0,0.0,0.0,0.0,0.0,0.0,0.0,0.0,0.0,0.0,0.0,0.0,0.0,0.0,0.0,0.0,0.0,0.0,0.0,0.0,0.0,0.0,0.0,0.0,0.0,0.0,0.0,0.0,0.0,0.0,0.0,0.0,0.0,0.0,0.0,0.0,0.0,0.0,0.0,0.0,0.0,0.0,0.0,0.0,0.0,0.0,0.0,0.0,0.0,0.0,0.0,0.0,0.0,0.0,0.0,0.0,0.0,0.0,0.0,0.0,0.0,0.0,0.0,0.0,0.0,0.0,0.0,0.0,0.0,0.0,0.0,0.0,0.0,0.0,0.0,0.0,0.0,0.0,0.0,0.0,0.0,0.0,0.0,0.0,0.0,0.0,0.0,0.0,0.0,0.0,0.0,0.0,0.0,0.0,0.0,0.0,0.0,0.0,0.0,0.0,0.0,0.0,0.0,0.0,0.0,0.0,0.0,0.0,0.0,0.0,0.0,0.0,0.0,0.0,0.0,0.0,0.0,0.0,0.0,0.0,0.0,0.0,0.0,0.0,0.0,0.0,0.0,0.0,0.0,0.0,0.0,0.0,0.0,0.0,0.0,0.0,0.0,0.0,0.0,0.0,0.0,0.0,0.0,0.0,0.0,0.0,0.0,0.0,0.0,0.0,0.0,0.0,0.0,0.0,0.0,0.0,0.0,0.0,0.0,0.0,0.0,0.0,0.0,0.0,0.0,0.0,0.0,0.0,0.0,0.0,0.0,0.0,0.0,0.0,0.0,0.0,0.0,0.0,0.0,0.0,0.0,0.0,0.0,0.0,0.0,0.0,0.0,0.0,0.0,0.0,0.0,0.0,0.0,0.0,0.0,0.0,0.0,0.0,0.0,0.0,0.0,0.0,0.0,0.0,0.0,0.0,0.0,0.0,0.0,0.0,0.0,0.0,0.0,0.0,0.0,0.0,0.0,0.0,0.0,0.0,0.0,0.0,0.0,0.0,0.0,0.0,0.0,0.0,0.0,0.0,0.0,0.0,0.0,0.0,0.0,0.0,0.0,0.0,0.0,0.0,0.0,0.0,0.0,0.0,0.0,0.0,0.0,0.0,0.0,0.0,0.0,0.0,0.0,0.0,0.0,0.0,0.0,0.0,0.0,0.0,0.0,0.0,0.0,0.0,0.0,0.0,0.0,0.0,0.0,0.0,0.0,0.0,0.0,0.0,0.0,0.0,0.0,0.0,0.0,0.0,0.0,0.0,0.0,0.0,0.0,0.0,0.0,0.0,0.0,0.0,0.0,0.0,0.0,0.0,0.0,0.0,0.0,0.0,0.0,0.0,0.0,0.0,0.0,0.0,0.0,0.0,0.0,0.0,0.0,0.0,0.0,0.0,0.0,0.0,0.0,0.0,0.0,0.0,0.0,0.0,0.0,0.0,0.0,0.0,0.0,0.0,0.0,0.0,0.0,0.0,0.0,0.0,0.0,0.0,0.0,0.0,0.0,0.0,0.0,0.0,0.0,0.0,0.0,0.0,0.0,0.0,0.0,0.0,0.0,0.0,0.0,0.0,0.0,0.0,0.0,0.0,0.0,0.0,0.0,0.0,0.0,0.0,0.0,0.0,0.0,0.0,0.0,0.0,0.0,0.0,0.0,0.0,0.0,0.0,0.0,0.0,0.0,0.0,0.0,0.0,0.0,0.0,0.0,0.0,0.0,0.0,0.0,0.0,0.0,0.0,0.0,0.0,0.0,0.0,0.0,0.0,0.0,0.0,0.0,0.0,0.0,0.0,0.0,0.0,0.0,0.0,0.0,0.0,0.0,0.0,0.0,0.0,0.0,0.0,0.0,0.0,0.0,0.0,0.0,0.0,0.0,0.0,0.0,0.0,0.0,0.0,0.0,0.0,0.0,0.0,0.0,0.0,0.0,0.0,0.0,0.0,0.0,0.0,0.0,0.0,0.0,0.0,0.0,0.0,0.0,0.0,0.0,0.0,0.0,0.0,0.0,0.0,0.0,0.0,0.0,0.0,0.0,0.0,0.0,0.0,0.0,0.0,0.0,0.0,0.0,0.0,0.0,0.0,0.0,0.0,0.0,0.0,0.0,0.0,0.0,0.0,0.0,0.0,0.0,0.0,0.0,0.0,0.0,0.0,0.0,0.0,0.0,0.0,0.0,0.0,0.0,0.0,0.0,0.0,0.0,0.0,0.0,0.0,0.0,0.0,0.0,0.0,0.0,0.0,0.0,0.0,0.0,0.0,0.0,0.0,0.0,0.0,0.0,0.0,0.0,0.0,0.0,0.0,0.0,0.0,0.0,0.0,0.0,0.0,0.0,0.0,0.0,0.0,0.0,0.0,0.0,0.0,0.0,0.0,0.0,0.0,0.0,0.0,0.0,0.0,0.0,0.0,0.0,0.0,0.0,0.0,-3.2392,0.0,0.0,0.0,0.0,0.0,0.0,0.0,0.0,0.0,0.0,0.0,0.0,0.0,0.0,0.0,0.0,0.0,0.0,0.0,0.0,0.0,0.0,0.0,0.0,-1.3336,-1.4277,-1.4277,-1.4119,-1.3994,-1.3994,0.0,0.0,0.0,0.0,0.0,-1.3834,-1.2706,-1.3337,-1.5797,-1.6146,-1.6788,-1.7644,-1.6766,-1.6548,-1.6961,0.0,0.0,0.0,0.0,0.0,0.0,0.0,0.0,0.0,0.0,0.0,0.0,0.0,0.0,0.0,0.0,0.0,0.0,0.0,0.0,0.0,0.0,0.0,0.0,0.0,0.0,0.0,0.0,0.0,0.0,0.0,0.0,0.0,0.0,0.0,0.0,0.0,0.0,0.0,0.0,0.0,0.0,0.0,0.0,0.0,0.0,0.0,0.0,0.0,0.0,0.0,0.0,0.0,0.0,0.0,0.0,0.0,0.0,0.0,0.0,0.0,0.0,0.0,0.0,0.0,0.0,0.0,0.0,0.0,0.0,0.0,-3.4888,0.0,0.0,0.0,0.0,0.0,0.0,0.0,0.0,0.0,0.0,0.0,0.0,0.0,0.0,0.0,0.0,0.0,0.0,0.0,0.0,0.0,-1.215,-1.2314,-1.3815,-1.487,-1.4963,-1.467,-1.4467,-1.4467,-1.4137,0.0,0.0,0.0,-1.4685,-1.4506,-1.4354,-1.4999,-1.6477,-1.9097,-2.0632,-2.1056,-2.108,-2.1304,-2.1627,-1.8768,0.0,0.0,0.0,0.0,0.0,0.0,0.0,0.0,0.0,0.0,0.0,0.0,0.0,0.0,0.0,0.0,0.0,0.0,0.0,0.0,0.0,0.0,0.0,0.0,0.0,0.0,0.0,0.0,0.0,0.0,0.0,0.0,0.0,0.0,0.0,0.0,0.0,0.0,0.0,0.0,0.0,0.0,0.0,0.0,0.0,0.0,0.0,0.0,0.0,0.0,0.0,0.0,0.0,0.0,0.0,0.0,0.0,0.0,0.0,0.0,0.0,0.0,0.0,-4.1922,-4.3542,-4.4985,-4.5026,-4.6015,-4.7386,-4.2504,-4.0673,-4.09,0.0,0.0,0.0,0.0,0.0,0.0,0.0,0.0,0.0,0.0,0.0,0.0,0.0,0.0,0.0,0.0,0.0,0.0,0.0,0.0,-1.1963,-1.2716,-1.4382,-1.5572,-1.606,-1.6044,-1.6009,-1.6009,-1.4794,0.0,0.0,-1.5792,-1.5519,-1.452,-1.3756,-1.5278,-1.9179,-2.1821,-2.4283,-2.6581,-2.6566,-2.7782,-2.9723,-2.4791,-2.2214,-2.138,0.0,0.0,0.0,0.0,0.0,0.0,0.0,0.0,0.0,0.0,0.0,0.0,0.0,0.0,0.0,0.0,0.0,0.0,0.0,0.0,0.0,0.0,0.0,0.0,0.0,0.0,0.0,0.0,0.0,0.0,0.0,0.0,0.0,0.0,0.0,0.0,0.0,0.0,0.0,0.0,0.0,-2.6854,-2.8393,0.0,0.0,0.0,0.0,0.0,0.0,0.0,0.0,0.0,0.0,0.0,0.0,0.0,0.0,-4.2341,-4.5017,-4.6405,-4.6519,-4.8488,-4.9912,-5.0795,-5.0795,-5.1353,-5.2315,-5.2277,0.0,-4.4799,-4.3553,0.0,0.0,0.0,0.0,0.0,0.0,0.0,0.0,0.0,0.0,0.0,0.0,0.0,0.0,0.0,0.0,0.0,0.0,0.0,0.0,0.0,-1.5957,-1.7264,-1.682,-1.7464,-1.7599,-1.69,-1.6477,-1.6346,-1.6466,-1.6632,-1.6589,-1.6307,-1.5219,-1.7786,-2.4124,-2.6738,-2.8662,-2.9792,-2.9787,-3.1235,-3.3599,-3.0536,-2.7433,-2.4425,-2.231,0.0,0.0,0.0,0.0,0.0,0.0,0.0,0.0,0.0,0.0,0.0,0.0,0.0,0.0,0.0,0.0,0.0,0.0,0.0,0.0,0.0,0.0,0.0,0.0,0.0,0.0,0.0,0.0,0.0,0.0,0.0,0.0,0.0,0.0,0.0,0.0,0.0,0.0,0.0,-2.6749,-2.8673,-3.0032,-3.0294,-2.9988,0.0,0.0,0.0,0.0,0.0,0.0,0.0,0.0,0.0,-4.2682,-4.3732,-4.5521,-4.819,-4.9944,-5.1041,-5.154,-5.3353,-5.4434,-5.478,-5.528,-5.5722,-5.6088,-5.6472,-5.4876,-5.1779,-4.9029,-4.5893,-4.2662,0.0,0.0,0.0,0.0,-4.1778,-4.271,0.0,0.0,0.0,0.0,0.0,0.0,0.0,0.0,0.0,0.0,0.0,0.0,-1.5291,-1.7475,-1.8759,-1.8437,-1.9087,-1.9239,-1.8533,-1.8235,-1.8009,-1.7819,-1.7534,-1.7728,-1.854,-1.8721,-2.2018,-2.8596,-3.054,-3.187,-3.2532,-3.2546,-3.3572,-3.5431,-3.4248,-3.1579,-2.7789,-2.5078,-2.3176,0.0,0.0,0.0,0.0,0.0,0.0,0.0,0.0,0.0,0.0,0.0,0.0,0.0,0.0,0.0,0.0,0.0,0.0,0.0,0.0,0.0,0.0,0.0,0.0,0.0,0.0,0.0,0.0,0.0,0.0,0.0,0.0,0.0,0.0,0.0,0.0,0.0,0.0,-2.9474,-3.0854,-3.2145,-3.3249,-3.3259,0.0,0.0,0.0,0.0,0.0,0.0,-4.0404,-4.2921,-4.5487,-4.8009,-4.9168,-5.0867,-5.3183,-5.4068,-5.4838,-5.5491,-5.6742,-5.7434,-5.7646,-5.8319,-5.8723,-5.8934,-5.8934,-5.8454,-5.7338,-5.353,-5.0356,-4.7721,-4.6259,-4.5297,-4.5024,-4.702,-4.7921,-4.8571,0.0,0.0,0.0,0.0,0.0,0.0,0.0,0.0,0.0,0.0,0.0,-1.5449,-1.7505,-1.8439,-1.9642,-2.1513,-2.1086,-2.1011,0.0,-1.9553,-1.8739,-1.9713,-1.8672,-1.8913,-2.0783,-2.4917,-2.8406,-3.1275,-3.1449,-3.2808,-3.5294,-3.5324,-3.537,-3.5431,-3.4577,-3.3501,-3.2224,-2.8809,-2.6557,-2.5076,0.0,0.0,0.0,0.0,0.0,0.0,0.0,0.0,0.0,0.0,0.0,0.0,0.0,0.0,0.0,0.0,0.0,0.0,0.0,0.0,0.0,0.0,0.0,0.0,0.0,0.0,0.0,0.0,0.0,0.0,0.0,0.0,0.0,0.0,0.0,0.0,0.0,0.0,0.0,-3.5816,-3.7674,0.0,0.0,0.0,0.0,-3.9337,-4.1768,-4.3891,-4.5452,-4.8248,-5.0603,-5.2322,-5.4284,-5.5761,-5.6722,-5.7607,-5.8069,-5.8107,-5.8184,-5.8627,-5.9377,-5.9415,-5.9896,-6.0666,-6.0666,-6.0185,-5.9165,-5.653,-5.4895,-5.3953,-5.3049,-5.2743,-5.282,-5.2955,-5.3686,-5.4663,0.0,0.0,0.0,0.0,0.0,-1.1579,-1.149,-1.2138,-1.2834,-1.3407,-1.4988,-1.6701,-1.8352,-2.0214,-2.1662,-2.2465,-2.2582,-2.2734,-2.3043,-2.0988,-2.0541,-2.2226,-2.1322,-2.141,-2.2656,-2.7567,-3.0591,-3.1524,-3.3201,-3.456,-3.5505,-3.5498,-3.5525,-3.5525,-3.5217,-3.4598,-3.3728,-3.1192,-2.9116,-2.732,-2.4866,-2.2562,0.0,0.0,0.0,0.0,0.0,0.0,0.0,0.0,0.0,0.0,0.0,0.0,0.0,0.0,0.0,0.0,0.0,0.0,0.0,0.0,0.0,0.0,0.0,0.0,0.0,0.0,0.0,0.0,0.0,0.0,0.0,0.0,0.0,0.0,0.0,0.0,0.0,-3.9883,-4.1663,0.0,0.0,-4.2677,-4.4029,-4.4829,-4.79,-4.9997,-5.0569,-5.313,-5.4863,-5.5458,-5.6717,-5.7761,-5.8588,-5.8915,-5.9358,-5.9915,-5.9915,-6.005,-6.0339,-6.0339,-6.0512,-6.08,-6.08,-6.0666,-6.0377,-5.9492,-5.7976,-5.6205,-5.5898,-5.5553,-5.5285,-5.5943,-5.6406,-5.6882,0.0,0.0,0.0,0.0,-1.1659,-1.1725,-1.149,-1.2422,-1.3386,-1.4065,-1.6087,-1.8129,-1.9958,-2.1845,-2.331,-2.4095,-2.4219,-2.4291,-2.4352,-2.2629,-2.2103,-2.3238,-2.2673,-2.2702,-2.3603,-2.7062,-3.0167,-3.2841,-3.4604,-3.5498,-3.5477,-3.5479,-3.5504,-3.5504,-3.5504,-3.525,-3.4741,-3.344,-3.1599,-2.9415,-2.7425,-2.557,-2.3789,0.0,0.0,0.0,0.0,0.0,0.0,0.0,0.0,0.0,0.0,0.0,0.0,0.0,0.0,0.0,0.0,0.0,0.0,0.0,0.0,0.0,0.0,0.0,0.0,0.0,0.0,0.0,0.0,0.0,0.0,0.0,0.0,0.0,0.0,0.0,-4.1491,-4.2896,-4.5109,-4.6111,-4.5019,-4.7245,-4.8982,-4.9539,-5.2621,-5.4472,-5.4472,-5.6607,-5.7838,-5.7838,-5.8684,-5.9396,-5.9935,-5.9935,-6.0223,-6.08,-6.08,-6.08,-6.08,-6.0839,-6.0858,-6.0858,-6.0935,-6.1012,-6.1093,-6.1097,-6.0131,-5.8655,-5.8607,-5.8336,-5.8053,-5.8736,-5.9007,-5.9137,0.0,0.0,0.0,-1.1805,-1.1805,-1.1805,-1.1805,-1.2942,-1.4274,-1.5604,-1.749,-1.9735,-2.2424,-2.3198,-2.4384,-2.6449,-2.5935,-2.5508,-2.5627,-2.4343,-2.3325,-2.2757,-2.2542,-2.2842,-2.3708,-2.3728,-2.7577,-3.5516,-3.5516,-3.5477,-3.5504,-3.5504,-3.5504,-3.5504,-3.5504,-3.5504,-3.5504,-3.5504,-3.4008,-3.1437,-2.9535,-2.8727,-2.8233,0.0,0.0,0.0,0.0,0.0,0.0,0.0,0.0,0.0,0.0,0.0,0.0,0.0,0.0,0.0,0.0,0.0,0.0,0.0,0.0,0.0,0.0,0.0,0.0,0.0,0.0,0.0,0.0,0.0,0.0,0.0,0.0,0.0,-3.8681,-4.1556,-4.398,-4.48,-4.8057,-4.9629,-4.8111,-5.1216,-5.3337,-5.3356,-5.5665,-5.7069,-5.7069,-5.8646,-5.955,-5.955,-6.0358,-6.08,-6.08,-6.08,-6.08,-6.08,-6.08,-6.08,-6.08,-6.0935,-6.1016,-6.102,-6.1212,-6.1308,-6.1312,-6.1302,-6.1394,-6.1485,-6.1356,-6.1394,-6.1505,-6.1505,-6.159,-6.1699,0.0,0.0,-1.2024,-1.1833,-1.1961,-1.2024,-1.1826,-1.2942,-1.4109,-1.4947,-1.7236,-1.9792,-2.2387,-2.3683,-2.5185,-2.7136,-2.5839,-2.5331,-2.6255,-2.3746,-2.2542,-2.3314,-2.5154,-2.6236,-2.6484,-2.6507,-2.9426,-3.5516,-3.5473,-3.5494,-3.5504,-3.5504,-3.5504,-3.5504,-3.5504,-3.5504,-3.5504,-3.5504,-3.5085,-3.4277,-3.2766,-3.127,-2.9759,0.0,0.0,0.0,0.0,0.0,0.0,0.0,0.0,0.0,0.0,0.0,0.0,0.0,0.0,0.0,0.0,0.0,0.0,0.0,0.0,0.0,0.0,0.0,0.0,0.0,0.0,0.0,0.0,0.0,0.0,0.0,0.0,-4.1648,-4.1551,-4.5129,-4.8083,-4.8947,-5.1559,-5.3349,-5.3484,-5.4989,-5.6222,-5.6857,-5.8088,-5.88,-5.88,-5.9838,-6.0435,-6.0435,-6.0685,-6.08,-6.08,-6.08,-6.08,-6.08,-6.0896,-6.0935,-6.0935,-6.1131,-6.1214,-6.1221,-6.1279,-6.1348,-6.1462,-6.1462,-6.1516,-6.1636,-6.1501,-6.1541,-6.1648,-6.1648,-6.1674,-6.1699,0.0,-1.182,-1.2149,-1.1982,-1.2102,-1.2164,-1.1982,-1.3013,-1.4139,-1.5081,-1.7541,-2.0097,-2.2458,-2.3896,-2.5206,-2.6662,-2.5982,-2.5461,-2.536,-2.3836,-2.3727,-2.5624,-2.691,-2.8123,-2.9213,-3.0305,-3.243,-3.5507,-3.5494,-3.5504,-3.5504,-3.5504,-3.5504,-3.5504,-3.5504,-3.5504,-3.5504,-3.5504,-3.5504,-3.5429,-3.4984,-3.3895,-3.2451,-3.0894,-3.0377,-3.0226,-2.8614,-2.8666,-2.9365,-2.8172,0.0,0.0,0.0,0.0,0.0,0.0,0.0,0.0,0.0,0.0,0.0,0.0,0.0,0.0,0.0,0.0,0.0,0.0,0.0,0.0,0.0,0.0,0.0,0.0,-4.291,-4.563,-4.5994,-4.8587,-5.1029,-5.2606,-5.4414,-5.5857,-5.6703,-5.755,-5.8261,-5.8761,-5.9569,-6.0031,-6.0031,-6.0512,-6.08,-6.08,-6.08,-6.08,-6.08,-6.0858,-6.0877,-6.0877,-6.1031,-6.1128,-6.1118,-6.1302,-6.1385,0.0,-6.1442,-6.151,-6.1575,-6.1579,-6.1621,0.0,0.0,0.0,0.0,0.0,-6.1699,-6.1699,0.0,-1.1632,-1.2246,-1.2205,-1.2251,-1.2302,-1.2298,-1.3175,-1.433,-1.5724,-1.8137,-2.0423,-2.2394,-2.3804,-2.4821,-2.545,-2.6093,-2.5749,0.0,0.0,-2.6183,-2.8682,-2.8312,-2.9276,-3.186,-3.4262,-3.5492,-3.5504,-3.5504,-3.5504,-3.5504,-3.5504,-3.5504,-3.5504,-3.5679,-3.5729,-3.5619,-3.5733,-3.5748,-3.5668,-3.6461,-3.629,-3.5461,-3.3816,-3.384,-3.4547,-3.2629,-3.2026,-3.1952,-3.114,0.0,0.0,0.0,0.0,0.0,0.0,0.0,0.0,0.0,0.0,0.0,0.0,0.0,0.0,0.0,0.0,0.0,0.0,0.0,0.0,0.0,0.0,0.0,0.0,-4.6801,-4.9913,-5.0971,-5.1818,-5.3183,-5.5434,-5.6549,-5.7492,-5.8357,-5.9165,-5.9646,-5.9646,-6.0358,-6.08,-6.08,0.0,0.0,0.0,0.0,-6.0819,-6.0858,-6.105,-6.1174,-6.1183,-6.1462,-6.1621,-6.1616,-6.1755,-6.1811,-6.1833,-6.1933,-6.1992,-6.199,-6.188,-6.179,-6.1699,-6.1699,-6.1699,-6.1699,-6.1699,-6.1699,-6.1699,0.0,-1.2102,-1.2455,-1.2231,-1.2549,-1.2877,-1.2997,-1.3636,-1.4699,-1.6308,-1.8388,-2.0243,-2.1724,-2.352,-2.4627,-2.4761,-2.542,-2.5854,0.0,0.0,-2.842,-2.9814,-3.0426,-3.2014,-3.4676,-3.5244,-3.5509,-3.5504,-3.5504,-3.5504,-3.5504,-3.5504,-3.5504,-3.5584,-3.6783,-3.7018,-3.6446,-3.7055,-3.6995,-3.6446,-3.7279,-3.71,-3.6384,-3.609,-3.648,-3.6918,-3.5416,-3.5985,-3.728,-3.5943,-3.4472,-3.3051,-3.2171,0.0,0.0,0.0,0.0,0.0,0.0,0.0,0.0,0.0,0.0,0.0,0.0,0.0,0.0,0.0,0.0,0.0,0.0,0.0,0.0,-4.6216,-4.8815,-5.1221,-5.3453,-5.4453,-5.5145,-5.5645,-5.7088,-5.8377,-5.9184,-6.0031,-6.055,-6.055,-6.0704,-6.08,-6.08,-6.08,0.0,-6.0954,-6.0954,-6.1031,-6.1208,-6.1944,-6.2277,-6.2308,0.0,0.0,-6.3552,-6.3692,-6.3755,-6.3759,-6.3786,-6.3808,-6.373,-6.3048,-6.2332,-6.1699,-6.1699,-6.1699,-6.1699,-6.1699,-6.1699,-6.1699,-1.2075,-1.2416,-1.2553,-1.2416,-1.2722,-1.3095,-1.3346,-1.3852,-1.4796,-1.6488,-1.8179,-1.9705,-2.1051,-2.2383,-2.3161,-2.3161,-2.3759,0.0,0.0,-2.7859,-2.9445,-3.1287,-3.2092,-3.3425,-3.5443,-3.5494,-3.5504,-3.5504,-3.5504,-3.5504,-3.5504,-3.5504,-3.5918,-3.6674,-3.7157,-3.7353,-3.7219,-3.7632,-3.7573,-3.7263,-3.8019,-3.8117,-3.7783,-3.7825,-3.8041,-3.8282,-3.8002,-3.8387,-3.8886,-3.8142,-3.6891,-3.5504,-3.4742,-3.2644,-3.0125,0.0,0.0,0.0,0.0,0.0,0.0,0.0,0.0,0.0,0.0,0.0,0.0,0.0,0.0,-3.9844,0.0,0.0,-4.6877,-4.939,-5.1373,-5.3183,-5.4857,-5.5818,-5.6511,-5.6953,-5.8127,-5.9223,-6.0069,-6.0531,-6.08,-6.08,-6.0858,-6.0896,-6.0896,-6.0993,-6.1093,-6.1151,-6.1582,-6.1847,-6.1944,-6.2871,-6.3355,-6.3356,-6.3942,-6.4193,-6.4204,-6.4275,-6.4297,-6.4297,-6.4297,-6.4297,-6.4277,-6.3828,-6.3398,-6.3008,-6.3008,-6.2461,-6.1699,-6.1699,-6.1699,-6.1699,-1.2539,-1.2668,-1.2668,-1.2668,-1.2906,-1.3275,-1.3794,-1.4113,-1.4908,-1.6667,-1.7945,-1.9156,-2.0272,-2.118,-2.1739,0.0,0.0,0.0,0.0,-2.8278,-3.0208,-3.2467,-3.3386,-3.4416,-3.5489,-3.5504,-3.5504,-3.5504,-3.5529,-3.5529,-3.5504,-3.6107,-3.6846,-3.7621,-3.7584,-3.778,-3.8035,-3.8206,-3.8149,-3.8092,-3.8816,-3.9032,-3.8908,-3.9086,-3.9139,-3.9209,-3.985,-3.9512,-3.8802,-3.8937,-3.8085,-3.6854,-3.6361,-3.515,-3.3488,-3.1306,-3.0889,0.0,0.0,0.0,0.0,0.0,0.0,0.0,0.0,0.0,-3.7368,-3.9928,-4.1818,-4.3899,-4.6777,-4.8605,-5.026,-5.2106,-5.3703,-5.5011,-5.5838,-5.6838,-5.7761,-5.8492,-5.9127,-5.9858,-6.0742,-6.0839,-6.0858,-6.0877,-6.0993,-6.1062,-6.1074,-6.121,-6.1379,-6.1574,-6.2271,-6.2724,-6.2932,-6.3899,-6.4386,-6.4386,-6.4665,-6.4805,-6.4805,-6.4805,-6.4805,-6.4805,-6.4805,-6.4707,-6.4551,-6.4551,-6.4453,-6.4297,-6.4297,-6.3437,-6.2187,-6.2012,-6.1855,-6.1699,0.0,-1.2977,-1.2977,-1.2977,-1.3173,-1.3712,-1.4767,-1.4722,-1.532,-1.7393,-1.8282,-1.885,-1.9323,-2.0744,-2.1934,-2.2559,0.0,0.0,-2.732,-2.9819,-3.1632,-3.2733,-3.4375,-3.532,-3.5504,-3.5504,-3.5504,-3.5504,-3.5518,-3.5533,-3.5584,-3.8286,-3.8679,-3.7171,-3.8975,-3.9386,-3.8799,-3.9558,-3.9437,-3.8854,-3.9662,-3.9558,-3.8962,-3.9662,-3.9969,-3.9952,-4.007,-3.9191,-3.8125,-3.8768,-3.8316,-3.7603,-3.8174,-3.7656,-3.6593,-3.5214,0.0,-3.1753,-3.1111,-3.1689,-3.3123,-3.5838,-3.5904,-3.7077,0.0,0.0,-4.2852,-4.632,-4.7241,-4.799,-4.9875,-5.0414,-5.1356,-5.3818,-5.4972,-5.5857,-5.6722,-5.8223,-5.9319,-5.9611,-5.955,-5.9896,-6.0877,-6.0973,-6.1031,-6.1228,-6.1266,-6.1272,-6.1272,-6.1285,-6.1701,-6.2602,-6.2725,-6.32,-6.4098,-6.4992,-6.5439,-6.5439,-6.6229,-6.6601,-6.6601,-6.6601,-6.6601,-6.6601,-6.6601,-6.6172,-6.5449,-6.5449,-6.5,-6.4297,-6.4297,-6.418,-6.3926,-6.3144,-6.2363,-6.1699,0.0,-1.3226,-1.3226,-1.3226,-1.3329,-1.3782,-1.4924,-1.4989,-1.5588,-1.7529,-1.804,-1.83,-1.8577,-1.9664,-2.0447,-2.0649,0.0,0.0,-2.6366,-2.9917,-3.2249,-3.2792,-3.4509,-3.5484,-3.547,-3.5469,-3.551,-3.5507,-3.7326,-3.8196,-3.8178,-3.8868,-3.9088,-3.8796,-3.921,-3.9478,-3.961,-3.9952,-3.9901,-3.961,-3.9952,-3.9901,-3.961,-3.9952,-4.0031,-3.9846,-3.9576,-3.8928,0.0,0.0,-3.8382,-3.8064,-3.8877,-3.8111,-3.6808,-3.6281,-3.5675,0.0,-3.6714,-3.7081,0.0,0.0,-4.0486,-4.1971,-4.5167,-4.5515,-4.5841,-4.8337,-4.926,-5.0125,-5.1837,-5.2568,-5.3568,0.0,-5.6242,-5.6973,-5.8418,-5.88,-5.9184,-5.9838,-5.9843,-6.0169,-6.1077,-6.1157,-6.1203,-6.1281,-6.1366,-6.1437,-6.1408,-6.1968,-6.2486,-6.2893,-6.3906,-6.4639,-6.5058,-6.5918,-6.6367,-6.6367,-6.6738,-6.6894,-6.6894,-6.6894,-6.6894,-6.6894,-6.6894,-6.6699,-6.6367,-6.6367,-6.6133,-6.5801,-6.5801,-6.5508,-6.4941,-6.4082,-6.3203,-6.2461,0.0,-1.3396,-1.3396,-1.3396,-1.3583,-1.4035,-1.508,-1.5159,-1.5758,-1.7546,-1.7797,-1.8023,-1.8624,-1.9186,-1.9577,-1.9684,-2.2873,-2.5147,0.0,-2.9524,-3.2081,-3.2987,-3.4576,-3.5507,-3.5536,-3.6306,-3.6322,-3.5493,-3.8558,-4.0118,-4.0066,-3.938,-3.9292,-3.9736,-3.9375,-3.9542,-4.007,-4.007,-4.007,-4.007,-4.007,-4.007,-4.0104,-4.0016,-3.959,-3.8991,-3.8645,-3.8042,-3.7384,-3.6984,-3.6983,-3.723,-3.7836,-3.747,-3.6946,-3.738,-3.7862,-3.8556,-3.9902,0.0,0.0,-4.2126,-4.4061,-4.5884,-4.6258,-4.7012,-4.8009,-4.9452,-5.026,-5.1144,-5.2587,-5.3549,0.0,-5.6436,-5.711,-5.7973,-5.9611,-5.9318,-5.9203,-5.9954,-5.9841,-6.0048,-6.0962,-6.1252,-6.1363,-6.1411,-6.1492,-6.1668,-6.1901,-6.259,-6.3223,-6.3691,-6.4941,-6.5723,-6.5957,-6.6582,-6.6894,-6.6894,-6.6894,-6.6894,-6.6894,-6.6894,-6.6894,-6.6894,-6.6894,-6.6894,-6.6894,-6.6894,-6.6894,-6.6894,-6.6894,-6.6504,-6.5879,-6.5254,-6.4316,-6.3359,0.0,0.0,-1.3396,-1.3396,-1.3988,-1.4714,-1.5457,-1.53,-1.5752,-1.7575,-1.7804,-1.8314,-1.97,-1.9875,-2.0177,-2.0879,-2.2908,-2.4722,-2.6086,-2.8541,-3.1008,-3.3366,-3.477,-3.5493,-3.5509,-3.8444,-3.8492,-3.5493,-3.859,-4.0117,-4.0123,-4.0093,-3.9627,-3.8995,-3.9731,-4.007,-4.007,-4.007,-4.007,-4.007,-4.007,-4.007,-4.0086,-3.9817,-3.8732,-3.7352,-3.7352,-3.6244,-3.4552,-3.295,-3.3341,-3.4506,-3.4474,-3.5836,0.0,-3.935,-4.0011,0.0,0.0,0.0,-4.3302,-4.3721,-4.5693,-4.784,-4.9009,-4.9298,-4.9586,-5.0471,-5.0664,-5.0952,-5.1798,-5.2664,-5.3858,-5.5747,-5.7382,-5.8825,-5.9845,-5.9982,-6.0002,-6.0153,-5.945,-5.9335,0.0,-6.1074,-6.1552,-6.1676,-6.1698,-6.207,-6.2909,-6.2988,-6.3769,-6.5469,-6.5566,-6.6015,-6.6855,-6.6894,-6.6894,-6.6894,-6.6894,-6.6894,-6.6894,-6.6894,-6.6894,-6.6894,-6.6894,-6.6894,-6.6894,-6.6894,-6.6894,-6.6894,-6.6894,-6.6875,-6.6855,-6.6836,-6.5723,-6.4258,0.0,0.0,0.0,-1.4141,-1.4749,-1.5477,-1.6224,-1.6244,-1.6555,-1.7653,-1.8038,0.0,0.0,0.0,0.0,0.0,0.0,0.0,-2.502,-2.7982,-3.043,-3.2085,-3.4308,-3.6454,-3.8496,-3.9604,-3.9588,-3.8573,-3.9591,-4.0117,-4.011,-4.0087,-3.9952,-3.9731,-3.9952,-4.007,-4.007,-4.007,-4.007,-4.0037,-3.9546,-3.936,-3.9425,-3.964,-3.8347,-3.6295,0.0,-3.4178,-3.2706,-3.2188,-3.218,-3.2593,-3.3651,0.0,0.0,-3.7072,-3.8627,-3.9989,0.0,0.0,-4.4931,-4.6759,-4.8001,-4.9047,-5.0029,-5.026,-5.0183,-4.9894,-5.0298,-5.0606,-5.0298,-5.1471,-5.3242,-5.5631,-5.6996,-5.8535,-6.0699,-6.0496,-5.9976,-5.9588,-5.9758,0.0,0.0,0.0,0.0,-6.164,-6.1699,-6.207,-6.2949,-6.3555,-6.4394,-6.5566,-6.6152,-6.6601,-6.6894,-6.6894,-6.6894,-6.6894,-6.6894,-6.6894,-6.6894,-6.6894,-6.6894,-6.6894,-6.6894,-6.6894,-6.6894,-6.6894,-6.6894,-6.6894,-6.6894,-6.6894,-6.6894,-6.6894,-6.6523,-6.5937,0.0,0.0,0.0,0.0,0.0,0.0,0.0,0.0,0.0,0.0,0.0,0.0,0.0,0.0,0.0,0.0,0.0,0.0,0.0,0.0,-2.9403,-3.1312,-3.3055,-3.5361,-3.8441,-3.6373,-3.634,-3.8481,-3.8171,-3.8372,-3.904,-3.9225,-3.9445,-3.9698,-3.9698,-3.9834,-4.0054,-3.98,-3.9814,-3.989,-3.8836,-3.835,-3.8253,-3.8255,-3.6667,0.0,0.0,-3.1583,-3.042,-3.0106,-3.0443,-3.1201,0.0,0.0,-3.5703,-3.7306,-3.9451,-4.182,0.0,-4.5452,-4.6623,-4.8594,-4.9468,-5.001,-5.0567,-5.0452,-5.0067,-4.951,-4.9375,-4.926,-4.9048,-4.9971,-5.1722,-5.4726,-5.6242,-5.7989,-6.072,-6.0623,-6.0119,-5.9677,-5.9828,0.0,0.0,0.0,0.0,-6.1621,-6.1992,-6.2539,-6.3418,-6.4297,-6.5156,-6.6035,-6.6601,-6.6894,-6.6894,-6.6894,-6.6894,-6.6894,-6.6894,-6.6894,-6.6894,-6.6894,-6.6894,-6.6894,-6.6894,-6.6894,-6.6894,-6.6894,-6.6894,-6.6894,-6.6894,-6.6894,-6.6894,-6.6894,-6.6852,-6.6711,0.0,0.0,0.0,0.0,0.0,0.0,0.0,0.0,0.0,0.0,0.0,0.0,0.0,0.0,0.0,0.0,0.0,0.0,0.0,0.0,0.0,-3.0622,-3.0895,-3.2195,-3.4846,-2.9502,-2.9459,-3.5127,-3.4427,-3.5036,-3.6922,-3.7452,-3.8058,-3.8751,-3.88,-3.9223,-3.985,-3.9205,-3.9119,-3.9385,-3.7871,-3.7091,-3.6723,-3.5735,0.0,0.0,0.0,0.0,0.0,0.0,0.0,0.0,0.0,0.0,0.0,0.0,0.0,-4.508,-4.5254,-4.6741,-4.8432,-4.9317,-5.0144,-5.0741,-5.0644,-4.999,-4.9356,-4.9221,-4.7952,-4.7086,0.0,0.0,-4.9432,-5.3013,-5.5171,-5.7327,-6.0012,-6.0449,-6.0449,0.0,0.0,0.0,0.0,0.0,0.0,-6.1699,0.0,-6.3379,-6.4258,-6.5137,-6.5996,-6.6875,-6.6894,-6.6894,-6.6894,-6.6894,-6.6894,-6.6894,-6.6894,-6.6894,-6.6894,-6.6894,-6.6894,-6.6894,-6.6894,-6.6894,-6.6894,-6.6894,-6.6894,-6.6872,-6.6872,-6.6873,-6.6874,-6.6874,-6.6749,-6.6588,0.0,0.0,0.0,0.0,0.0,0.0,0.0,0.0,0.0,0.0,0.0,0.0,0.0,0.0,0.0,0.0,0.0,0.0,0.0,0.0,0.0,0.0,0.0,-2.7168,-2.5705,-2.6341,-2.7429,0.0,-3.0974,-3.2754,-3.4361,-3.4462,-3.4945,-3.5684,-3.6002,-3.6586,-3.7274,-3.7436,-3.7225,-3.6694,0.0,-3.4914,-3.4322,0.0,0.0,0.0,0.0,0.0,0.0,0.0,0.0,0.0,0.0,0.0,-3.9384,0.0,0.0,-4.4801,-4.7568,-4.9144,-5.0221,-5.1068,-5.1433,-5.1279,-5.001,-4.9548,-4.8856,-4.6951,-4.6299,-4.555,0.0,0.0,0.0,-5.0603,-5.4108,0.0,-6.0038,-6.0957,0.0,0.0,0.0,-6.0898,-6.0449,-6.0996,0.0,0.0,-6.2871,-6.3379,-6.4258,-6.5137,-6.5996,-6.6875,-6.6894,-6.6894,-6.6894,-6.6894,-6.6894,-6.6894,-6.6894,-6.6894,-6.6894,-6.6894,-6.6894,-6.6894,-6.6894,-6.6894,-6.6894,-6.6894,-6.681,-6.669,-6.669,-6.6621,-6.6537,-6.6537,-6.6509,-6.6428,0.0,0.0,0.0,0.0,0.0,0.0,0.0,0.0,0.0,0.0,0.0,0.0,0.0,0.0,0.0,0.0,0.0,0.0,0.0,0.0,0.0,0.0,-2.3875,-2.4594,-2.4236,-2.6505,-2.7198,0.0,0.0,0.0,-3.1857,-3.1705,-3.2115,-3.2956,-3.311,-3.3813,-3.4975,-3.4911,0.0,0.0,0.0,0.0,0.0,0.0,0.0,0.0,0.0,0.0,0.0,0.0,0.0,-3.7515,-3.9115,-4.0703,-4.2383,-4.446,0.0,-4.7414,-4.9836,-5.1125,-5.1818,-5.1895,-5.1645,-5.0837,-4.8779,-4.776,-4.6511,-4.3936,-4.3208,0.0,0.0,0.0,0.0,0.0,0.0,0.0,-5.9453,-6.0937,-6.1523,0.0,-6.1406,0.0,-6.1015,-6.1406,-6.2051,0.0,-6.3359,-6.3945,-6.4824,-6.5703,-6.6387,-6.6875,-6.6894,-6.6894,-6.6894,-6.6894,-6.6894,-6.6894,-6.6894,-6.6894,-6.6894,-6.6803,-6.6817,-6.6894,0.0,-6.6705,-6.6769,-6.67,-6.6602,-6.6515,-6.6502,-6.6483,-6.6397,-6.6397,-6.6339,-6.6245,0.0,0.0,0.0,0.0,0.0,0.0,0.0,0.0,0.0,0.0,-2.1111,0.0,0.0,0.0,0.0,0.0,0.0,0.0,0.0,0.0,0.0,0.0,-2.2534,-2.3742,-2.6302,0.0,0.0,0.0,0.0,0.0,0.0,0.0,0.0,0.0,0.0,0.0,0.0,0.0,0.0,0.0,0.0,0.0,0.0,0.0,0.0,0.0,0.0,0.0,0.0,0.0,-3.8309,-4.0421,-4.2444,-4.4726,-4.687,-4.8087,-4.951,-5.0933,-5.1972,-5.2799,-5.3164,-5.2299,-5.1452,-5.0144,-4.7356,-4.5494,-4.3555,-4.0841,0.0,-3.8961,-3.8204,0.0,-4.3305,-4.685,0.0,-5.5098,-5.8691,-6.0547,-6.1562,-6.1699,-6.1699,-6.1699,-6.1699,-6.1699,-6.2109,-6.3105,-6.3867,-6.4687,-6.5547,-6.6426,-6.6894,-6.6894,-6.6894,-6.6894,-6.6894,-6.6894,-6.6894,-6.6894,-6.6867,-6.6856,-6.6852,-6.6646,-6.6675,-6.6813,0.0,0.0,-6.6569,-6.6452,-6.6378,-6.6353,-6.6367,-6.6365,-6.6346,-6.6346,-6.623,-6.607,0.0,0.0,0.0,0.0,0.0,0.0,0.0,0.0,0.0,0.0,-2.2201,-2.2121,0.0,0.0,0.0,0.0,0.0,0.0,0.0,0.0,0.0,0.0,-2.3863,-2.4122,0.0,0.0,0.0,0.0,0.0,0.0,0.0,0.0,0.0,0.0,0.0,0.0,0.0,0.0,0.0,0.0,0.0,0.0,0.0,0.0,0.0,0.0,0.0,0.0,0.0,0.0,-4.0575,-4.4217,-4.4882,-4.6339,-4.8126,-4.9779,-5.0452,-5.1183,-5.3433,-5.4164,-5.4068,-5.3203,-5.2337,-5.0682,-4.6781,-4.4631,0.0,0.0,0.0,-3.7269,-3.6476,-3.9099,0.0,-4.5976,0.0,0.0,0.0,0.0,-6.0898,0.0,0.0,0.0,0.0,0.0,0.0,0.0,0.0,0.0,-6.5547,-6.6426,-6.6894,-6.6894,-6.6894,-6.6894,-6.6894,-6.6894,-6.6894,-6.6894,-6.6728,-6.6668,-6.6648,-6.6486,-6.645,-6.6474,-6.6446,0.0,-6.6423,-6.641,-6.6298,-6.6164,-6.614,-6.607,-6.5974,-6.5974,-6.5955,-6.5917,0.0,0.0,0.0,0.0,0.0,0.0,0.0,-2.0819,-2.162,-2.285,-2.3482,-2.3707,-2.3447,-2.3739,-2.4016,0.0,0.0,0.0,0.0,0.0,0.0,0.0,0.0,0.0,0.0,0.0,0.0,0.0,0.0,0.0,0.0,0.0,0.0,0.0,0.0,0.0,0.0,0.0,0.0,0.0,0.0,0.0,0.0,0.0,0.0,0.0,0.0,0.0,0.0,0.0,-3.9599,-4.4307,-4.58,-4.7124,-4.8432,-5.0183,-5.0991,-5.1798,-5.3914,-5.4799,-5.4838,-5.3626,-5.2298,-5.0124,-4.5553,0.0,0.0,0.0,0.0,-3.4936,-3.4124,0.0,0.0,0.0,0.0,0.0,0.0,0.0,0.0,0.0,0.0,0.0,0.0,0.0,0.0,0.0,0.0,0.0,-6.6211,-6.668,-6.6848,-6.6757,-6.6744,-6.6699,-6.6649,-6.6629,-6.6629,-6.6649,-6.6543,-6.6492,-6.6481,-6.6318,-6.6295,-6.6384,-6.6221,0.0,-6.625,-6.6167,-6.607,-6.5994,-6.5994,-6.5955,-6.5897,-6.5897,-6.5897,-6.5897,0.0,0.0,0.0,0.0,0.0,0.0,0.0,-2.1388,-2.2409,-2.34,-2.4759,-2.5346,-2.4538,-2.4447,-2.4392,0.0,0.0,0.0,0.0,0.0,0.0,0.0,0.0,0.0,0.0,0.0,0.0,0.0,0.0,0.0,0.0,0.0,0.0,0.0,0.0,0.0,0.0,0.0,0.0,0.0,0.0,0.0,0.0,0.0,0.0,0.0,0.0,0.0,0.0,0.0,-3.743,-4.1912,-4.447,-4.6451,-4.8182,-4.9913,-5.0991,-5.2068,-5.3972,-5.4857,-5.4914,-5.3682,-5.1973,-4.9315,-4.4518,-4.134,0.0,0.0,-3.3083,-3.2734,-3.2285,0.0,0.0,0.0,0.0,0.0,0.0,0.0,0.0,0.0,0.0,0.0,0.0,0.0,0.0,0.0,0.0,0.0,-6.6751,-6.6848,-6.6749,-6.656,-6.6574,-6.6524,-6.6396,-6.6411,-6.6411,-6.6411,-6.6373,-6.6341,-6.6346,-6.6128,-6.6128,-6.6288,-6.6013,0.0,0.0,-6.5936,-6.5897,-6.5897,-6.5897,-6.5897,-6.5897,-6.5897,-6.5897,-6.5897,0.0,0.0,0.0,0.0,0.0,0.0,0.0,-2.2355,-2.3437,-2.498,-2.5933,-2.6172,-2.5384,-2.5293,-2.5017,0.0,0.0,0.0,0.0,0.0,0.0,0.0,0.0,0.0,0.0,0.0,0.0,0.0,0.0,0.0,0.0,0.0,0.0,0.0,0.0,0.0,0.0,0.0,0.0,0.0,0.0,0.0,0.0,0.0,0.0,0.0,0.0,0.0,0.0,0.0,0.0,-3.6642,-3.92,-4.3239,-4.7336,-4.9029,0.0,0.0,-5.3818,-5.4068,-5.3567,-5.3432,-5.1625,-4.8768,-4.4459,0.0,0.0,0.0,-3.2186,-3.1348,-3.207,-3.3691,0.0,0.0,0.0,0.0,0.0,0.0,0.0,0.0,0.0,0.0,0.0,0.0,0.0,0.0,0.0,0.0,0.0,-6.663,-6.6573,-6.6431,-6.6413,-6.6409,-6.6401,-6.6401,-6.6401,-6.6401,-6.6208,-6.6145,-6.6109,-6.5974,-6.5917,-6.5936,-6.5897,0.0,0.0,-6.5897,-6.5897,-6.5897,-6.5897,-6.5897,-6.5897,-6.5897,-6.5897,-6.5897,0.0,0.0,0.0,0.0,0.0,0.0,-2.1435,-2.2061,-2.285,-2.4465,-2.5805,-2.6282,-2.5495,-2.5823,-2.5603,-2.43,0.0,0.0,0.0,0.0,0.0,0.0,0.0,0.0,0.0,0.0,0.0,0.0,0.0,0.0,0.0,0.0,0.0,0.0,0.0,0.0,0.0,0.0,0.0,0.0,0.0,0.0,0.0,0.0,0.0,0.0,0.0,0.0,0.0,0.0,0.0,0.0,-3.5339,-3.83,0.0,0.0,-4.7854,-4.9817,-5.1837,-5.2932,-5.3296,-5.2312,-5.0587,-4.8037,-4.3801,0.0,-3.6902,-3.4001,-3.207,-3.1172,-3.2031,-3.2754,-3.4609,0.0,-4.0059,-4.2656,0.0,0.0,0.0,0.0,0.0,0.0,0.0,0.0,0.0,0.0,0.0,0.0,0.0,-6.6134,-6.6386,-6.6224,-6.6217,-6.6167,-6.609,-6.609,-6.609,-6.609,-6.6013,-6.5974,-6.5974,-6.5917,-6.5897,-6.5897,-6.5897,0.0,0.0,-6.5897,-6.5897,-6.5897,-6.5897,-6.5897,-6.5897,-6.5897,-6.5897,-6.5897,0.0,0.0,0.0,0.0,0.0,-1.8665,-2.138,-2.1987,-2.2721,-2.4337,-2.575,-2.6374,-2.5805,-2.6043,-2.5786,-2.4649,-2.4337,0.0,0.0,0.0,0.0,0.0,0.0,0.0,0.0,0.0,0.0,0.0,-2.6185,0.0,0.0,0.0,0.0,0.0,0.0,0.0,0.0,0.0,0.0,0.0,0.0,0.0,0.0,0.0,0.0,0.0,0.0,0.0,0.0,0.0,0.0,0.0,0.0,0.0,0.0,0.0,-4.5278,-4.7774,-4.9724,-5.1183,-5.1928,-5.1039,-4.9392,-4.7003,0.0,0.0,-3.6562,-3.3945,-3.207,-3.1094,-3.1699,-3.2226,-3.3633,-3.6914,-3.7756,-4.0057,-4.5958,0.0,0.0,0.0,0.0,0.0,0.0,0.0,0.0,0.0,0.0,0.0,0.0,-6.548,-6.5917,-6.6032,-6.6032,-6.5994,-6.5897,-6.5897,-6.5897,-6.5897,-6.5897,-6.5897,-6.5897,-6.5897,-6.5897,-6.5897,0.0,0.0,0.0,-6.5897,-6.5897,-6.5897,-6.5897,-6.5897,-6.5897,-6.5897,-6.5897,-6.5897,0.0,0.0,0.0,0.0,0.0,0.0,-2.1307,-2.2483,-2.3566,-2.5182,-2.6098,-2.6612,-2.6594,-2.5878,-2.5421,-2.5403,-2.4649,0.0,0.0,0.0,0.0,0.0,0.0,0.0,0.0,0.0,-2.5912,-2.7185,-2.6583,-2.7053,0.0,0.0,0.0,0.0,0.0,0.0,0.0,0.0,0.0,0.0,0.0,0.0,0.0,0.0,0.0,0.0,0.0,0.0,0.0,0.0,0.0,0.0,0.0,0.0,0.0,0.0,-4.2641,-4.52,-4.7816,-4.8638,-4.8932,-4.9714,-4.8105,-4.5644,0.0,-3.9746,-3.6562,-3.3945,-3.207,-3.0898,-3.0918,-3.2266,-3.3672,-3.459,-3.7528,-4.0893,-4.4335,0.0,0.0,0.0,0.0,0.0,0.0,0.0,0.0,0.0,0.0,0.0,0.0,-6.4609,-6.5013,-6.5859,-6.5897,-6.5897,-6.5897,-6.5897,-6.5897,-6.5897,-6.5897,-6.5897,-6.5897,-6.5897,-6.5897,0.0,0.0,0.0,0.0,-6.5897,-6.5897,-6.5897,-6.5897,-6.5897,-6.5897,-6.5897,-6.5897,-6.5897,0.0,0.0,0.0,0.0,0.0,0.0,0.0,-2.1126,-2.1896,-2.3547,-2.4465,-2.5162,-2.5713,-2.5688,-2.569,-2.5931,-2.4874,0.0,0.0,0.0,0.0,0.0,0.0,0.0,0.0,-2.6159,-2.749,-2.8299,-2.8843,-2.9264,-2.9569,-2.9036,0.0,0.0,0.0,0.0,0.0,0.0,0.0,0.0,0.0,0.0,0.0,0.0,0.0,0.0,0.0,0.0,0.0,0.0,0.0,0.0,0.0,0.0,0.0,0.0,0.0,0.0,-4.3297,-4.4812,-4.5806,-4.4325,-4.3372,-4.2129,-3.9512,-3.7168,-3.4961,-3.2988,-3.168,-3.087,-3.0787,-3.1208,-3.2792,-3.6547,-3.8054,0.0,0.0,0.0,0.0,0.0,0.0,0.0,0.0,0.0,0.0,0.0,0.0,0.0,0.0,-6.3416,-6.4378,-6.584,-6.5897,-6.5897,-6.5897,-6.5897,-6.5897,-6.5897,-6.5897,-6.5897,-6.5897,-6.5897,0.0,0.0,0.0,0.0,0.0,-6.5897,-6.5897,-6.5897,-6.5897,-6.5897,-6.5897,-6.5897,-6.5897,-6.5897,0.0,0.0,0.0,0.0,0.0,0.0,0.0,-2.0301,-2.0979,-2.2373,-2.2978,-2.3712,-2.4833,-2.4875,-2.5093,-2.5838,-2.4949,0.0,0.0,0.0,0.0,0.0,0.0,0.0,-2.4199,-2.5702,-2.7256,-2.8796,-2.9462,-3.0254,-3.1148,-3.0841,-2.9519,0.0,0.0,0.0,0.0,0.0,0.0,0.0,0.0,0.0,0.0,0.0,0.0,0.0,0.0,0.0,0.0,0.0,0.0,0.0,0.0,0.0,0.0,0.0,-3.3862,0.0,0.0,-4.1621,-4.2773,-4.1504,-4.0703,-3.9707,-3.7754,-3.5703,-3.3807,-3.2413,-3.1436,-3.0798,-3.0683,-3.1202,-3.2682,-3.5858,-3.7677,0.0,0.0,0.0,0.0,0.0,0.0,0.0,0.0,0.0,0.0,0.0,0.0,0.0,0.0,0.0,-6.3474,-6.4878,-6.4916,-6.507,-6.5416,-6.5416,-6.557,-6.5897,-6.5897,-6.5897,-6.5897,-6.5897,0.0,0.0,0.0,0.0,0.0,-6.5897,-6.5897,-6.5897,-6.5897,-6.5897,-6.5897,-6.5897,-6.5897,-6.5897,0.0,0.0,0.0,0.0,0.0,0.0,0.0,-1.9858,-2.0666,-2.1584,-2.1711,-2.2299,-2.3859,-2.3578,-2.3815,-2.5148,0.0,0.0,0.0,0.0,0.0,0.0,0.0,0.0,-2.4236,-2.4364,-2.586,-2.8796,-2.9,-3.04,-3.2891,-3.2199,-3.0871,-2.9063,-2.8313,0.0,0.0,0.0,0.0,0.0,0.0,0.0,0.0,0.0,0.0,0.0,0.0,0.0,0.0,0.0,0.0,0.0,0.0,0.0,0.0,0.0,0.0,0.0,0.0,0.0,0.0,0.0,-3.9394,-3.8008,-3.7129,-3.5058,0.0,-3.2095,-3.1261,-3.073,-3.0846,-3.2087,-3.3269,-3.3731,-3.6993,0.0,0.0,0.0,0.0,0.0,0.0,0.0,0.0,0.0,0.0,0.0,0.0,0.0,0.0,0.0,-6.2339,-6.3108,-6.3128,-6.357,-6.4493,-6.4512,-6.4916,-6.5724,-6.5724,-6.5743,-6.5801,-6.5801,0.0,0.0,0.0,0.0,0.0,-6.5897,-6.5897,-6.5897,-6.5897,-6.5897,-6.5897,-6.5897,-6.5897,-6.5897,0.0,0.0,0.0,0.0,0.0,0.0,0.0,0.0,0.0,0.0,-2.0813,-2.1198,-2.2244,-2.2928,-2.3417,0.0,0.0,0.0,0.0,0.0,0.0,0.0,0.0,0.0,-2.4642,-2.5925,-2.7312,-2.8796,-3.0906,-3.227,-3.291,-3.3391,-3.1987,-2.9083,-2.889,-2.7505,0.0,0.0,0.0,0.0,0.0,0.0,0.0,0.0,0.0,0.0,0.0,0.0,0.0,0.0,0.0,0.0,0.0,0.0,0.0,0.0,-2.7598,-2.8476,-3.1016,0.0,-3.4824,-3.4414,-3.4473,-3.4414,0.0,-3.284,-3.2087,-3.1187,0.0,0.0,-3.3087,-3.2723,-3.3801,0.0,0.0,0.0,0.0,0.0,0.0,0.0,0.0,0.0,0.0,0.0,0.0,0.0,0.0,0.0,0.0,0.0,-6.1185,-6.1377,-6.1396,-6.2108,-6.3589,-6.3608,-6.3724,-6.3916,-6.3916,-6.4262,-6.4916,-6.4916,0.0,0.0,0.0,0.0,-6.5897,-6.5897,-6.5897,-6.5897,-6.5897,-6.5897,-6.5897,-6.5897,-6.5897,-6.5897,0.0,0.0,0.0,0.0,0.0,0.0,0.0,0.0,0.0,0.0,0.0,-2.028,-2.1106,-2.2188,0.0,0.0,0.0,0.0,0.0,0.0,0.0,0.0,0.0,-2.4395,-2.4789,-2.662,-2.8165,-2.9388,-3.1301,-3.2864,-3.4103,-3.4584,-3.3199,-3.0217,-2.864,-2.6967,0.0,0.0,0.0,0.0,0.0,0.0,0.0,0.0,0.0,0.0,0.0,-2.6486,0.0,-2.757,-2.8463,-2.9375,0.0,0.0,0.0,0.0,-2.6406,-2.6699,-2.8047,-3.0859,-3.3398,-3.3359,-3.3672,-3.3864,-3.341,0.0,0.0,0.0,0.0,0.0,0.0,0.0,0.0,0.0,0.0,0.0,0.0,0.0,0.0,0.0,0.0,0.0,0.0,0.0,0.0,0.0,0.0,0.0,0.0,0.0,-6.08,-6.08,-6.08,-6.1435,-6.2743,-6.2743,-6.2935,-6.3301,-6.3301,-6.3551,-6.4012,-6.4012,-6.4262,0.0,0.0,0.0,-6.4705,-6.4705,-6.4705,-6.4705,-6.4705,-6.4705,-6.4705,-6.4705,-6.4705,-6.4705,0.0,0.0,0.0,0.0,0.0,0.0,0.0,0.0,0.0,0.0,0.0,0.0,0.0,0.0,0.0,0.0,0.0,0.0,0.0,0.0,0.0,0.0,-2.419,-2.4506,-2.5174,-2.6716,-2.8304,-2.9945,-3.1073,-3.2886,-3.5315,-3.5565,-3.4199,-3.1371,-2.8217,-2.6236,-2.5303,0.0,0.0,0.0,0.0,0.0,0.0,0.0,0.0,0.0,0.0,0.0,0.0,-2.7695,-2.8652,-2.9394,-2.8262,0.0,0.0,0.0,0.0,0.0,-2.709,-3.043,-3.3672,-3.4023,-3.4414,-3.4658,-3.4454,0.0,0.0,0.0,0.0,0.0,0.0,0.0,0.0,0.0,0.0,0.0,0.0,0.0,0.0,0.0,0.0,0.0,0.0,0.0,0.0,0.0,0.0,0.0,0.0,0.0,0.0,-6.08,-6.08,-6.1146,-6.1877,-6.1897,-6.2243,-6.2916,-6.2916,-6.2993,-6.3128,-6.3128,-6.3185,0.0,0.0,0.0,-6.3301,-6.3301,-6.3301,-6.3301,-6.3301,-6.3301,-6.3301,-6.3301,-6.3301,-6.3301,0.0,0.0,0.0,0.0,0.0,0.0,0.0,0.0,0.0,0.0,0.0,0.0,0.0,0.0,0.0,0.0,0.0,0.0,0.0,0.0,0.0,-2.4185,-2.4211,-2.5041,-2.6877,-2.6114,-2.6873,-2.9252,-3.1558,-3.3263,-3.443,-3.5853,-3.441,-3.0525,-2.8563,-2.6813,-2.5303,-2.5303,0.0,0.0,0.0,0.0,0.0,0.0,0.0,0.0,0.0,0.0,0.0,-2.6309,-2.7656,-2.9199,-2.6836,0.0,0.0,0.0,0.0,0.0,-2.8555,-3.1797,-3.4004,-3.1992,-3.3105,-3.4492,-3.3742,0.0,0.0,0.0,0.0,0.0,0.0,0.0,0.0,0.0,0.0,0.0,0.0,0.0,0.0,0.0,0.0,0.0,0.0,0.0,0.0,0.0,0.0,0.0,0.0,0.0,0.0,-6.08,-6.08,-6.0858,-6.0993,-6.0993,-6.105,-6.1185,-6.1185,-6.157,-6.2281,-6.2281,-6.2666,0.0,0.0,-6.3301,-6.3301,-6.3301,-6.3301,-6.3301,-6.3301,-6.3301,-6.3301,-6.3301,-6.3301,-6.3301,0.0,0.0,0.0,0.0,0.0,0.0,0.0,0.0,0.0,0.0,0.0,0.0,0.0,0.0,0.0,0.0,0.0,0.0,0.0,0.0,-2.4377,-2.4789,-2.4785,-2.507,-2.5617,-2.8122,-2.953,-2.9798,-3.284,-3.4968,-3.6238,-3.5622,-3.3583,-3.0321,-2.864,-2.6928,-2.5303,-2.5303,-2.537,0.0,0.0,0.0,0.0,0.0,0.0,0.0,0.0,0.0,0.0,0.0,-2.7519,-2.8613,-2.6934,0.0,0.0,0.0,0.0,0.0,-2.7168,-3.0019,-3.2578,-3.2324,-3.5208,-3.7858,-3.6966,0.0,0.0,0.0,0.0,0.0,0.0,0.0,0.0,0.0,0.0,0.0,0.0,0.0,0.0,0.0,0.0,0.0,0.0,0.0,0.0,0.0,0.0,0.0,0.0,0.0,0.0,0.0,-6.08,-6.08,-6.08,-6.08,-6.08,-6.08,-6.08,-6.1012,-6.1396,-6.1396,-6.1589,-6.1954,0.0,-6.1954,-6.1954,-6.1954,-6.1954,-6.1954,-6.1954,-6.1954,-6.1954,-6.1954,-6.1954,-6.1954,0.0,0.0,0.0,0.0,0.0,0.0,0.0,0.0,0.0,0.0,0.0,0.0,0.0,0.0,0.0,0.0,0.0,0.0,0.0,-2.4471,-2.4704,-2.5281,-2.6072,-2.5853,-2.4486,-3.001,-3.2461,-3.1591,-3.4211,-3.6372,-3.793,-3.5391,-3.2833,-3.0321,-2.864,-2.6928,-2.5303,-2.5303,-2.539,0.0,0.0,0.0,0.0,0.0,0.0,0.0,0.0,0.0,0.0,0.0,0.0,0.0,0.0,0.0,0.0,-2.6699,-2.6152,-2.6133,-2.6758,-2.9023,-3.1601,-3.3281,0.0,-3.985,-3.9913,-3.916,0.0,0.0,0.0,0.0,0.0,0.0,0.0,0.0,0.0,0.0,0.0,0.0,0.0,0.0,0.0,0.0,0.0,0.0,0.0,0.0,0.0,0.0,0.0,0.0,0.0,0.0,-6.08,-6.08,-6.08,-6.08,-6.08,-6.08,-6.08,-6.08,-6.08,-6.08,-6.08,-6.08,-6.08,-6.08,-6.08,-6.08,-6.08,-6.08,-6.08,-6.08,-6.08,-6.08,-6.08,-6.08,0.0,0.0,0.0,0.0,0.0,0.0,0.0,0.0,0.0,0.0,0.0,0.0,0.0,0.0,0.0,0.0,0.0,0.0,0.0,-2.5231,-2.5239,-2.5297,-2.8349,-2.8507,-2.5286,-3.0284,-3.3621,-3.5143,-3.5386,-3.6372,-3.793,-3.5391,-3.2833,-3.0321,-2.864,-2.6928,-2.5303,-2.5303,-2.539,-2.5505,-2.5505,0.0,0.0,0.0,0.0,0.0,0.0,0.0,0.0,0.0,0.0,0.0,0.0,0.0,-2.8281,-2.8144,-2.7539,-2.7441,-2.9863,-3.1309,-3.2519,-3.4199,-3.5487,0.0,-4.0198,-4.0114,0.0,-4.0348,0.0,0.0,0.0,0.0,0.0,0.0,0.0,0.0,0.0,0.0,0.0,0.0,0.0,0.0,0.0,0.0,0.0,0.0,0.0,0.0,0.0,0.0,0.0,0.0,0.0,-6.08,-6.08,-6.08,-6.08,-6.08,-6.08,-6.08,-6.08,-6.08,-6.08,-6.08,-6.08,-6.08,-6.08,-6.08,-6.08,-6.08,-6.08,-6.08,-6.08,-6.08,-6.08,-6.08,0.0,0.0,0.0,0.0,0.0,0.0,0.0,0.0,0.0,0.0,0.0,0.0,0.0,0.0,0.0,0.0,0.0,0.0,0.0,-2.5303,-2.5303,-2.5297,-2.6542,-2.6625,-2.5335,-3.1354,-3.4854,-3.5501,-3.6007,-3.6315,-3.6392,-3.3833,-3.1545,-2.9525,-2.7832,-2.6736,-2.6082,-2.5582,-2.5726,-2.6266,-2.5768,0.0,0.0,0.0,0.0,0.0,0.0,0.0,0.0,0.0,-2.6543,-2.6953,-2.6758,-2.7422,-2.8184,-2.7656,-2.7266,-2.7226,-2.8203,-3.0293,-3.2598,-3.4277,-3.6582,0.0,0.0,-4.2591,-4.3788,-4.5145,-4.5586,0.0,0.0,0.0,0.0,0.0,0.0,0.0,0.0,0.0,0.0,0.0,0.0,0.0,0.0,0.0,0.0,0.0,0.0,0.0,0.0,0.0,0.0,0.0,0.0,-6.08,-6.08,-6.08,-6.08,-6.08,-6.08,-6.08,-6.08,-6.08,-6.08,-6.08,-6.08,-6.08,-6.08,-6.08,-6.08,-6.08,-6.08,-6.08,-6.08,-6.08,-6.08,-6.08,0.0,0.0,0.0,0.0,0.0,0.0,0.0,0.0,0.0,0.0,0.0,0.0,0.0,0.0,0.0,0.0,0.0,0.0,-2.3552,-2.4715,-2.5303,-2.5303,-2.5302,-2.531,-2.5305,-3.0941,-3.425,-3.4955,-3.5892,-3.5911,-3.5026,-3.2487,-3.0794,-2.9833,-2.7871,-2.7159,-2.7351,-2.6274,-2.6207,-2.6757,-2.5919,-2.564,0.0,0.0,0.0,0.0,0.0,0.0,0.0,0.0,-2.6328,-2.6582,0.0,-2.7148,-2.7832,-2.75,-2.7617,-2.7812,-2.7812,-2.9961,-3.2595,-3.4233,0.0,0.0,-4.2307,-4.4376,-4.6281,-4.7912,0.0,0.0,0.0,0.0,0.0,0.0,0.0,0.0,0.0,0.0,0.0,0.0,0.0,0.0,0.0,0.0,0.0,0.0,0.0,0.0,0.0,0.0,0.0,0.0,-6.08,-6.08,-6.08,-6.08,-6.08,-6.08,-6.08,-6.08,-6.08,-6.08,-6.08,-6.08,-6.08,-6.08,-6.08,-6.08,-6.08,-6.08,-6.08,-6.08,-6.08,-6.08,-6.08,-6.08,0.0,0.0,0.0,0.0,0.0,0.0,0.0,0.0,0.0,0.0,0.0,0.0,0.0,0.0,0.0,0.0,0.0,0.0,-2.0282,-2.3398,-2.5283,-2.5302,-2.5303,-2.5301,-2.5288,-2.8626,-3.1494,-3.3782,-3.4897,-3.5007,-3.4103,-3.1564,-3.0833,-3.1545,-2.9025,-2.8371,-2.9074,-2.7399,-2.6785,-2.6815,-2.5948,-2.564,-2.5703,0.0,0.0,0.0,0.0,0.0,0.0,0.0,-2.6406,-2.5996,-2.7734,0.0,-2.7187,-2.8047,-2.8906,-2.9609,-2.959,-3.0879,-3.2589,0.0,0.0,0.0,-4.3503,-4.5189,-4.634,-4.7837,0.0,0.0,0.0,0.0,0.0,0.0,0.0,0.0,0.0,0.0,0.0,0.0,0.0,0.0,0.0,0.0,0.0,0.0,0.0,0.0,0.0,0.0,0.0,0.0,-6.08,-6.08,-6.08,-6.08,-6.08,-6.08,-6.08,-6.08,-6.08,-6.08,-6.08,-6.08,-6.08,-6.08,-6.08,-6.08,-6.08,-6.08,-6.08,-6.08,-6.08,-6.08,-6.08,-6.08,0.0,0.0,0.0,0.0,0.0,0.0,0.0,0.0,0.0,0.0,0.0,0.0,0.0,0.0,0.0,0.0,0.0,0.0,-2.0263,-2.1231,-2.2842,-2.5196,-2.5303,-2.5293,-2.5302,-2.7495,-2.9852,-3.2314,-3.266,-3.2064,-3.0583,-2.9256,-2.8448,-2.8121,-2.7967,-2.7736,-2.7409,-2.6963,-2.6818,-2.6839,-2.6009,-2.5672,-2.5703,0.0,0.0,0.0,0.0,0.0,0.0,0.0,0.0,0.0,-2.6309,0.0,-2.8633,-2.7676,-2.8437,-2.9473,-2.8848,-3.1231,0.0,0.0,0.0,0.0,0.0,-4.6128,0.0,0.0,0.0,0.0,0.0,0.0,0.0,0.0,0.0,0.0,0.0,0.0,0.0,0.0,0.0,0.0,0.0,0.0,0.0,0.0,0.0,0.0,0.0,0.0,0.0,0.0,-6.08,-6.08,-6.08,-6.08,-6.08,-6.08,-6.08,-6.08,-6.08,-6.08,-6.08,-6.08,-6.08,-6.08,-6.08,-6.08,-6.08,-6.08,-6.08,-6.08,-6.08,-6.08,-6.08,-6.08,0.0,0.0,0.0,0.0,0.0,0.0,0.0,0.0,0.0,0.0,-1.9305,-1.932,0.0,0.0,0.0,0.0,0.0,0.0,-2.026,-2.0293,-2.1797,-2.5157,-2.5293,-2.5457,-2.5813,-2.7198,-2.8486,-2.9679,-3.0333,-2.9967,-2.8621,-2.8448,-2.8275,-2.814,-2.8698,-2.8687,-2.8214,-2.7611,-2.7191,-2.6877,-2.6021,-2.5703,-2.5703,0.0,0.0,0.0,0.0,0.0,0.0,0.0,0.0,0.0,-2.5703,0.0,0.0,-2.7617,-2.875,-3.0212,-3.0677,0.0,0.0,0.0,0.0,0.0,0.0,0.0,0.0,0.0,0.0,0.0,0.0,0.0,0.0,0.0,0.0,0.0,0.0,0.0,0.0,0.0,0.0,0.0,0.0,0.0,0.0,0.0,0.0,0.0,0.0,0.0,0.0,0.0,-5.98,-5.98,-5.98,-5.98,-5.9973,-6.0281,-6.0281,-6.0454,-6.08,-6.08,-6.08,-6.08,-6.08,-6.08,-6.08,-6.08,-6.08,-6.08,-6.08,-6.08,-6.08,-6.08,-6.08,-6.08,0.0,0.0,0.0,0.0,0.0,0.0,0.0,0.0,0.0,0.0,-1.9305,-1.9365,0.0,0.0,0.0,0.0,0.0,0.0,0.0,-2.0301,-2.1805,-2.5155,-2.5293,-2.5668,-2.6467,-2.7255,-2.7274,-2.6486,-2.8159,-2.8544,-2.7678,-2.8563,-2.9371,-3.0052,-3.0283,-3.034,-3.0155,-2.8687,-2.7612,-2.6816,-2.6016,-2.5703,-2.5703,-2.5703,0.0,0.0,0.0,0.0,0.0,0.0,0.0,0.0,-2.5703,-2.5801,-2.6211,-2.7637,-2.9393,-3.139,0.0,0.0,0.0,0.0,0.0,0.0,0.0,0.0,0.0,0.0,0.0,0.0,0.0,0.0,0.0,0.0,0.0,0.0,0.0,0.0,0.0,0.0,0.0,0.0,0.0,0.0,0.0,0.0,0.0,0.0,0.0,0.0,0.0,0.0,-5.83,-5.83,-5.83,-5.83,-5.8665,0.0,-5.9396,-5.9838,-6.0685,-6.0762,-6.08,-6.08,-6.08,-6.08,-6.08,-6.08,-6.08,-6.08,-6.08,-6.08,-6.08,-6.08,-6.08,-6.08,0.0,0.0,0.0,0.0,0.0,0.0,0.0,0.0,0.0,0.0,0.0,0.0,0.0,0.0,0.0,0.0,0.0,0.0,0.0,-2.0301,-2.1805,-2.5155,-2.5293,-2.538,-2.5572,-2.5774,-2.5774,-2.5572,-2.7313,-2.7371,-2.589,-2.7448,-2.789,-2.7486,-2.8868,-2.8792,-2.7602,-2.7295,-2.6733,-2.5957,-2.5781,-2.5703,-2.5703,-2.5703,-2.5703,0.0,0.0,0.0,0.0,0.0,0.0,0.0,-2.5703,-2.6641,-2.7559,-2.6543,-2.8398,-3.0999,0.0,0.0,0.0,0.0,0.0,0.0,0.0,0.0,0.0,0.0,0.0,0.0,0.0,0.0,0.0,0.0,0.0,0.0,0.0,0.0,0.0,0.0,0.0,0.0,0.0,0.0,0.0,0.0,0.0,0.0,0.0,0.0,0.0,-5.83,-5.83,-5.83,-5.83,-5.83,-5.8396,0.0,-5.8569,-5.8992,-5.98,-6.0492,-6.08,-6.08,-6.08,-6.08,-6.08,-6.08,-6.08,-6.08,-6.08,-6.08,-6.08,-6.08,-6.08,-6.08,0.0,0.0,0.0,0.0,0.0,0.0,0.0,0.0,0.0,0.0,0.0,0.0,0.0,0.0,0.0,0.0,0.0,0.0,0.0,-2.0291,-2.1795,-2.5157,-2.5332,-2.5341,-2.5341,-2.539,-2.539,-2.5341,-2.6255,-2.6447,-2.5947,-2.7274,-2.7871,-2.789,-2.8818,-2.8587,-2.745,-2.709,-2.6467,-2.5703,-2.5703,-2.5703,-2.5703,-2.5703,-2.5703,-2.5703,-2.5703,0.0,0.0,0.0,0.0,0.0,0.0,0.0,-2.7031,-2.6973,-2.8489,-3.0706,0.0,0.0,0.0,0.0,0.0,0.0,0.0,0.0,0.0,0.0,0.0,0.0,0.0,0.0,0.0,0.0,0.0,0.0,0.0,0.0,0.0,0.0,0.0,0.0,0.0,0.0,0.0,0.0,0.0,0.0,0.0,-5.7069,-5.7069,-5.7069,-5.7069,-5.7069,-5.7069,-5.7069,-5.7261,-5.7684,-5.7684,-5.8127,-5.8973,-6.0223,-6.08,-6.08,-6.08,-6.08,-6.08,-6.08,-6.08,-6.08,-6.08,-6.08,-6.08,-6.08,-6.08,-6.08,0.0,0.0,0.0,0.0,0.0,0.0,0.0,0.0,0.0,0.0,0.0,0.0,0.0,0.0,0.0,0.0,0.0,0.0,0.0,-2.0584,-2.2139,-2.5196,-2.538,-2.5351,-2.5195,-2.5253,-2.5253,-2.5195,-2.5188,-2.5909,-2.7314,-2.7727,-2.8382,-2.9228,-2.9156,-2.8775,-2.8145,-2.7183,-2.6367,-2.5703,-2.5703,-2.5605,-2.5488,-2.5488,-2.5391,-2.5293,-2.543,-2.5488,-2.5508,-2.5644,0.0,0.0,0.0,0.0,-2.5976,-2.744,-2.8554,-3.0138,0.0,0.0,0.0,0.0,0.0,0.0,0.0,0.0,0.0,0.0,0.0,0.0,0.0,0.0,0.0,0.0,0.0,0.0,0.0,0.0,0.0,0.0,0.0,0.0,0.0,0.0,0.0,0.0,0.0,0.0,-5.5703,-5.5703,-5.5703,-5.5703,-5.5703,-5.5703,-5.5703,-5.5703,-5.6049,-5.678,-5.6915,-5.7376,-5.8127,-5.9665,-6.0435,-6.0569,-6.0723,-6.08,-6.08,-6.08,-6.08,-6.08,-6.08,-6.08,-6.08,-6.08,-6.08,-6.08,0.0,0.0,0.0,0.0,0.0,0.0,0.0,0.0,0.0,0.0,-1.9452,-1.9662,-1.991,-1.9827,0.0,0.0,0.0,0.0,-2.0312,0.0,0.0,-2.5399,-2.5486,-2.5134,-2.4377,-2.4363,-2.4363,-2.4363,-2.4364,-2.6352,-3.0115,-2.8674,-2.848,-2.9338,-2.8645,-2.8303,-2.8107,-2.6536,-2.5801,-2.5703,-2.5703,-2.5254,-2.457,-2.457,-2.4141,-2.3633,-2.4316,-2.457,-2.4687,-2.5449,-2.5703,0.0,0.0,0.0,0.0,0.0,0.0,0.0,0.0,0.0,0.0,0.0,0.0,0.0,0.0,0.0,0.0,0.0,0.0,0.0,0.0,0.0,0.0,0.0,0.0,0.0,0.0,0.0,0.0,0.0,0.0,0.0,0.0,0.0,0.0,0.0,0.0,0.0,-5.5703,-5.5703,-5.5703,-5.5703,-5.5703,-5.5703,-5.5703,-5.5703,-5.5761,-5.5876,-5.6626,-5.7049,-5.7203,-5.8184,-5.9011,-5.9723,-6.0473,-6.08,-6.08,-6.08,-6.08,-6.08,-6.08,-6.08,-6.08,-6.08,-6.08,-6.08,0.0,0.0,0.0,0.0,0.0,0.0,0.0,0.0,0.0,0.0,0.0,-1.9665,-1.9874,-1.9993,0.0,0.0,0.0,0.0,-2.0454,-2.1208,0.0,-2.3579,-2.3972,-2.3975,-2.3586,-2.3622,-2.3848,-2.4258,-2.3805,-2.5784,-3.0018,-2.9216,-3.0083,-3.2243,-3.046,-2.9419,-2.8837,-2.6631,-2.543,-2.4961,-2.4961,-2.5332,-2.5703,-2.4277,-2.4394,-2.5254,-2.4629,-2.4394,-2.4531,-2.541,-2.5703,0.0,0.0,0.0,0.0,0.0,0.0,0.0,0.0,0.0,0.0,0.0,0.0,0.0,0.0,0.0,0.0,0.0,0.0,0.0,0.0,0.0,0.0,0.0,0.0,0.0,0.0,0.0,0.0,0.0,0.0,0.0,0.0,0.0,0.0,0.0,0.0,-5.4299,-5.4299,-5.4761,-5.503,-5.503,-5.5453,-5.5703,-5.5703,-5.5489,-5.5356,-5.5375,-5.5739,-5.6045,-5.6299,-5.7165,-5.803,-5.8877,-5.9704,-6.0069,-6.0108,-6.0589,-6.08,-6.08,-6.08,-6.08,-6.08,-6.08,-6.08,-6.08,0.0,0.0,0.0,0.0,0.0,0.0,0.0,0.0,0.0,0.0,0.0,0.0,-1.9858,0.0,0.0,0.0,0.0,0.0,-2.0594,0.0,0.0,0.0,-2.2796,-2.3002,-2.2801,-2.2842,-2.3138,-2.3692,-2.3288,-2.5429,-2.9854,-3.0076,-3.201,-3.5163,-3.2607,-3.0773,-2.9453,-2.7285,-2.5996,-2.5391,-2.5391,-2.6035,-2.6875,-2.5625,-2.6055,-2.7168,-2.5859,-2.5254,-2.5137,0.0,0.0,0.0,0.0,0.0,0.0,0.0,0.0,0.0,0.0,0.0,0.0,0.0,0.0,0.0,0.0,0.0,0.0,0.0,0.0,0.0,0.0,0.0,0.0,0.0,0.0,0.0,0.0,0.0,0.0,0.0,0.0,0.0,0.0,0.0,0.0,0.0,0.0,-5.3203,-5.3203,-5.3818,-5.4164,-5.4164,-5.4741,-5.5028,-5.4924,-5.4721,-5.4683,-5.4783,-5.4993,-5.5306,-5.5722,-5.6357,-5.7011,-5.7703,-5.8742,-5.9319,-5.955,-6.0204,-6.0589,-6.08,-6.08,-6.08,-6.08,-6.08,-6.08,-6.08,0.0,0.0,0.0,0.0,0.0,0.0,0.0,0.0,0.0,0.0,0.0,0.0,-2.0051,-2.0222,-2.0312,-2.0312,-2.0465,0.0,0.0,0.0,0.0,0.0,0.0,0.0,-2.1971,-2.1972,-2.1992,-2.2011,-2.2753,-2.5745,-3.0849,-3.1671,-3.3874,-3.705,-3.4432,-3.1894,-2.9531,-2.8574,-2.8144,-2.8105,-2.8105,-2.7656,-2.7266,-2.9609,-2.9551,-2.8223,-2.8125,-2.7578,0.0,0.0,0.0,0.0,0.0,0.0,0.0,0.0,0.0,0.0,0.0,0.0,0.0,0.0,0.0,0.0,0.0,0.0,0.0,0.0,0.0,0.0,0.0,0.0,0.0,0.0,0.0,0.0,0.0,0.0,0.0,0.0,0.0,0.0,0.0,0.0,0.0,0.0,0.0,-5.3203,-5.3203,-5.3241,-5.328,-5.328,-5.3318,-5.3152,-5.2755,-5.3101,-5.3518,-5.397,-5.4726,-5.5306,-5.5703,-5.5742,-5.578,-5.5934,-5.7627,-5.88,-5.9492,-5.955,-6.005,-6.08,-6.08,-6.08,-6.08,-6.08,-6.08,-6.08,0.0,0.0,0.0,0.0,0.0,0.0,0.0,0.0,0.0,0.0,0.0,0.0,0.0,-2.0274,-2.034,-2.0481,-2.0565,0.0,0.0,0.0,0.0,0.0,0.0,0.0,-2.1074,-2.1074,-2.1348,-2.1894,-2.1621,-2.386,-2.8392,-2.8723,-3.0118,-3.2363,-3.2559,-3.2129,-3.1074,-2.7949,-2.6621,-2.668,-2.7246,-2.8281,-2.9473,-2.9297,-3.0547,-3.2187,0.0,0.0,0.0,0.0,0.0,0.0,-2.5784,-2.5216,-2.4743,-2.4695,-2.5001,0.0,0.0,0.0,0.0,0.0,0.0,0.0,0.0,0.0,0.0,0.0,0.0,0.0,0.0,0.0,0.0,0.0,0.0,0.0,0.0,0.0,0.0,0.0,0.0,0.0,0.0,0.0,0.0,0.0,0.0,0.0,-5.1606,-5.2087,-5.2254,-5.2001,-5.2518,-5.2494,-5.1851,-5.1959,-5.2271,-5.2703,-5.3227,-5.4003,-5.4953,-5.5193,-5.5466,-5.5722,-5.6357,-5.7107,-5.7973,-5.905,-5.9685,-6.0012,-6.0569,-6.08,-6.08,-6.08,-6.08,-6.08,0.0,0.0,0.0,0.0,0.0,0.0,0.0,0.0,-2.0405,-2.0396,0.0,0.0,0.0,0.0,-2.0451,-2.0594,-2.0603,-2.0605,-2.0605,-2.0605,0.0,0.0,0.0,0.0,-2.0605,-2.0605,-2.0879,-2.1465,-2.1172,-2.2773,-2.6133,-2.6738,-2.793,-2.9629,-3.0195,-3.0937,-3.1562,-2.8672,-2.7441,-2.7519,-2.8398,-2.9785,-3.1406,-3.1973,-3.3594,-3.537,0.0,0.0,0.0,0.0,0.0,0.0,-2.6766,-2.5592,-2.4629,-2.4572,-2.4928,0.0,-2.7351,0.0,0.0,0.0,0.0,0.0,0.0,0.0,0.0,0.0,0.0,0.0,0.0,0.0,0.0,0.0,0.0,0.0,0.0,0.0,0.0,0.0,0.0,0.0,0.0,0.0,0.0,0.0,0.0,0.0,-5.0702,-5.1083,-5.1098,-5.0703,-5.1128,-5.1096,-5.057,-5.0711,-5.1018,-5.1412,-5.194,-5.2843,-5.4082,-5.4349,-5.4768,-5.5306,-5.5423,-5.6076,-5.7088,-5.8204,-5.8992,-5.9569,-6.0146,-6.0531,-6.08,-6.08,-6.08,-6.08,0.0,0.0,0.0,0.0,0.0,0.0,0.0,0.0,-2.0604,-2.0607,0.0,0.0,0.0,0.0,0.0,-2.0605,-2.0605,-2.0605,-2.0605,-2.0605,-2.0605,-2.0605,-2.0605,0.0,-2.0644,-2.0605,-2.0605,-2.0644,-2.1465,-2.2715,-2.4355,-2.6055,-2.7773,-2.9375,-2.7715,-2.8398,-3.0781,-3.0723,-3.0781,-3.0976,0.0,-3.2207,-3.2891,0.0,0.0,0.0,-3.8218,-3.7433,0.0,-3.2985,0.0,0.0,0.0,-2.6734,-2.5303,-2.5264,-2.5303,-2.5322,0.0,0.0,0.0,0.0,0.0,0.0,0.0,0.0,0.0,0.0,0.0,0.0,0.0,0.0,0.0,0.0,0.0,0.0,0.0,0.0,0.0,0.0,0.0,0.0,0.0,0.0,0.0,0.0,0.0,-5.0683,-5.0683,-5.0294,-4.9898,-4.9475,-4.9075,-4.8897,-4.8897,-4.9344,-4.975,-5.016,-5.0946,-5.1952,-5.3107,-5.3164,-5.3654,-5.4478,-5.4905,-5.5785,-5.6931,-5.6973,-5.7953,-5.9392,-5.945,-6.0012,-6.0762,-6.0781,-6.08,-6.08,0.0,0.0,0.0,0.0,0.0,-2.0208,-1.9242,-1.9967,-2.0594,0.0,0.0,0.0,-2.0605,-2.0605,-2.0605,-2.0605,-2.0605,-2.0605,-2.0605,-2.0605,-2.0605,-2.0605,-2.0605,-2.0898,-2.1523,-2.0918,-2.0918,-2.1543,-2.1152,-2.1523,-2.2598,-2.3086,-2.4219,-2.5859,-2.5996,-2.6816,-2.8008,-2.6738,0.0,-3.0879,-3.0488,-3.2559,0.0,0.0,0.0,0.0,0.0,-3.985,-3.9141,0.0,-3.5085,-3.2551,0.0,-2.6206,-2.5187,-2.4601,-2.5293,-2.6101,-2.5457,0.0,0.0,0.0,0.0,0.0,0.0,0.0,0.0,0.0,0.0,0.0,0.0,0.0,0.0,0.0,0.0,0.0,0.0,0.0,0.0,0.0,0.0,0.0,0.0,0.0,0.0,0.0,-5.0702,-5.0565,-5.0272,-4.9617,-4.9171,-4.9075,-4.8657,-4.8458,-4.8458,-4.8603,-4.8864,-4.9269,-4.9843,-5.0577,-5.1484,-5.2386,-5.3076,-5.3591,-5.4326,-5.4882,-5.5246,-5.6191,-5.683,-5.7366,-5.859,-5.9396,-5.9935,-6.0569,-6.08,-6.08,0.0,0.0,-2.0462,-2.0579,-2.0599,-2.0603,-2.0608,-2.0605,-2.0589,0.0,0.0,0.0,-2.0762,-2.1875,-2.2734,-2.2734,-2.2734,-2.2129,-2.0684,-2.0605,-2.0605,-2.0605,-2.0957,-2.1387,-2.1894,-2.1738,-2.1738,-2.1894,-2.1387,-2.1205,-2.1315,-2.1714,-2.2402,-2.334,-2.3887,-2.4785,-2.582,-2.4473,0.0,0.0,-3.1685,0.0,0.0,-3.8427,-4.0352,0.0,0.0,0.0,-4.1594,-4.021,-3.7555,0.0,0.0,0.0,-2.714,-2.5582,-2.6332,-2.7467,-2.6621,-2.6755,-2.7313,0.0,0.0,0.0,0.0,0.0,0.0,0.0,0.0,0.0,0.0,0.0,0.0,0.0,0.0,0.0,0.0,0.0,0.0,0.0,0.0,0.0,0.0,0.0,0.0,-4.9197,-4.9197,-4.9172,-4.9116,-4.8984,-4.8829,-4.8657,-4.8421,-4.8306,-4.8306,-4.8306,-4.8421,-4.8657,-4.8936,-4.951,-5.0337,-5.1026,-5.1843,-5.2727,-5.3421,-5.3818,-5.4016,-5.4929,-5.5629,-5.6263,-5.7768,-5.8596,-5.9071,-6.013,-6.0365,-6.0208,0.0,0.0,-2.0605,-2.0605,-2.0918,-2.1172,-2.1167,-2.1171,-2.1171,0.0,-2.38,-2.4682,-2.2029,-2.412,-2.5702,-2.5702,-2.5702,-2.4237,-2.078,-2.0566,-2.0585,-2.0586,-2.1425,-2.1873,-2.1891,-2.2674,-2.2694,-2.1874,-2.1874,-2.1411,-2.052,-2.135,-2.1717,-2.168,-2.1814,-2.2769,-2.4234,-2.3786,0.0,-3.0046,-3.3853,-3.5717,0.0,0.0,-4.2802,0.0,-4.3968,-4.4028,-4.3299,-4.2297,-3.9258,0.0,0.0,0.0,0.0,0.0,-2.8217,-2.9333,-2.8409,-2.8313,-2.8756,0.0,0.0,0.0,0.0,-3.3603,0.0,0.0,0.0,0.0,0.0,0.0,0.0,0.0,0.0,0.0,0.0,0.0,0.0,0.0,0.0,0.0,0.0,0.0,-4.7106,-4.7106,-4.7078,-4.7183,-4.7551,-4.8211,-4.8379,-4.8031,-4.8122,-4.8177,-4.8177,-4.8269,-4.8306,-4.8306,-4.8306,-4.871,-4.9444,-4.9536,-5.0362,-5.1761,-5.2288,-5.273,-5.312,-5.3567,-5.4424,-5.5616,-5.6842,-5.7578,-5.8079,-5.941,-5.9608,-5.9276,0.0,-2.0605,-2.0605,-2.0605,-2.2871,-2.4694,-2.4709,-2.4697,-2.4705,-2.4703,-2.5293,-2.6508,-2.8656,-2.6981,-2.5699,-2.5699,-2.5699,-2.4179,-2.0591,-2.0419,-2.0462,-2.0527,-2.1299,-2.175,-2.1823,-2.261,-2.2594,-2.1747,-2.1747,-2.1313,-2.0495,-2.0682,-2.0795,-2.0859,-2.1526,-2.2397,-2.3462,0.0,0.0,-3.0535,-3.212,0.0,-3.9101,-4.0569,-4.2351,-4.4068,-4.4278,-4.4682,-4.4893,0.0,-4.0931,-3.8084,0.0,0.0,0.0,-3.041,-3.0852,-3.1833,-3.0333,-3.091,-3.1506,0.0,0.0,0.0,0.0,-3.016,0.0,0.0,0.0,0.0,0.0,0.0,0.0,0.0,0.0,0.0,0.0,0.0,0.0,0.0,0.0,0.0,0.0,0.0,-4.7106,-4.7106,-4.6805,-4.6638,-4.6712,-4.657,-4.6452,-4.6361,-4.7003,-4.7352,-4.7352,-4.7994,-4.8306,-4.8306,-4.8306,-4.8398,-4.8581,-4.926,-4.9756,-5.0123,-5.1511,-5.2173,-5.227,-5.3038,-5.3658,-5.4259,-5.5226,-5.583,-5.6366,-5.7994,-5.8509,-5.8537,-2.0575,-2.0594,-2.1143,-2.2845,-2.4566,-2.5691,-2.5712,-2.5595,-2.5556,-2.5676,-2.708,-2.8717,-3.0461,-2.9093,-2.7358,-2.5638,-2.5503,-2.4721,-2.2907,-2.1256,-2.0637,-2.127,-2.1554,-2.1912,-2.2399,-2.3226,-2.3218,-2.2353,-2.2352,-2.1687,-2.0406,-2.0424,-2.091,-2.1744,-2.1754,-2.2697,-2.4341,0.0,-2.6994,-2.9688,-3.3508,0.0,-4.0358,-4.2345,-4.3897,-4.5047,-4.497,-4.522,-4.5278,-4.3162,-4.1604,0.0,0.0,-3.6392,-3.6161,0.0,-3.3487,-3.4334,-3.2218,-3.2256,0.0,-3.1852,0.0,0.0,0.0,0.0,0.0,0.0,0.0,0.0,0.0,0.0,0.0,0.0,0.0,0.0,0.0,0.0,0.0,0.0,0.0,0.0,0.0,0.0,-4.5307,-4.5307,-4.5496,-4.5605,-4.5605,-4.5788,-4.5902,-4.5902,-4.6287,-4.6507,-4.6507,-4.7315,-4.7719,-4.7719,-4.8122,-4.8306,-4.8324,-4.8746,-4.9187,-4.9646,-5.0875,-5.1628,-5.205,-5.2876,-5.3336,-5.3637,-5.467,-5.5081,-5.5268,-5.7155,-5.7697,-5.7614,-2.0551,-2.0543,-2.1626,-2.503,-2.5613,-2.5626,-2.5613,-2.5437,-2.5842,-2.74,-2.9225,-3.0386,-3.0405,-3.0394,-2.9008,-2.5599,-2.5889,-2.6005,-2.5331,-2.2765,-2.1551,-2.2238,-2.2191,-2.2346,-2.271,-2.3744,-2.3685,-2.2474,-2.2643,-2.1891,-2.0292,-2.0532,-2.1349,-2.2648,-2.2307,-2.3487,-2.5687,0.0,0.0,-3.0234,0.0,-3.8466,-3.9794,-4.3472,-4.4874,-4.4932,-4.5413,-4.5586,-4.5259,-4.3028,0.0,-4.172,-3.8469,-3.8623,0.0,0.0,0.0,0.0,0.0,0.0,0.0,0.0,0.0,-3.2436,0.0,0.0,0.0,-3.327,0.0,0.0,0.0,0.0,0.0,0.0,0.0,0.0,0.0,0.0,0.0,0.0,0.0,0.0,0.0,0.0,-4.2983,-4.3461,-4.3663,-4.3993,-4.4452,-4.5076,-4.5443,-4.5443,-4.559,-4.5663,-4.5663,-4.6471,-4.6966,-4.7131,-4.7774,-4.8159,-4.8306,-4.8306,-4.8673,-4.9389,-5.0196,-5.1022,-5.183,-5.2637,-5.3078,-5.3304,-5.4346,-5.4485,-5.4369,-5.6214,-5.6644,-5.6492,-2.0334,-2.0323,-2.138,-2.4767,-2.5348,-2.534,-2.5348,-2.5322,-2.7498,-3.3581,-3.2062,-3.0388,-3.0394,-3.04,-2.902,-2.5602,-2.8065,-2.8536,-2.5501,-2.4937,-2.4159,-2.2876,-2.3463,-2.3185,-2.1786,-2.3312,-2.2975,-2.0619,-2.132,-2.1196,-2.0331,-2.1097,-2.1589,-2.188,-2.3226,0.0,0.0,0.0,-2.9956,0.0,-3.6551,-3.6113,0.0,-4.0396,-4.2239,-4.2527,-4.4778,-4.5586,-4.5432,0.0,-4.4028,-4.3547,0.0,-4.1258,-4.2143,0.0,0.0,0.0,0.0,0.0,0.0,0.0,-3.7229,0.0,0.0,0.0,-3.1427,-2.954,0.0,0.0,0.0,0.0,0.0,0.0,0.0,0.0,0.0,0.0,0.0,0.0,0.0,0.0,0.0,0.0,-4.1185,-4.3332,-4.1589,-4.1368,-4.3516,-4.3718,-4.3754,-4.3754,-4.447,-4.4856,-4.4856,-4.5626,-4.6397,-4.7113,-4.7205,-4.7627,-4.8306,-4.8306,-4.8361,-4.8508,-4.9352,-5.0178,-5.1004,-5.1793,-5.2564,-5.3206,-5.3382,-5.3377,-5.3445,-5.4412,-5.4699,-5.4895,-2.023,-2.0289,-2.1369,-2.4707,-2.3688,-2.3045,-2.4995,-2.5301,-2.7044,-3.1908,-3.3019,-3.3365,-3.3359,-3.3365,0.0,-3.1348,0.0,-3.3983,0.0,0.0,-2.5216,-2.5053,-2.3956,-2.3466,-2.3745,-2.3485,-2.2812,-2.1754,-2.1581,-2.11,-2.0331,-2.115,-2.2361,-2.3832,-2.5024,0.0,-2.954,0.0,0.0,0.0,0.0,0.0,0.0,-4.1316,-4.3989,-4.4143,-4.522,-4.5586,-4.5393,0.0,-4.3605,0.0,0.0,0.0,0.0,0.0,0.0,0.0,0.0,0.0,0.0,0.0,0.0,0.0,-3.2718,0.0,-3.0694,0.0,0.0,0.0,0.0,0.0,0.0,0.0,0.0,0.0,0.0,0.0,0.0,0.0,0.0,0.0,0.0,0.0,0.0,0.0,0.0,-4.0744,-4.269,-4.324,-4.3497,-4.3497,-4.3828,-4.3993,-4.3993,-4.48,-4.5608,-4.6416,-4.6893,-4.7535,-4.8306,-4.8306,-4.8306,-4.8361,-4.9205,-4.9774,-5.0196,-5.1463,-5.2197,-5.2546,-5.3023,-5.3206,-5.3316,-5.4106,-5.4399,-5.4638,-1.9925,-2.0021,-2.0851,-2.3467,-2.1924,-2.1426,-2.4783,-2.6096,-2.8253,-3.2594,-3.4526,-3.5501,-3.5501,-3.6331,0.0,0.0,-3.9105,-3.8007,0.0,0.0,-2.683,-2.7157,-2.5255,0.0,-2.563,-2.4235,-2.3254,-2.2793,-2.2177,-2.1562,-2.1004,-2.1831,-2.3197,-2.5043,-2.6582,-2.8929,-3.166,0.0,0.0,-3.3622,-3.4584,-3.5545,-3.6969,-4.247,-4.4989,-4.5586,-4.5586,-4.5586,-4.5374,-4.3912,-4.3431,0.0,-4.3056,0.0,0.0,0.0,0.0,0.0,-4.12,0.0,0.0,0.0,0.0,0.0,0.0,0.0,0.0,0.0,0.0,0.0,0.0,0.0,0.0,-2.9397,0.0,0.0,0.0,0.0,0.0,0.0,0.0,0.0,0.0,0.0,0.0,0.0,0.0,0.0,-4.2176,-4.2837,-4.3259,-4.3479,-4.3497,-4.3497,-4.3497,-4.4085,-4.4782,-4.5571,-4.6397,-4.7205,-4.7994,-4.8214,-4.8306,-4.8343,-4.8967,-4.937,-4.9701,-5.1096,-5.1793,-5.2068,-5.2894,-5.3206,-5.328,-5.3867,-5.4069,-5.4271,-1.9326,-1.9337,-1.9563,-2.0323,-2.0363,-2.1426,-2.4782,-2.8104,-3.2632,-3.9301,0.0,0.0,0.0,0.0,0.0,0.0,0.0,-3.903,-3.5569,0.0,-2.9751,-2.8687,-2.806,-2.7371,0.0,-2.5678,-2.4428,-2.2793,-2.2774,-2.2754,-2.2735,-2.361,-2.4052,-2.4283,-2.7574,-3.0025,-3.1795,-3.3372,-3.6892,-4.1373,-4.0566,-4.2239,-4.4951,0.0,-4.3451,-4.5586,-4.5586,0.0,0.0,-4.4566,-4.4259,0.0,0.0,0.0,0.0,0.0,0.0,0.0,0.0,0.0,0.0,-3.9196,0.0,0.0,0.0,0.0,-3.2614,0.0,0.0,0.0,0.0,-3.3036,-3.199,-3.0411,-3.0228,0.0,0.0,0.0,0.0,0.0,0.0,0.0,0.0,0.0,0.0,0.0,0.0,0.0,-4.2047,-4.2323,-4.269,-4.3461,-4.3497,-4.3497,-4.3497,-4.3516,-4.3938,-4.4764,-4.5553,-4.6361,-4.7186,-4.7957,-4.8306,-4.8306,-4.8343,-4.882,-4.9646,-5.049,-5.1298,-5.2068,-5.2894,-5.3206,-5.3206,-5.3243,-5.3243,-5.3371,0.0,-2.1038,-2.2069,0.0,0.0,-2.3999,-2.5135,-2.8198,-3.1206,0.0,0.0,0.0,0.0,0.0,-4.3869,0.0,0.0,-4.1743,-3.9986,-3.6026,0.0,0.0,0.0,-2.9698,0.0,-2.7467,-2.5601,-2.4447,-2.3331,-2.2793,-2.2812,-2.3687,-2.4379,-2.5043,0.0,-3.1218,0.0,0.0,0.0,0.0,0.0,-4.2221,-4.5207,0.0,0.0,-4.5586,-4.5586,-4.5586,0.0,-4.5259,-4.4632,-4.3999,-4.4164,-4.3475,-4.2697,-4.3165,-4.3498,0.0,0.0,0.0,-4.3646,-4.0609,0.0,0.0,0.0,0.0,0.0,0.0,0.0,0.0,0.0,-3.3587,-3.2871,-3.1256,-3.098,-3.0063,0.0,0.0,0.0,0.0,0.0,0.0,0.0,0.0,0.0,0.0,0.0,0.0,0.0,-4.1717,-4.2415,-4.269,-4.3222,-4.3497,-4.3497,-4.3497,-4.3901,-4.4709,-4.4984,-4.581,-4.7131,-4.7388,-4.781,-4.8306,-4.8306,-4.8471,-4.8802,-4.9646,-5.0472,-5.1279,-5.2087,-5.2729,-5.3206,-5.3206,-5.3206,-5.3335,-2.1031,0.0,0.0,0.0,0.0,0.0,0.0,0.0,0.0,0.0,-3.5028,0.0,-3.8321,0.0,-4.4852,0.0,-4.402,-4.2932,-4.1616,-3.9795,0.0,-3.7236,-3.4041,0.0,0.0,-3.0226,-2.7987,-2.6519,-2.5234,-2.4293,-2.3697,-2.4255,-2.4774,-2.5357,0.0,0.0,0.0,0.0,-3.8556,0.0,0.0,-4.2959,0.0,0.0,-4.5381,-4.5586,0.0,-4.5419,-4.54,-4.5283,-4.4734,-4.4174,-4.4586,-4.378,-4.279,-4.324,-4.338,-4.3409,-4.353,-4.3764,0.0,-4.133,-3.9433,0.0,-3.4308,0.0,0.0,0.0,0.0,0.0,0.0,0.0,-3.4156,-3.2522,-3.1292,-2.942,0.0,0.0,0.0,0.0,0.0,0.0,0.0,0.0,-3.1237,-3.3927,0.0,0.0,0.0,0.0,-4.2011,-4.2286,-4.3075,-4.3497,-4.3497,-4.3497,-4.3754,-4.4287,-4.4562,-4.5406,-4.6691,-4.6985,-4.7553,-4.8306,-4.8306,-4.8306,-4.8379,-4.9224,-5.0068,-5.0875,-5.1683,-5.2491,-5.3206,-5.3206,-5.3206,-5.3335,0.0,0.0,0.0,0.0,-2.4211,0.0,0.0,0.0,-3.3152,0.0,-3.8324,-4.3496,-4.3504,-4.3479,-4.349,-4.352,-4.3506,0.0,-4.0809,-4.3028,0.0,0.0,-3.6774,-3.5882,-3.5844,-3.3677,-3.1312,-2.8814,-2.8147,-2.6965,-2.5321,-2.5283,-2.5163,-2.5151,-2.8713,0.0,-3.2902,-3.7833,-4.0955,-4.2686,-4.402,-4.4553,-4.4553,-4.4553,-4.4988,-4.5513,-4.5201,-4.5074,-4.503,-4.4726,-4.458,-4.4501,-4.4117,-4.3986,-4.3893,-4.3597,-4.3497,-4.3563,-4.3881,-4.3986,-4.3487,-4.1428,0.0,0.0,0.0,0.0,-3.8534,0.0,0.0,0.0,0.0,0.0,-3.5826,-3.4027,-3.1054,-2.7879,-2.4814,0.0,0.0,0.0,0.0,0.0,0.0,0.0,-2.9108,-3.2265,-3.2485,0.0,0.0,0.0,-4.1332,-4.2213,-4.3057,-4.3497,-4.3497,-4.3497,-4.3497,-4.3497,-4.4287,-4.5076,-4.592,-4.6709,-4.7517,-4.8306,-4.8306,-4.8306,-4.8361,-4.9187,-5.0031,-5.0875,-5.1628,-5.2454,-5.3206,-5.3206,-5.3206,-5.3316,-2.4194,-2.4192,-2.4217,0.0,-2.419,-2.6072,0.0,0.0,0.0,0.0,-4.209,-4.3502,-4.3489,-4.3513,-4.3504,-4.3502,-4.3515,0.0,0.0,0.0,0.0,-4.1954,-3.976,-3.824,-3.7638,-3.4634,0.0,-3.0355,0.0,0.0,-2.5811,-2.5213,-2.4896,-2.4969,0.0,0.0,-3.2579,-3.6971,-4.0669,-4.3643,-4.4007,-4.4146,0.0,0.0,-4.4455,-4.4849,-4.4757,-4.4751,-4.4726,-4.4631,-4.4401,-4.4136,-4.4028,-4.3836,-4.3631,-4.3513,-4.3497,-4.3513,-4.3579,-4.3612,-4.3498,-4.2936,-4.1453,-3.9815,0.0,0.0,0.0,0.0,0.0,0.0,0.0,0.0,0.0,-3.3476,-3.021,-2.7824,0.0,0.0,0.0,0.0,0.0,0.0,0.0,0.0,-2.8631,-3.0668,0.0,0.0,0.0,0.0,0.0,-4.135,-4.2763,-4.3497,-4.3497,-4.3497,-4.3497,-4.3497,-4.3699,-4.4544,-4.5902,-4.6104,-4.6966,-4.8306,-4.8306,-4.8306,-4.8324,-4.8545,-4.9499,-5.082,-5.1041,-5.1977,-5.3206,-5.3206,-5.3206,-5.3243,-2.4096,0.0,0.0,-2.7907,0.0,0.0,-2.9468,0.0,0.0,-4.2649,-4.3497,0.0,-4.352,-4.3511,-4.3497,-4.3497,-4.348,0.0,0.0,0.0,0.0,-4.25,-4.1362,-4.0505,-4.0058,-3.6926,0.0,-3.2299,0.0,0.0,-2.5985,-2.5186,-2.476,0.0,0.0,-2.9639,0.0,-3.7042,-4.0802,-4.3291,-4.3624,0.0,0.0,-4.3772,-4.3912,-4.4125,-4.4125,-4.4223,-4.4337,-4.4184,-4.3974,-4.3772,-4.3772,-4.3646,-4.3497,-4.3497,-4.3497,-4.3497,-4.3497,-4.3497,-4.3497,-4.3497,-4.247,-4.1277,-4.0579,-4.0708,-4.0726,0.0,0.0,0.0,0.0,0.0,0.0,-3.177,-2.9512,-2.8081,0.0,0.0,0.0,0.0,0.0,0.0,0.0,0.0,0.0,0.0,0.0,0.0,0.0,0.0,0.0,-4.0524,-4.2139,-4.313,-4.3497,-4.3497,-4.3497,-4.3497,-4.3497,-4.4342,-4.5902,-4.5902,-4.6783,-4.8306,-4.8306,-4.8306,-4.8306,-4.8306,-4.9297,-5.0875,-5.1573,-5.2417,-5.3206,-5.3206,-5.3206,-5.3206,0.0,0.0,0.0,0.0,0.0,0.0,0.0,-3.148,0.0,-4.1613,0.0,-4.2566,-4.342,-4.3508,-4.3497,-4.3497,0.0,-4.3008,-4.1846,-4.2838,-4.2971,-4.1809,-4.2212,-4.2415,-4.2304,-3.9486,0.0,0.0,0.0,-2.8347,-2.5906,-2.5111,0.0,0.0,0.0,0.0,0.0,-3.7742,-4.1095,0.0,-4.3222,-4.3497,-4.3497,-4.3497,-4.3497,-4.3497,-4.3497,-4.3712,-4.3881,-4.3597,-4.3497,-4.3497,-4.3497,-4.3497,-4.3497,-4.3497,-4.3497,-4.3497,-4.3497,-4.3497,-4.3497,-4.3497,-4.3497,-4.313,-4.1735,-4.1974,-4.2268,-4.157,-4.1423,-4.1791,0.0,0.0,0.0,0.0,0.0,0.0,0.0,0.0,0.0,0.0,0.0,0.0,0.0,0.0,0.0,0.0,0.0,0.0,0.0,0.0,0.0,-3.9845,-4.146,0.0,-4.3479,0.0,-4.3497,-4.3497,-4.3497,-4.4342,-4.5902,-4.5902,-4.6783,-4.8306,-4.8306,-4.8306,-4.8306,-4.8306,-4.9297,-5.0949,-5.2472,-5.3115,-5.3206,-5.3206,-5.3206,-5.3206,0.0,0.0,0.0,0.0,0.0,-3.5229,-3.9478,-4.1089,-4.0277,-3.6045,-3.5498,-3.7553,-4.2928,-4.3513,-4.3497,-4.3497,-4.3497,0.0,0.0,0.0,0.0,-4.3159,-4.3238,-4.2983,-4.2304,-3.9853,-3.7014,0.0,-3.0678,-2.7883,-2.5484,-2.4672,0.0,0.0,0.0,0.0,-3.5515,-3.8663,0.0,-4.3296,-4.3424,-4.3497,-4.3497,-4.3497,-4.3497,-4.3497,-4.3497,-4.3548,-4.3563,-4.3513,-4.3497,-4.3497,-4.3497,-4.3497,-4.3497,-4.3497,-4.3497,-4.3497,-4.3497,-4.3497,-4.3497,-4.3497,-4.3497,-4.3424,-4.313,-4.3185,-4.324,-4.3112,-4.3075,-4.2763,-4.1717,0.0,0.0,0.0,0.0,0.0,0.0,0.0,0.0,0.0,0.0,0.0,0.0,0.0,0.0,0.0,0.0,0.0,0.0,0.0,0.0,0.0,-4.146,0.0,0.0,0.0,-4.3497,-4.3497,-4.3497,-4.4342,-4.5902,-4.5902,-4.6783,-4.8306,-4.8306,-4.8306,-4.8306,-4.8306,-4.9297,-5.0894,-5.183,-5.2619,-5.3206,-5.3206,-5.3206,-5.3206,0.0,0.0,0.0,0.0,0.0,0.0,0.0,-4.3503,0.0,-3.9239,-3.8831,-4.0024,-4.3159,-4.3511,-4.3497,-4.3497,-4.3497,-4.3497,-4.3497,-4.3497,-4.3497,-4.3497,-4.3497,0.0,-4.2928,-4.0965,-3.856,-3.5716,-3.2045,-2.8998,-2.6594,-2.4961,-2.441,-2.4942,0.0,-3.177,0.0,0.0,0.0,-4.291,-4.3314,-4.3497,-4.3497,-4.3497,-4.3497,-4.3497,-4.3497,-4.3497,-4.3497,-4.3497,-4.3497,-4.3497,-4.3497,-4.3497,-4.3497,-4.3497,-4.3497,-4.3497,-4.3497,-4.3497,-4.3497,-4.3497,-4.3497,-4.3497,-4.3497,-4.3497,-4.3497,-4.3497,-4.3497,-4.3002,-4.1405,-3.9478,0.0,0.0,0.0,0.0,0.0,0.0,0.0,0.0,0.0,0.0,0.0,0.0,0.0,0.0,0.0,0.0,0.0,0.0,0.0,0.0,0.0,0.0,0.0,0.0,0.0,-4.3497,-4.3497,-4.4342,-4.5902,-4.5902,-4.6783,-4.8306,-4.8306,-4.8306,-4.8343,-4.8783,-4.9701,-5.0875,-5.1683,-5.2491,-5.3206,-5.3206,-5.3206,-5.3206,0.0,-3.1822,0.0,0.0,-3.3368,0.0,-4.1989,-4.2803,-4.2953,-4.3442,-4.352,-4.3498,-4.3498,-4.3508,-4.3497,-4.3497,-4.3497,-4.3497,-4.3497,-4.3497,-4.3497,-4.3497,-4.3497,-4.3497,-4.3497,-4.2084,-4.0084,0.0,-3.3917,-3.0742,-2.8007,-2.5933,-2.5474,0.0,0.0,0.0,0.0,0.0,-4.0924,-4.2461,-4.3188,-4.3497,-4.3497,-4.3375,-4.3321,-4.3321,-4.3196,-4.3142,-4.3142,-4.3142,-4.3321,-4.3497,-4.3497,-4.3497,-4.3497,-4.3497,-4.3497,-4.3497,-4.3497,-4.3497,-4.3497,-4.3497,-4.3497,-4.3497,-4.3497,-4.3497,-4.3497,-4.3497,-4.3497,-4.3002,-4.1405,-4.0341,0.0,0.0,0.0,0.0,0.0,0.0,0.0,0.0,0.0,0.0,0.0,0.0,0.0,0.0,0.0,0.0,-2.8883,-3.0962,0.0,0.0,0.0,-4.0808,-4.2667,0.0,-4.3444,0.0,-4.3444,-4.4342,-4.5902,-4.5902,-4.6783,-4.8306,-4.8306,-4.8306,-4.8361,-4.904,-4.9903,-5.0857,-5.1499,-5.2344,-5.3206,-5.3206,-5.3206,-5.3206,0.0,0.0,0.0,0.0,0.0,0.0,0.0,-4.04,-4.1174,-4.3242,-4.3487,-4.3495,-4.3495,-4.3513,-4.3497,-4.3497,-4.3497,-4.3497,-4.3497,-4.3497,-4.3497,-4.3497,-4.3497,-4.3497,-4.3497,-4.2635,-4.0653,0.0,0.0,0.0,0.0,-2.7915,-2.8282,0.0,0.0,0.0,0.0,-3.9445,-4.1142,-4.2718,-4.3267,-4.3497,-4.3444,-4.2976,-4.277,-4.2693,-4.2162,-4.1979,-4.1979,-4.1979,-4.2639,-4.3497,-4.3497,-4.3497,-4.3497,-4.3497,-4.3497,-4.3497,-4.3497,-4.3497,-4.3497,-4.3497,-4.3497,-4.3497,-4.3497,-4.3497,-4.3497,-4.3497,-4.3497,-4.3002,-4.1405,-4.2176,-4.1876,0.0,0.0,0.0,0.0,0.0,0.0,0.0,0.0,0.0,0.0,0.0,0.0,0.0,0.0,0.0,-2.8828,-2.9916,-3.209,-3.5783,0.0,-3.9922,-3.9943,-4.2305,-4.325,-4.2788,-4.325,-4.4342,-4.5902,-4.5902,-4.6783,-4.8306,-4.8306,-4.8306,-4.8324,-4.8398,-4.937,-5.082,-5.0875,-5.1848,-5.3206,-5.3206,-5.3206,-5.3206,0.0,0.0,0.0,0.0,0.0,0.0,0.0,-4.0106,-4.0446,-4.1341,-4.1469,-4.1465,-4.1465,-4.1866,-4.2309,-4.2813,-4.2959,-4.3178,-4.3479,-4.3214,-4.3014,-4.3014,-4.2657,-4.2483,-4.2483,-4.2538,-4.127,0.0,0.0,0.0,0.0,0.0,0.0,0.0,0.0,-3.6665,-3.8818,-3.9961,-4.1105,-4.2162,-4.2404,-4.2483,-4.2444,-4.2244,-4.2162,-4.2121,-4.1895,-4.181,-4.181,-4.181,-4.2324,-4.3014,-4.3014,-4.325,-4.3497,-4.3497,-4.3497,-4.3497,-4.3497,-4.3497,-4.3497,-4.3497,-4.3497,-4.3497,-4.3497,-4.3497,-4.3497,-4.3497,-4.325,-4.2702,-4.1713,-4.1523,-4.1105,0.0,0.0,0.0,0.0,0.0,0.0,0.0,0.0,0.0,0.0,0.0,0.0,0.0,0.0,0.0,-2.7533,-2.882,-3.1027,-3.4411,0.0,-3.9153,-3.9611,-4.1518,-4.2541,-4.2693,-4.2902,-4.4017,-4.5902,-4.553,-4.6248,-4.7797,-4.8132,-4.8306,-4.8306,-4.8306,-4.9297,-5.0802,-5.0802,-5.1793,-5.3206,-5.3206,-5.3206,-5.3206,-3.6913,0.0,-4.0113,0.0,-4.0097,-4.0097,-4.0087,-4.0112,-4.0083,-4.0083,-4.0101,-4.0087,-4.0112,-4.0863,-4.1594,-4.2163,-4.2368,-4.2598,-4.2995,-4.2637,-4.244,-4.244,-4.2038,0.0,-4.181,-4.2221,-4.156,-3.9746,-3.8618,0.0,0.0,0.0,0.0,0.0,-3.6562,-3.8187,-3.955,-4.0366,-4.0998,-4.1534,-4.1707,-4.181,-4.1768,-4.1621,-4.1534,-4.149,-4.1375,-4.1286,-4.1286,-4.1286,-4.1858,-4.2501,-4.2454,-4.2714,-4.2977,-4.2977,-4.2977,-4.2977,-4.2977,-4.2977,-4.2977,-4.2977,-4.2977,-4.2977,-4.2977,-4.2977,-4.2977,-4.2977,-4.2714,-4.2302,-4.1895,-4.1194,-4.0642,-4.0482,0.0,0.0,0.0,0.0,0.0,0.0,0.0,-2.8579,0.0,0.0,0.0,0.0,0.0,0.0,-2.7667,-2.8541,0.0,0.0,0.0,0.0,0.0,-4.0905,-4.2021,-4.244,-4.244,-4.3544,-4.5661,-4.5671,-4.6338,-4.7428,-4.8035,-4.8306,-4.8306,-4.8306,-4.9142,-5.0483,-5.0703,-5.1632,-5.2875,-5.3103,-5.3042,-5.2893,-4.0046,-4.0097,-4.0116,-4.0087,-4.0121,-4.0121,-4.007,-4.0121,-4.0121,-4.0121,-4.0121,-4.0124,-4.0096,-4.1117,-4.1793,-4.181,-4.181,-4.1793,-4.181,-4.1793,-4.181,0.0,0.0,-4.181,-4.181,-4.181,-4.1421,-4.0577,0.0,0.0,-3.6967,0.0,-3.6151,-3.6999,-3.8026,-3.8915,-3.9738,-4.0574,-4.0903,-4.0949,-4.1578,-4.181,-4.1707,-4.1133,-4.0903,-4.0856,-4.0336,-4.0121,-4.0121,-4.0121,-4.0979,-4.2072,-4.1886,-4.181,-4.181,-4.181,-4.181,-4.181,-4.181,-4.181,-4.181,-4.181,-4.181,-4.181,-4.181,-4.181,-4.181,-4.181,-4.181,-4.181,-4.181,-4.1793,-4.1279,-3.9676,0.0,0.0,0.0,0.0,0.0,0.0,-3.0369,-2.8666,-2.786,0.0,0.0,0.0,0.0,0.0,0.0,0.0,0.0,-3.3986,-3.6829,0.0,-3.7936,-4.049,-4.1793,-4.181,-4.181,-4.2923,-4.5075,-4.6645,-4.7367,-4.7428,-4.8035,-4.8306,-4.8306,-4.8306,-4.8885,-4.9793,-5.0542,-5.1365,-5.2224,-5.2937,-5.2725,-5.2112,-4.0086,-4.0103,-4.012,-4.0121,-4.007,-4.007,-4.007,-4.007,-4.007,-4.007,-4.007,-4.0102,-4.012,-4.0422,-4.0814,0.0,-4.1178,-4.1358,0.0,-4.1402,-4.1178,-4.1178,-4.0861,-4.0642,-4.0642,-4.1013,-4.0891,-4.025,0.0,0.0,0.0,-3.8347,-3.8407,-3.842,-3.9225,-3.9756,-4.0029,-4.0779,-4.1086,-4.1187,-4.1866,-4.2121,-4.2121,-4.1937,-4.1835,-4.1852,-4.168,-4.1593,-4.1593,-4.1593,-4.1885,-4.2228,-4.2157,-4.2653,-4.3279,-4.3279,-4.3279,-4.3174,-4.2687,-4.2528,-4.2448,-4.1934,-4.181,-4.181,-4.181,-4.181,-4.1664,-4.1268,-4.1178,-4.1087,-4.072,-4.092,-4.0885,-4.0006,-3.9416,0.0,0.0,0.0,0.0,0.0,0.0,-2.9638,0.0,-2.868,0.0,0.0,0.0,0.0,0.0,0.0,0.0,0.0,-3.6713,0.0,-3.7905,-3.973,-4.0797,-4.1178,-4.1178,-4.2072,-4.3834,-4.5815,-4.6478,-4.6112,-4.6756,-4.6981,-4.6981,-4.6981,-4.7839,-4.9126,-4.9334,-5.0235,-5.1444,-5.1661,-5.1611,-5.1393,-4.0101,-4.0104,-4.007,-4.007,-4.007,-4.007,-4.007,-4.007,-4.007,-4.007,-4.007,-4.007,-4.007,-4.007,0.0,-4.0577,-4.0625,-4.0871,-4.1522,-4.1229,-4.1126,-4.14,-4.112,-4.0916,-4.0916,0.0,0.0,-4.0493,-4.0457,-3.9985,-3.9186,-3.962,-3.9668,-3.9428,-4.0172,-4.0493,-4.0544,-4.1305,-4.161,-4.1644,-4.21,-4.2286,-4.2286,-4.2286,-4.2286,-4.2286,-4.2286,-4.2286,-4.2286,-4.2286,-4.2472,-4.2709,-4.2709,-4.3426,-4.4101,-4.351,-4.3384,-4.328,-4.2793,-4.2653,-4.2479,-4.1777,-4.1586,-4.1516,-4.122,-4.115,-4.1059,-4.0672,-4.0625,-4.0497,-4.0171,-4.0368,-4.0497,-4.0171,-3.9122,-3.8271,-3.7953,0.0,0.0,0.0,0.0,0.0,0.0,-3.0598,0.0,0.0,0.0,0.0,0.0,0.0,0.0,-3.3947,-3.7246,0.0,-3.8717,-3.9631,-4.0368,-4.0903,-4.1509,-4.2161,-4.2911,-4.5067,-4.5883,-4.5545,-4.6143,-4.6383,-4.6383,-4.6383,-4.7205,-4.8414,-4.8685,-4.957,-5.0716,-5.0981,-5.0929,-5.0662,-4.0076,-4.0081,0.0,0.0,-3.9986,0.0,-3.9952,-4.002,-4.0054,-4.002,-4.007,-4.0104,-4.0155,-4.0155,-4.0172,-4.0223,0.0,0.0,0.0,-4.1288,-4.1576,-4.2252,-4.2286,-4.2286,-4.2286,-4.2286,-4.1965,-4.1288,-4.0578,-4.0223,-4.0223,-4.0223,-4.0223,-4.0257,-4.0967,-4.1288,-4.1322,-4.2066,-4.2371,-4.2371,-4.2422,-4.2455,-4.2455,-4.2455,-4.2455,-4.2455,-4.2455,-4.2455,-4.2455,-4.2455,-4.2912,-4.3504,-4.3504,-4.3995,-4.4299,-4.2861,-4.2455,-4.2439,-4.2388,-4.2371,-4.2202,-4.1457,-4.1238,-4.1018,-4.0257,-4.007,-4.007,-4.007,-4.007,-4.007,-4.007,-4.007,-4.0054,-4.0003,-3.8819,-3.7889,-3.7838,0.0,0.0,0.0,0.0,0.0,0.0,-3.2747,-3.3541,0.0,0.0,0.0,0.0,0.0,-3.3964,-3.6772,-3.8294,-3.9394,-4.007,-4.007,-4.0402,-4.096,-4.2434,-4.2894,-4.2475,-4.4491,-4.5459,-4.5459,-4.6014,-4.6288,-4.6288,-4.6288,-4.6825,-4.7726,-4.838,-4.9152,-5.0033,-5.0716,-5.05,-4.9919,0.0,0.0,-4.0113,-4.0088,-3.9104,-3.8331,-3.8331,-3.9362,-3.9818,-3.9056,-3.9595,-4.029,-4.0882,-4.0933,-4.117,-4.1728,-4.1255,-4.1255,-4.1982,-4.2033,-4.2117,-4.2286,-4.2286,-4.2286,-4.2286,-4.2286,-4.2202,-4.2033,-4.1847,-4.1762,-4.1762,-4.1762,-4.1762,-4.1779,-4.1948,-4.2033,-4.2083,-4.2828,-4.3149,-4.32,-4.3792,-4.4045,-4.4045,-4.4045,-4.4045,-4.4045,-4.4045,-4.4045,-4.4045,-4.4045,-4.4164,-4.4316,-4.4316,-4.4434,-4.4502,-4.4147,-4.4045,-4.391,-4.3318,-4.3149,-4.298,-4.2219,-4.1627,-4.1018,-4.0257,-4.007,-4.007,-4.007,-4.007,-4.007,-4.007,-4.007,-3.9901,-3.9343,-3.8497,-3.7702,-3.7127,-3.5571,0.0,0.0,-3.4438,-3.4134,-3.4539,-3.4895,-3.4861,0.0,0.0,0.0,0.0,-3.6231,-3.6907,-3.7618,-3.9056,-3.9901,-4.007,-4.007,-4.0459,-4.1154,-4.2091,-4.2734,-4.3183,-4.4279,-4.4814,-4.4814,-4.4944,-4.5052,-4.5052,-4.5052,-4.5832,-4.7043,-4.7182,-4.8046,-4.9256,-4.9419,-4.9376,-4.9273,-3.7694,-3.8578,-3.9067,-3.9044,-3.8368,-3.7568,-3.6862,-3.7431,-3.8154,-3.8532,-3.9462,-4.0369,-4.1101,-4.1508,-4.1999,-4.2743,-4.2134,-4.2016,-4.276,-4.2811,-4.2963,-4.3318,-4.3335,-4.3335,-4.3335,-4.3335,-4.3166,-4.2811,-4.2472,-4.2286,-4.2286,-4.2286,-4.2286,-4.2303,-4.2642,-4.2811,-4.2861,-4.3623,-4.3944,-4.3995,-4.4401,-4.4587,-4.4587,-4.4587,-4.4587,-4.4587,-4.4587,-4.4587,-4.4587,-4.4587,-4.4587,-4.4587,-4.4587,-4.4587,-4.4587,-4.4587,-4.4587,-4.4485,-4.4062,-4.3944,-4.3758,-4.2997,-4.1999,-4.1102,-4.0679,-4.0324,-4.007,-4.007,-4.007,-4.007,-4.007,-4.007,-3.9834,-3.9106,-3.8379,-3.7652,-3.6891,-3.6062,0.0,-3.6096,-3.6096,-3.6214,-3.662,-3.6975,-3.6857,-3.6113,-3.7043,0.0,-3.7178,-3.8261,-3.8751,-3.8413,-3.9495,-4.007,-4.007,-4.007,-4.046,-4.1221,-4.1948,-4.2692,-4.3453,-4.4215,-4.4587,-4.4587,-4.4587,-4.4587,-4.4587,-4.4587,-4.5449,-4.6786,-4.6786,-4.7699,-4.9001,-4.9001,-4.9001,-4.9001,-3.5508,-3.6651,-3.7616,-3.7684,-3.7658,-3.7171,-3.5853,-3.5591,-3.6206,-3.8196,-3.9208,-4.0084,-4.1033,-4.1728,-4.2471,-4.3283,-4.2816,-4.2787,-4.3555,-4.3589,-4.3893,-4.4553,-4.4587,-4.4587,-4.4587,-4.4587,-4.4265,-4.3589,-4.2946,-4.2642,-4.2642,-4.2642,-4.2642,-4.2658,-4.3301,-4.3589,-4.3639,-4.4299,-4.4587,-4.4587,-4.4587,-4.4587,-4.4587,-4.4587,-4.4587,-4.4587,-4.4587,-4.4587,-4.4587,-4.4587,-4.4587,-4.4587,-4.4587,-4.4587,-4.4587,-4.4587,-4.4587,-4.4587,-4.4587,-4.4587,-4.4401,-4.3606,-4.2472,-4.1474,-4.1255,-4.0713,-4.0206,-4.0104,-4.007,-4.007,-4.007,-4.007,-3.98,-3.8954,-3.8311,-3.7601,-3.6721,0.0,-3.6823,-3.6941,-3.7618,-3.8108,-3.8227,-3.87,-3.8785,-3.8278,-3.9276,-3.9698,-3.9191,-3.9732,-3.9783,-3.9174,-3.9749,-4.007,-4.007,-4.007,-4.051,-4.1373,-4.1999,-4.2743,-4.3606,-4.4282,-4.4587,-4.4587,-4.4587,-4.4587,-4.4587,-4.4587,-4.5449,-4.6786,-4.6786,-4.7699,-4.9001,-4.9001,-4.9001,-4.9001,-3.5523,-3.6168,-3.6886,-3.706,-3.6955,-3.6736,-3.6459,-3.5921,-3.606,-3.7591,-3.8233,-3.9161,-4.08,-4.1042,-4.1703,-4.3195,-4.3221,-4.3515,-4.4384,-4.4401,-4.4451,-4.457,-4.4587,-4.4587,-4.4587,-4.4587,-4.4519,-4.4401,-4.4282,-4.4215,-4.4215,-4.4215,-4.4215,-4.4231,-4.435,-4.4401,-4.4401,-4.4536,-4.4587,-4.4587,-4.4587,-4.4587,-4.4587,-4.4587,-4.4587,-4.4587,-4.4587,-4.4587,-4.4587,-4.4587,-4.4587,-4.4587,-4.4587,-4.4587,-4.4587,-4.4587,-4.4587,-4.4587,-4.4587,-4.4587,-4.4401,-4.3606,-4.325,-4.2743,-4.1491,-4.1119,-4.0849,-4.0206,-4.007,-4.007,-4.007,-4.007,-3.9631,-3.8294,-3.7973,-3.7415,-3.6011,0.0,-3.7009,-3.7652,-3.8379,-3.9056,-3.9681,-3.9292,-3.9208,-3.9698,-3.9377,-3.9377,-3.9884,-4.002,-4.002,-3.9918,-4.002,-4.007,-4.007,-4.007,-4.0764,-4.2117,-4.2236,-4.3031,-4.4401,-4.4519,-4.4587,-4.4587,-4.4587,-4.4587,-4.4587,-4.4587,-4.5449,-4.6786,-4.6786,-4.7699,-4.9001,-4.9001,-4.9001,-4.9001,-3.5495,-3.5791,-3.6072,-3.6153,-3.6089,-3.6006,-3.6006,-3.5698,-3.5991,-3.7388,-3.8107,-3.914,-4.072,-4.123,-4.1772,-4.255,-4.3047,-4.3502,-4.3873,-4.4327,-4.4587,-4.4587,-4.4587,-4.4587,-4.4587,-4.4587,-4.4587,-4.4587,-4.4587,-4.4587,-4.4587,-4.4587,-4.4587,-4.4587,-4.4587,-4.4587,-4.4587,-4.4587,-4.4587,-4.4587,-4.4587,-4.4587,-4.4587,-4.4587,-4.4587,-4.4587,-4.4587,-4.4587,-4.4587,-4.4587,-4.4587,-4.4587,-4.4587,-4.4587,-4.4587,-4.4587,-4.4587,-4.4587,-4.4587,-4.4587,-4.4485,-4.413,-4.3724,-4.3234,-4.2557,-4.2083,-4.1576,-4.0832,-4.0679,-4.0561,-4.0155,-4.007,-3.9732,-3.8667,-3.8159,0.0,0.0,-3.7161,-3.7669,-3.8396,-3.914,-3.9715,-4.0054,-3.9766,-3.9715,-4.0054,-3.9766,-3.9715,-4.0054,-4.007,-4.007,-4.007,-4.007,-4.007,-4.007,-4.007,-4.0815,-4.2286,-4.2286,-4.3098,-4.4587,-4.4587,-4.4587,-4.4587,-4.4587,-4.4587,-4.4587,-4.4587,-4.5229,-4.6244,-4.6633,-4.7462,-4.8477,-4.8849,-4.9001,-4.9001,-3.5504,-3.5504,-3.5504,-3.5504,-3.5504,-3.5504,-3.5504,-3.5504,-3.6019,-3.7394,-3.8077,-3.892,-4.0365,-4.1047,-4.1478,-4.1674,-4.2316,-4.2785,-4.297,-4.3604,-4.4064,-4.431,-4.4121,-4.3989,-4.3989,-4.3989,-4.3989,-4.3989,-4.3989,-4.3989,-4.3989,-4.4196,-4.4196,-4.3989,-4.444,-4.4514,-4.4327,-4.4514,-4.4587,-4.4587,-4.4587,-4.4587,-4.4587,-4.4587,-4.4587,-4.4587,-4.4587,-4.4587,-4.4587,-4.4587,-4.4587,-4.4587,-4.4587,-4.4587,-4.4587,-4.4587,-4.4587,-4.4587,-4.4587,-4.4587,-4.4587,-4.4587,-4.413,-4.3639,-4.3453,-4.2963,-4.2337,-4.161,-4.1322,-4.1035,-4.0443,-4.0206,-3.9834,-3.9106,0.0,0.0,0.0,-3.8058,-3.8362,-3.892,-3.9631,-4.007,-4.007,-4.007,-4.007,-4.007,-4.007,-4.007,-4.007,-4.007,-4.007,-4.007,-4.007,-4.007,-4.007,-4.0257,-4.1001,-4.2286,-4.2472,-4.3267,-4.4587,-4.4587,-4.4587,-4.4587,-4.4587,-4.4587,-4.4587,-4.4587,-4.5026,-4.5771,-4.6498,-4.7259,-4.8003,-4.8731,-4.9001,-4.9001,-3.5504,-3.5504,-3.5504,-3.5504,-3.5504,-3.5504,-3.5504,-3.5504,-3.5938,-3.7233,-3.7443,-3.8022,-3.9328,-3.958,-3.9935,-4.0758,-4.0878,-4.1213,-4.2062,-4.2125,-4.2583,-4.3366,-4.2645,-4.2189,-4.2189,-4.2189,-4.2189,-4.2189,-4.2189,-4.2189,-4.2189,-4.3047,-4.2986,-4.2252,-4.3873,-4.4138,-4.3426,-4.4253,-4.4587,-4.4587,-4.4587,-4.4587,-4.4587,-4.4587,-4.4587,-4.4587,-4.4587,-4.4587,-4.4587,-4.4587,-4.4587,-4.4587,-4.4587,-4.4587,-4.4587,-4.4587,-4.4587,-4.4587,-4.4587,-4.4587,-4.4587,-4.4587,-4.4536,-4.4316,-4.3589,-4.3369,-4.3115,-4.2371,-4.1677,-4.1187,-4.1136,-4.0544,-3.9834,-3.9106,0.0,0.0,-3.8007,-3.8481,-3.8937,-3.8988,-3.9631,-4.007,-4.007,-4.007,-4.007,-4.007,-4.007,-4.007,-4.007,-4.007,-4.007,-4.007,-4.007,-4.007,-4.007,-4.0781,-4.1525,-4.2303,-4.2997,-4.3775,-4.4587,-4.4587,-4.4587,-4.4587,-4.4587,-4.4587,-4.4587,-4.4587,-4.5026,-4.5771,-4.6498,-4.7259,-4.8003,-4.8731,-4.9001,-4.9001,-3.5504,-3.5504,-3.5504,-3.5504,-3.5504,-3.5504,-3.5504,-3.5504,-3.5968,-3.724,-3.7404,-3.7913,-3.9275,-3.9424,-3.9553,-3.9864,-4.0378,-4.0811,-4.1147,-4.1213,-4.1609,-4.2458,-4.2189,-4.1997,-4.1997,-4.1997,-4.1997,-4.1997,-4.1997,-4.1997,-4.1997,-4.2332,-4.2332,-4.2062,-4.2707,-4.3092,-4.3306,-4.3092,-4.329,-4.3756,-4.3229,-4.297,-4.297,-4.297,-4.297,-4.297,-4.297,-4.297,-4.297,-4.297,-4.335,-4.3814,-4.3814,-4.4138,-4.4587,-4.4587,-4.4587,-4.4587,-4.4587,-4.4587,-4.4587,-4.4587,-4.4587,-4.4502,-4.4198,-4.413,-4.391,-4.3149,-4.2777,-4.2286,-4.1373,-4.0967,-4.0527,-3.9783,0.0,-3.9056,-3.9225,-3.9106,-3.9157,-3.9614,-3.9918,-4.007,-4.007,-4.007,-4.007,-4.007,-4.007,-4.007,-4.007,-4.007,-4.007,-4.007,-4.007,-4.007,-4.007,-4.0832,-4.1576,-4.2303,-4.3064,-4.3826,-4.4587,-4.4587,-4.4587,-4.4587,-4.4587,-4.4587,-4.4587,-4.4587,-4.4756,-4.5128,-4.6329,-4.6972,-4.7361,-4.8562,-4.9001,-4.9001,-3.5504,-3.5504,-3.5504,-3.5504,-3.5504,-3.5504,-3.5504,-3.5504,-3.5968,-3.724,-3.7404,-3.7913,-3.9275,-3.9424,-3.9424,-3.9424,-3.992,-4.0309,-4.0309,-4.0309,-4.0569,-4.1162,-4.1162,-4.1162,-4.1162,-4.1162,-4.1162,-4.1162,-4.1162,-4.1162,-4.1162,-4.1478,-4.1478,-4.1229,-4.1739,-4.2189,-4.2458,-4.2125,-4.2461,-4.3173,-4.2527,-4.2461,-4.2653,-4.2653,-4.2653,-4.2653,-4.2653,-4.2653,-4.2653,-4.2653,-4.3057,-4.3483,-4.3255,-4.3668,-4.4253,-4.4514,-4.4587,-4.4587,-4.4587,-4.4587,-4.4587,-4.4587,-4.4587,-4.4587,-4.4587,-4.4587,-4.4418,-4.3893,-4.3589,-4.3115,-4.2083,-4.1508,-4.1035,-4.051,-3.9817,-3.9512,-4.0003,-3.9648,-3.9512,-4.002,-4.007,-4.007,-4.007,-4.007,-4.007,-4.007,-4.007,-4.007,-4.007,-4.007,-4.007,-4.007,-4.007,-4.007,-4.007,-4.1052,-4.1796,-4.2303,-4.3301,-4.4062,-4.4587,-4.4587,-4.4587,-4.4587,-4.4587,-4.4587,-4.4587,-4.4587,-4.4587,-4.4722,-4.621,-4.6786,-4.6972,-4.846,-4.9001,-4.9001,-3.5504,-3.5504,-3.5504,-3.5504,-3.5504,-3.5504,-3.5504,-3.5504,-3.5968,-3.724,-3.7404,-3.7913,-3.9275,-3.9424,-3.9424,-3.9424,-3.9424,-3.9424,-3.9424,-3.9424,-3.9424,-3.9424,-3.9424,-3.9424,-3.9424,-3.9424,-3.9424,-3.9424,-3.9424,-3.9424,-3.9409,-4.0309,-4.0239,-3.9481,-4.1229,-4.1478,-4.0758,-4.1609,-4.2413,-4.2988,-4.2988,-4.3403,-4.3958,-4.3958,-4.3958,-4.3958,-4.3958,-4.3958,-4.3958,-4.3958,-4.3958,-4.3898,-4.3211,-4.3167,-4.3443,-4.4327,-4.4587,-4.457,-4.457,-4.457,-4.4587,-4.4587,-4.4587,-4.4587,-4.4587,-4.4587,-4.4587,-4.4587,-4.3961,-4.342,-4.342,-4.2219,-4.1221,-4.1204,-4.0578,-4.007,-4.007,-4.007,-4.007,-4.007,-4.007,-4.007,-4.007,-4.007,-4.007,-4.007,-4.007,-4.007,-4.007,-4.007,-4.007,-4.007,-4.007,-4.007,-4.0087,-4.1559,-4.2286,-4.2303,-4.3842,-4.4587,-4.4587,-4.4587,-4.4587,-4.4587,-4.4587,-4.4587,-4.4587,-4.4587,-4.4587,-4.4722,-4.621,-4.6786,-4.6972,-4.846,-4.9001,-4.9001,-3.5504,-3.5504,-3.5504,-3.5504,-3.5504,-3.5504,-3.5504,-3.5504,-3.5968,-3.724,-3.7404,-3.7913,-3.9275,-3.9424,-3.9424,-3.9424,-3.9424,-3.9424,-3.9424,-3.9424,-3.9424,-3.9424,-3.9424,-3.9424,-3.9424,-3.9424,-3.9424,-3.9424,-3.9424,-3.9424,-3.9424,-3.9681,-3.9681,-3.9409,-3.9935,-4.0655,-4.1365,-4.103,-4.1626,-4.2724,-4.2099,-4.2019,-4.2203,-4.2203,-4.2203,-4.2203,-4.2203,-4.2203,-4.2203,-4.2203,-4.2608,-4.3184,-4.3568,-4.3425,-4.3121,-4.3392,-4.3563,-4.368,-4.368,-4.4121,-4.4587,-4.4587,-4.4587,-4.4587,-4.4587,-4.4587,-4.4587,-4.4587,-4.4401,-4.4062,-4.3521,-4.2625,-4.1796,-4.1288,-4.0578,-4.007,-4.007,-4.007,-4.007,-4.007,-4.007,-4.007,-4.007,-4.007,-4.007,-4.007,-4.007,-4.007,-4.007,-4.007,-4.007,-4.007,-4.007,-4.0341,-4.0865,-4.1813,-4.2286,-4.2303,-4.3842,-4.4587,-4.4587,-4.4587,-4.4587,-4.4587,-4.4587,-4.4587,-4.4587,-4.4587,-4.4587,-4.4722,-4.621,-4.6786,-4.6972,-4.846,-4.9001,-4.9001,-3.4839,-3.4905,-3.5052,-3.5424,-3.5504,-3.5504,-3.5504,-3.5504,-3.5968,-3.724,-3.7404,-3.7913,-3.9275,-3.9424,-3.9424,-3.9424,-3.9424,-3.9424,-3.9424,-3.9424,-3.9424,-3.9424,-3.9424,-3.9424,-3.9424,-3.9424,-3.9424,-3.9424,-3.9424,-3.9424,-3.9424,-3.9424,-3.9559,-3.9813,-3.9813,-4.0435,-4.1534,-4.0994,-4.1519,-4.2541,-4.1972,-4.1923,-4.2147,-4.2147,-4.2147,-4.2147,-4.2147,-4.2147,-4.2147,-4.2147,-4.2334,-4.2748,-4.3623,-4.3431,-4.2932,-4.332,-4.3299,-4.3209,-4.3209,-4.3382,-4.3545,-4.3545,-4.3798,-4.4064,-4.4064,-4.3798,-4.3545,-4.3545,-4.3873,-4.3855,-4.3007,-4.2515,-4.2122,-4.1686,-4.0446,-3.9711,-4.0062,-3.9847,-3.961,-3.961,-3.9901,-4.007,-4.007,-4.007,-4.007,-4.007,-4.007,-4.007,-4.007,-4.007,-4.0206,-4.051,-4.0527,-4.0882,-4.1627,-4.2371,-4.2743,-4.276,-4.3978,-4.4587,-4.4587,-4.4587,-4.4587,-4.4587,-4.4587,-4.4587,-4.4587,-4.4587,-4.4587,-4.4705,-4.5889,-4.6532,-4.6938,-4.8139,-4.8748,-4.9001,-3.3739,-3.3945,-3.4312,-3.5213,-3.5439,-3.5504,-3.5504,-3.5504,-3.5968,-3.724,-3.7404,-3.7913,-3.9275,-3.9424,-3.9424,-3.9424,-3.9424,-3.9424,-3.9424,-3.9424,-3.9424,-3.9424,-3.9424,-3.9424,-3.9424,-3.9424,-3.9424,-3.9424,-3.9424,-3.9424,-3.9424,-3.9424,-3.9768,-4.0397,-4.0397,-4.0801,-4.1474,-4.1474,-4.1848,-4.2447,-4.2447,-4.2806,-4.3329,-4.3329,-4.3329,-4.3329,-4.3329,-4.3329,-4.3329,-4.3329,-4.294,-4.2587,-4.3438,-4.3198,-4.2844,-4.3643,-4.3377,-4.2905,-4.2905,-4.246,-4.1997,-4.1997,-4.252,-4.3108,-4.3185,-4.2583,-4.1997,-4.1997,-4.2645,-4.2909,-4.2125,-4.2061,-4.2085,-4.2085,-4.0259,-3.9162,-3.986,-3.938,-3.8882,-3.8816,-3.9437,-3.9901,-3.9901,-3.9952,-4.0003,-4.0003,-4.007,-4.0104,-4.0172,-4.0104,-4.0408,-4.1167,-4.1131,-4.1415,-4.2156,-4.2901,-4.331,-4.342,-4.4215,-4.4587,-4.4587,-4.4587,-4.4587,-4.4587,-4.4514,-4.4514,-4.4514,-4.4514,-4.4514,-4.4581,-4.5399,-4.6109,-4.6802,-4.7614,-4.8342,-4.8917,-3.289,-3.3518,-3.4095,-3.4312,-3.4986,-3.5504,-3.5504,-3.5504,-3.5968,-3.724,-3.7404,-3.7913,-3.9275,-3.9424,-3.9424,-3.9424,-3.9424,-3.9424,-3.9424,-3.9424,-3.9424,-3.9424,-3.9424,-3.9424,-3.9424,-3.9424,-3.9424,-3.9424,-3.9424,-3.9424,-3.9424,-3.9424,-3.9768,-4.0397,-4.0397,-4.1055,-4.2147,-4.2147,-4.2521,-4.312,-4.312,-4.321,-4.3329,-4.3329,-4.3329,-4.3329,-4.3329,-4.3329,-4.3329,-4.3329,-4.324,-4.312,-4.3341,-4.2952,-4.25,-4.2713,-4.2417,-4.2006,-4.2006,-4.2015,-4.1997,-4.1997,-4.1609,-4.1462,-4.2125,-4.2125,-4.1997,-4.1997,-4.2125,-4.2189,-4.2062,-4.1564,-4.116,-4.116,-4.0299,-3.9486,-3.9119,-3.8953,-3.8647,-3.81,-3.8206,-3.8318,-3.8318,-3.8816,-3.9139,-3.9139,-3.9714,-4.0341,-4.0933,-4.0288,-4.0277,-4.1005,-4.0449,-4.0453,-4.1225,-4.2061,-4.2756,-4.342,-4.4215,-4.4587,-4.4587,-4.4587,-4.4587,-4.457,-4.3873,-4.3562,-4.3562,-4.3562,-4.3562,-4.3704,-4.5151,-4.5805,-4.6109,-4.7428,-4.802,-4.824,-3.1815,-3.2321,-3.2961,-3.3808,-3.4041,-3.4259,-3.4706,-3.4409,-3.4723,-3.6491,-3.6737,-3.7393,-3.9188,-3.9424,-3.9424,-3.9424,-3.9424,-3.9424,-3.9424,-3.9424,-3.9424,-3.9424,-3.9424,-3.9424,-3.9424,-3.9424,-3.9424,-3.9424,-3.9424,-3.9574,-3.9888,-3.9888,-4.0412,-4.1324,-4.1324,-4.1893,-4.2821,-4.2821,-4.3015,-4.3329,-4.3329,-4.3329,-4.3329,-4.3329,-4.3329,-4.3329,-4.3329,-4.3329,-4.3329,-4.3329,-4.3329,-4.3329,-4.3329,-4.309,-4.2821,-4.2821,-4.247,-4.1949,-4.1629,-4.1392,-4.1177,-4.0851,-4.0447,-4.0309,-4.1213,-4.1095,-4.0774,-4.0774,-4.1095,-4.128,-4.0842,-4.0798,-4.081,-4.081,-3.9854,-3.9147,-3.922,-3.8968,-3.8433,-3.7786,-3.8066,-3.8259,-3.8259,-3.8649,-3.9008,-3.9291,-3.9738,-4.0143,-4.0522,-4.0123,-4.0199,-4.0929,-4.0537,-4.0687,-4.139,-4.1908,-4.2518,-4.3347,-4.4198,-4.4587,-4.4587,-4.4196,-4.4006,-4.3948,-4.3047,-4.2645,-4.2645,-4.2645,-4.2909,-4.3399,-4.4247,-4.5001,-4.573,-4.6099,-4.6681,-4.7383,-3.0833,-3.1106,-3.1669,-3.3241,-3.3031,-3.289,-3.3671,-3.3101,-3.3322,-3.5439,-3.5899,-3.6779,-3.8883,-3.9265,-3.9424,-3.9424,-3.9424,-3.9424,-3.9424,-3.9424,-3.9424,-3.9424,-3.9424,-3.9424,-3.9424,-3.9424,-3.9424,-3.9424,-3.9424,-3.9694,-4.0232,-4.0352,-4.104,-4.2192,-4.2312,-4.2731,-4.3329,-4.3329,-4.3329,-4.3329,-4.3329,-4.3329,-4.3329,-4.3329,-4.3329,-4.3329,-4.3329,-4.3329,-4.3329,-4.3329,-4.3329,-4.3329,-4.3329,-4.3329,-4.3329,-4.3329,-4.2865,-4.2207,-4.1564,-4.0905,-4.0247,-3.9589,-3.9424,-3.961,-4.0309,-3.992,-3.9424,-3.9424,-3.999,-4.0239,-3.9553,-3.999,-4.05,-4.05,-3.9379,-3.8777,-3.9364,-3.8939,-3.8338,-3.7646,-3.8169,-3.8555,-3.8555,-3.8676,-3.8975,-3.9563,-3.9718,-3.9843,-3.9971,-3.9847,-4.0102,-4.0801,-4.0705,-4.0925,-4.1543,-4.1674,-4.2125,-4.2847,-4.3739,-4.4253,-4.4327,-4.3486,-4.3047,-4.3047,-4.2125,-4.1804,-4.1804,-4.1804,-4.2189,-4.2847,-4.3047,-4.3866,-4.5001,-4.4389,-4.5124,-4.6454,-2.9921,-3.062,-3.1241,-3.1536,-3.2177,-3.2664,-3.2749,-3.2664,-3.3107,-3.446,-3.5451,-3.6548,-3.7849,-3.8855,-3.9424,-3.9424,-3.9424,-3.9424,-3.9424,-3.9424,-3.9424,-3.9424,-3.9424,-3.9424,-3.9424,-3.9424,-3.9424,-3.9424,-3.9424,-3.9469,-3.9574,-4.0127,-4.0801,-4.1534,-4.2102,-4.2731,-4.3329,-4.3329,-4.3329,-4.3329,-4.3329,-4.3329,-4.3329,-4.3329,-4.3329,-4.3329,-4.3329,-4.3329,-4.3329,-4.3329,-4.3329,-4.3329,-4.3329,-4.3329,-4.3329,-4.3329,-4.2865,-4.2207,-4.1564,-4.0905,-4.0247,-3.9589,-3.9424,-3.9409,-3.9538,-3.9481,-3.9424,-3.9424,-3.9481,-3.9553,-3.9409,-3.9481,-3.961,-3.961,-3.9406,-3.9065,-3.8662,-3.8512,-3.8211,-3.7481,-3.7526,-3.7594,-3.7594,-3.8227,-3.8647,-3.8741,-3.9424,-4.005,-4.0735,-4.0067,-4.0002,-4.0722,-3.9993,-3.9647,-3.9737,-4.05,-4.0946,-4.108,-4.1933,-4.2769,-4.3426,-4.2583,-4.2189,-4.2125,-4.1264,-4.0894,-4.0894,-4.0894,-4.0946,-4.1147,-4.1869,-4.2317,-4.2541,-4.3057,-4.4184,-4.5491,-2.9792,-3.0139,-3.0558,-3.1106,-3.1119,-3.1193,-3.1756,-3.1402,-3.1691,-3.3369,-3.4052,-3.5189,-3.7534,-3.8782,-3.9424,-3.9424,-3.887,-3.8782,-3.9337,-3.8855,-3.8782,-3.9337,-3.9424,-3.9424,-3.9424,-3.9424,-3.9424,-3.9424,-3.9424,-3.9798,-4.0516,-4.0816,-4.1489,-4.2476,-4.2776,-4.306,-4.3329,-4.3329,-4.3329,-4.3329,-4.3329,-4.3329,-4.3329,-4.3329,-4.3329,-4.3329,-4.3329,-4.3329,-4.3329,-4.3329,-4.3329,-4.3329,-4.3329,-4.3329,-4.3329,-4.3329,-4.3135,-4.2761,-4.2102,-4.1444,-4.0786,-4.0127,-3.9694,-3.9424,-3.9424,-3.9424,-3.9424,-3.9424,-3.9424,-3.9424,-3.9424,-3.9424,-3.9424,-3.9424,-3.9424,-3.932,-3.9005,-3.896,-3.8721,-3.8033,-3.7629,-3.7554,-3.7913,-3.8288,-3.863,-3.9024,-3.9382,-3.9693,-4.0069,-3.9688,-3.9631,-3.9975,-3.961,-3.9424,-3.9424,-3.9793,-4.0239,-4.069,-4.0569,-4.1295,-4.252,-4.1674,-4.128,-4.1213,-4.0378,-3.999,-3.999,-3.999,-4.0239,-4.0758,-4.1147,-4.128,-4.1358,-4.2066,-4.2779,-4.3532]}]]